GFSSE_prec_precacc_024.txt.gz
Total_Precipitation_Accumulation
0.00 0.00 0.04 0.02 0.05 0.06 0.03 0.03 0.01 0.00 0.00 0.00 0.00 0.01 0.06 0.06 0.02 0.01 0.00 0.00 0.00 0.00 0.00 0.05 0.12 0.14 0.18 0.17 0.08 0.01 0.01 0.00 0.00 0.00 0.00 0.00 0.00 0.00 0.00 0.00 0.00 0.00 0.01
0.00 0.00 0.02 0.02 0.04 0.03 0.02 0.02 0.00 0.00 0.00 0.00 0.00 0.03 0.04 0.03 0.02 0.02 0.01 0.00 0.00 0.00 0.00 0.00 0.01 0.04 0.05 0.01 0.00 0.00 0.00 0.00 0.00 0.00 0.00 0.00 0.00 0.00 0.00 0.00 0.00 0.00 0.01
0.00 0.00 0.00 0.02 0.06 0.02 0.01 0.00 0.00 0.00 0.00 0.00 0.01 0.05 0.02 0.00 0.00 0.01 0.01 0.00 0.00 0.00 0.00 0.00 0.00 0.00 0.00 0.00 0.00 0.00 0.00 0.00 0.00 0.00 0.00 0.00 0.00 0.00 0.00 0.00 0.00 0.00 0.00
0.00 0.00 0.00 0.02 0.03 0.02 0.02 0.00 0.00 0.00 0.00 0.00 0.03 0.02 0.00 0.00 0.00 0.00 0.00 0.00 0.00 0.00 0.00 0.00 0.00 0.00 0.00 0.00 0.00 0.00 0.00 0.00 0.00 0.00 0.00 0.00 0.00 0.00 0.00 0.00 0.01 0.00 0.01
0.00 0.00 0.00 0.02 0.02 0.02 0.01 0.00 0.00 0.00 0.00 0.00 0.01 0.00 0.01 0.02 0.02 0.01 0.00 0.00 0.00 0.00 0.00 0.00 0.00 0.00 0.00 0.00 0.00 0.00 0.00 0.00 0.00 0.00 0.00 0.00 0.00 0.00 0.00 0.01 0.02 0.02 0.02
0.00 0.00 0.00 0.02 0.02 0.01 0.00 0.00 0.00 0.00 0.00 0.00 0.00 0.00 0.00 0.03 0.07 0.06 0.01 0.00 0.00 0.00 0.00 0.00 0.00 0.00 0.00 0.00 0.00 0.00 0.00 0.00 0.00 0.00 0.00 0.00 0.00 0.00 0.00 0.00 0.00 0.00 0.00
0.00 0.00 0.00 0.02 0.01 0.00 0.00 0.00 0.00 0.00 0.00 0.00 0.00 0.00 0.01 0.04 0.08 0.12 0.03 0.00 0.00 0.00 0.00 0.00 0.00 0.00 0.00 0.00 0.00 0.00 0.00 0.00 0.00 0.00 0.00 0.00 0.00 0.00 0.00 0.00 0.00 0.00 0.00
0.00 0.00 0.00 0.02 0.02 0.00 0.00 0.01 0.00 0.00 0.00 0.00 0.00 0.00 0.00 0.01 0.05 0.11 0.04 0.00 0.00 0.00 0.00 0.00 0.00 0.00 0.01 0.01 0.00 0.00 0.00 0.00 0.00 0.00 0.00 0.00 0.00 0.00 0.00 0.00 0.00 0.00 0.00
0.00 0.00 0.00 0.01 0.01 0.00 0.00 0.01 0.01 0.01 0.01 0.00 0.00 0.00 0.00 0.00 0.01 0.05 0.02 0.00 0.00 0.00 0.00 0.00 0.00 0.00 0.00 0.02 0.02 0.02 0.01 0.00 0.00 0.00 0.00 0.00 0.00 0.00 0.01 0.02 0.04 0.05 0.06
0.00 0.00 0.00 0.00 0.01 0.01 0.00 0.00 0.00 0.00 0.00 0.00 0.00 0.00 0.00 0.00 0.00 0.01 0.00 0.00 0.00 0.00 0.00 0.00 0.00 0.02 0.03 0.02 0.02 0.01 0.01 0.00 0.00 0.00 0.00 0.00 0.00 0.00 0.02 0.04 0.04 0.07 0.10
0.00 0.00 0.00 0.00 0.00 0.01 0.00 0.00 0.00 0.00 0.00 0.00 0.00 0.00 0.00 0.00 0.00 0.00 0.00 0.00 0.00 0.00 0.00 0.00 0.01 0.03 0.02 0.01 0.01 0.00 0.00 0.00 0.00 0.00 0.00 0.00 0.00 0.01 0.02 0.03 0.05 0.06 0.07
0.00 0.00 0.00 0.00 0.00 0.00 0.00 0.00 0.00 0.00 0.00 0.00 0.00 0.00 0.00 0.00 0.00 0.00 0.00 0.00 0.00 0.00 0.00 0.00 0.01 0.01 0.01 0.00 0.00 0.00 0.00 0.00 0.00 0.00 0.00 0.00 0.00 0.01 0.02 0.03 0.04 0.02 0.02
0.00 0.00 0.00 0.00 0.00 0.00 0.00 0.00 0.00 0.00 0.00 0.00 0.00 0.00 0.00 0.00 0.00 0.00 0.00 0.00 0.00 0.00 0.00 0.00 0.00 0.00 0.00 0.00 0.00 0.00 0.00 0.00 0.00 0.00 0.00 0.00 0.00 0.00 0.01 0.02 0.02 0.02 0.02
0.00 0.00 0.00 0.00 0.00 0.00 0.00 0.00 0.00 0.00 0.00 0.00 0.00 0.00 0.00 0.00 0.00 0.00 0.00 0.00 0.00 0.00 0.00 0.00 0.00 0.00 0.00 0.00 0.00 0.00 0.00 0.00 0.00 0.00 0.00 0.00 0.00 0.00 0.00 0.01 0.01 0.01 0.02
0.00 0.00 0.00 0.00 0.00 0.00 0.00 0.00 0.00 0.00 0.00 0.00 0.00 0.00 0.00 0.00 0.00 0.00 0.00 0.00 0.00 0.00 0.00 0.00 0.00 0.00 0.00 0.00 0.00 0.00 0.00 0.00 0.00 0.00 0.00 0.00 0.00 0.00 0.00 0.00 0.01 0.01 0.02
0.00 0.00 0.00 0.00 0.00 0.00 0.00 0.00 0.00 0.00 0.00 0.00 0.00 0.00 0.00 0.00 0.00 0.00 0.00 0.00 0.00 0.00 0.00 0.00 0.00 0.00 0.00 0.00 0.00 0.00 0.00 0.00 0.00 0.00 0.00 0.00 0.00 0.00 0.00 0.00 0.01 0.01 0.02
0.00 0.00 0.00 0.00 0.00 0.00 0.00 0.00 0.00 0.00 0.00 0.00 0.00 0.00 0.00 0.00 0.00 0.00 0.00 0.00 0.00 0.00 0.00 0.00 0.00 0.00 0.00 0.00 0.00 0.00 0.00 0.00 0.00 0.00 0.00 0.00 0.00 0.00 0.00 0.00 0.01 0.02 0.02
0.00 0.00 0.00 0.00 0.00 0.00 0.00 0.00 0.00 0.01 0.02 0.01 0.00 0.00 0.00 0.00 0.00 0.00 0.00 0.00 0.00 0.00 0.00 0.00 0.00 0.00 0.00 0.00 0.00 0.00 0.00 0.00 0.00 0.00 0.00 0.00 0.00 0.00 0.00 0.00 0.01 0.01 0.01
0.00 0.00 0.00 0.00 0.00 0.00 0.00 0.00 0.03 0.02 0.01 0.01 0.01 0.00 0.00 0.00 0.00 0.00 0.00 0.00 0.00 0.00 0.00 0.00 0.00 0.00 0.00 0.00 0.00 0.00 0.00 0.00 0.00 0.00 0.00 0.00 0.00 0.00 0.00 0.00 0.00 0.00 0.01
0.00 0.00 0.00 0.00 0.00 0.00 0.00 0.05 0.05 0.01 0.01 0.01 0.00 0.00 0.00 0.00 0.00 0.00 0.00 0.00 0.00 0.00 0.00 0.00 0.00 0.00 0.00 0.00 0.00 0.00 0.00 0.00 0.00 0.00 0.00 0.00 0.00 0.00 0.00 0.00 0.00 0.00 0.02
0.00 0.00 0.00 0.00 0.00 0.00 0.00 0.03 0.04 0.05 0.03 0.01 0.00 0.00 0.00 0.00 0.00 0.00 0.00 0.00 0.00 0.00 0.00 0.00 0.00 0.00 0.00 0.00 0.00 0.00 0.00 0.00 0.00 0.00 0.00 0.00 0.00 0.00 0.00 0.00 0.00 0.01 0.05
0.00 0.00 0.00 0.00 0.00 0.00 0.00 0.02 0.05 0.07 0.05 0.02 0.00 0.00 0.00 0.00 0.00 0.00 0.00 0.00 0.00 0.00 0.00 0.00 0.00 0.00 0.00 0.00 0.00 0.00 0.00 0.00 0.00 0.00 0.00 0.00 0.00 0.00 0.00 0.00 0.01 0.02 0.03
0.00 0.00 0.00 0.00 0.00 0.00 0.00 0.03 0.04 0.03 0.02 0.01 0.00 0.00 0.00 0.00 0.00 0.00 0.00 0.00 0.00 0.00 0.00 0.00 0.00 0.00 0.00 0.00 0.00 0.00 0.00 0.00 0.00 0.00 0.00 0.00 0.00 0.00 0.00 0.00 0.00 0.00 0.00
0.00 0.00 0.00 0.00 0.00 0.00 0.00 0.02 0.05 0.03 0.03 0.02 0.00 0.00 0.00 0.00 0.00 0.00 0.00 0.00 0.00 0.00 0.00 0.00 0.00 0.00 0.00 0.00 0.00 0.00 0.00 0.00 0.00 0.00 0.00 0.00 0.00 0.00 0.00 0.00 0.00 0.00 0.00
0.00 0.00 0.00 0.00 0.00 0.00 0.00 0.03 0.07 0.04 0.02 0.01 0.00 0.00 0.00 0.00 0.00 0.00 0.00 0.00 0.00 0.00 0.00 0.00 0.00 0.00 0.00 0.00 0.00 0.00 0.00 0.00 0.00 0.00 0.00 0.00 0.00 0.00 0.00 0.00 0.00 0.00 0.00
0.00 0.00 0.00 0.00 0.00 0.00 0.00 0.00 0.03 0.04 0.02 0.00 0.00 0.00 0.00 0.00 0.00 0.00 0.00 0.00 0.00 0.00 0.00 0.00 0.00 0.00 0.00 0.00 0.00 0.00 0.00 0.00 0.00 0.00 0.00 0.00 0.00 0.00 0.00 0.00 0.00 0.00 0.00

GFSSE_prec_precacc_027.txt.gz
Total_Precipitation_Accumulation
0.00 0.00 0.04 0.02 0.05 0.06 0.03 0.03 0.01 0.00 0.00 0.00 0.00 0.01 0.06 0.07 0.02 0.01 0.00 0.00 0.00 0.00 0.00 0.06 0.14 0.16 0.22 0.22 0.09 0.01 0.01 0.00 0.00 0.00 0.00 0.00 0.00 0.00 0.00 0.00 0.00 0.00 0.01
0.00 0.00 0.02 0.02 0.04 0.03 0.02 0.02 0.00 0.00 0.00 0.00 0.00 0.04 0.06 0.04 0.02 0.02 0.01 0.00 0.00 0.00 0.00 0.00 0.02 0.08 0.08 0.03 0.00 0.00 0.00 0.00 0.00 0.00 0.00 0.00 0.00 0.00 0.00 0.00 0.00 0.00 0.01
0.00 0.00 0.00 0.02 0.06 0.02 0.01 0.00 0.00 0.00 0.00 0.00 0.02 0.06 0.02 0.00 0.00 0.01 0.01 0.00 0.00 0.00 0.00 0.00 0.00 0.00 0.00 0.00 0.00 0.00 0.00 0.00 0.00 0.00 0.00 0.00 0.00 0.00 0.00 0.00 0.00 0.00 0.00
0.00 0.00 0.00 0.02 0.04 0.02 0.02 0.00 0.00 0.00 0.00 0.00 0.04 0.02 0.00 0.00 0.00 0.00 0.00 0.00 0.00 0.00 0.00 0.00 0.00 0.00 0.00 0.00 0.00 0.00 0.00 0.00 0.00 0.00 0.00 0.00 0.00 0.00 0.00 0.00 0.01 0.01 0.01
0.00 0.00 0.00 0.02 0.03 0.02 0.01 0.00 0.00 0.00 0.00 0.01 0.02 0.00 0.01 0.02 0.02 0.01 0.00 0.00 0.00 0.00 0.00 0.00 0.00 0.00 0.00 0.00 0.00 0.00 0.00 0.00 0.00 0.00 0.00 0.00 0.00 0.00 0.00 0.01 0.02 0.03 0.03
0.00 0.00 0.00 0.02 0.02 0.01 0.00 0.00 0.00 0.00 0.00 0.00 0.00 0.00 0.00 0.03 0.07 0.06 0.01 0.00 0.00 0.00 0.00 0.00 0.00 0.00 0.00 0.00 0.00 0.00 0.00 0.00 0.00 0.00 0.00 0.00 0.00 0.00 0.00 0.00 0.00 0.00 0.00
0.00 0.00 0.00 0.02 0.02 0.00 0.00 0.00 0.00 0.00 0.00 0.00 0.00 0.00 0.01 0.04 0.08 0.12 0.03 0.00 0.00 0.00 0.00 0.00 0.00 0.00 0.00 0.00 0.00 0.00 0.00 0.00 0.00 0.00 0.00 0.00 0.00 0.00 0.00 0.00 0.00 0.00 0.00
0.00 0.00 0.00 0.02 0.03 0.01 0.00 0.01 0.00 0.00 0.00 0.00 0.00 0.00 0.00 0.01 0.05 0.11 0.05 0.00 0.00 0.00 0.00 0.00 0.00 0.00 0.01 0.01 0.00 0.00 0.00 0.00 0.00 0.00 0.00 0.00 0.00 0.00 0.00 0.01 0.01 0.02 0.03
0.00 0.00 0.00 0.02 0.03 0.01 0.00 0.01 0.01 0.01 0.01 0.00 0.00 0.00 0.00 0.00 0.02 0.06 0.02 0.00 0.00 0.00 0.00 0.00 0.00 0.00 0.01 0.02 0.02 0.02 0.01 0.00 0.00 0.00 0.00 0.00 0.00 0.00 0.01 0.04 0.05 0.05 0.08
0.00 0.00 0.00 0.00 0.02 0.01 0.00 0.00 0.00 0.00 0.00 0.00 0.00 0.00 0.00 0.00 0.00 0.01 0.00 0.00 0.00 0.00 0.00 0.00 0.01 0.03 0.03 0.02 0.02 0.01 0.01 0.00 0.00 0.00 0.00 0.00 0.00 0.00 0.02 0.04 0.04 0.07 0.10
0.00 0.00 0.00 0.00 0.00 0.01 0.00 0.00 0.00 0.00 0.00 0.00 0.00 0.00 0.00 0.00 0.00 0.00 0.00 0.00 0.00 0.00 0.00 0.00 0.01 0.03 0.02 0.01 0.01 0.00 0.00 0.00 0.00 0.00 0.00 0.00 0.00 0.01 0.02 0.03 0.05 0.06 0.07
0.00 0.00 0.00 0.00 0.00 0.00 0.00 0.00 0.00 0.00 0.00 0.00 0.00 0.00 0.00 0.00 0.00 0.00 0.00 0.00 0.00 0.00 0.00 0.00 0.01 0.01 0.01 0.00 0.00 0.00 0.00 0.00 0.00 0.00 0.00 0.00 0.00 0.01 0.02 0.03 0.04 0.02 0.02
0.00 0.00 0.00 0.00 0.00 0.00 0.00 0.00 0.00 0.00 0.00 0.00 0.00 0.00 0.00 0.00 0.00 0.00 0.00 0.00 0.00 0.00 0.00 0.00 0.00 0.00 0.00 0.00 0.00 0.00 0.00 0.00 0.00 0.00 0.00 0.00 0.00 0.00 0.01 0.02 0.02 0.02 0.02
0.00 0.00 0.00 0.00 0.00 0.00 0.00 0.00 0.00 0.00 0.00 0.00 0.00 0.00 0.00 0.00 0.00 0.00 0.00 0.00 0.00 0.00 0.00 0.00 0.00 0.00 0.00 0.00 0.00 0.00 0.00 0.00 0.00 0.00 0.00 0.00 0.00 0.00 0.00 0.01 0.01 0.01 0.02
0.00 0.00 0.00 0.00 0.00 0.00 0.00 0.00 0.00 0.00 0.00 0.00 0.00 0.00 0.00 0.00 0.00 0.00 0.00 0.00 0.00 0.00 0.00 0.00 0.00 0.00 0.00 0.00 0.00 0.00 0.00 0.00 0.00 0.00 0.00 0.00 0.00 0.00 0.00 0.00 0.01 0.01 0.02
0.00 0.00 0.00 0.00 0.00 0.00 0.00 0.00 0.00 0.00 0.00 0.00 0.00 0.00 0.00 0.00 0.00 0.00 0.00 0.00 0.00 0.00 0.00 0.00 0.00 0.00 0.00 0.00 0.00 0.00 0.00 0.00 0.00 0.00 0.00 0.00 0.00 0.00 0.00 0.00 0.01 0.01 0.02
0.00 0.00 0.00 0.00 0.00 0.00 0.00 0.00 0.00 0.00 0.00 0.00 0.00 0.00 0.00 0.00 0.00 0.00 0.00 0.00 0.00 0.00 0.00 0.00 0.00 0.00 0.00 0.00 0.00 0.00 0.00 0.00 0.00 0.00 0.00 0.00 0.00 0.00 0.00 0.00 0.01 0.02 0.02
0.00 0.00 0.00 0.00 0.00 0.00 0.00 0.00 0.00 0.01 0.02 0.01 0.00 0.00 0.00 0.00 0.00 0.00 0.00 0.00 0.00 0.00 0.00 0.00 0.00 0.00 0.00 0.00 0.00 0.00 0.00 0.00 0.00 0.00 0.00 0.00 0.00 0.00 0.00 0.00 0.01 0.01 0.01
0.00 0.00 0.00 0.00 0.00 0.00 0.00 0.00 0.03 0.02 0.01 0.01 0.01 0.00 0.00 0.00 0.00 0.00 0.00 0.00 0.00 0.00 0.00 0.00 0.00 0.00 0.00 0.00 0.00 0.00 0.00 0.00 0.00 0.00 0.00 0.00 0.00 0.00 0.00 0.00 0.00 0.00 0.01
0.00 0.00 0.00 0.00 0.00 0.00 0.00 0.05 0.05 0.02 0.02 0.01 0.00 0.00 0.00 0.00 0.00 0.00 0.00 0.00 0.00 0.00 0.00 0.00 0.00 0.00 0.00 0.00 0.00 0.00 0.00 0.00 0.00 0.00 0.00 0.00 0.00 0.00 0.00 0.00 0.00 0.00 0.02
0.00 0.00 0.00 0.00 0.00 0.00 0.00 0.03 0.04 0.06 0.07 0.06 0.01 0.00 0.00 0.00 0.00 0.00 0.00 0.00 0.00 0.00 0.00 0.00 0.00 0.00 0.00 0.00 0.00 0.00 0.00 0.00 0.00 0.00 0.00 0.00 0.00 0.00 0.00 0.00 0.00 0.01 0.05
0.00 0.00 0.00 0.00 0.00 0.00 0.00 0.02 0.05 0.07 0.07 0.07 0.05 0.01 0.00 0.00 0.00 0.00 0.00 0.00 0.00 0.00 0.00 0.00 0.00 0.00 0.00 0.00 0.00 0.00 0.00 0.00 0.00 0.00 0.00 0.00 0.00 0.00 0.00 0.00 0.01 0.02 0.03
0.00 0.00 0.00 0.00 0.00 0.00 0.00 0.03 0.04 0.03 0.02 0.02 0.01 0.02 0.01 0.00 0.00 0.00 0.00 0.00 0.00 0.00 0.00 0.00 0.00 0.00 0.00 0.00 0.00 0.00 0.00 0.00 0.00 0.00 0.00 0.00 0.00 0.00 0.00 0.00 0.00 0.00 0.00
0.00 0.00 0.00 0.00 0.00 0.00 0.00 0.02 0.05 0.03 0.04 0.03 0.03 0.02 0.01 0.00 0.00 0.00 0.00 0.00 0.00 0.00 0.00 0.00 0.00 0.00 0.00 0.00 0.00 0.00 0.00 0.00 0.00 0.00 0.00 0.00 0.00 0.00 0.00 0.00 0.00 0.00 0.00
0.00 0.00 0.00 0.00 0.00 0.00 0.00 0.03 0.07 0.04 0.02 0.02 0.01 0.01 0.00 0.00 0.00 0.00 0.00 0.00 0.00 0.00 0.00 0.00 0.00 0.00 0.00 0.00 0.00 0.00 0.00 0.00 0.00 0.00 0.00 0.00 0.00 0.00 0.00 0.00 0.00 0.00 0.00
0.00 0.00 0.00 0.00 0.00 0.00 0.00 0.00 0.03 0.04 0.02 0.01 0.00 0.00 0.00 0.00 0.00 0.00 0.00 0.00 0.00 0.00 0.00 0.00 0.00 0.00 0.00 0.00 0.00 0.00 0.00 0.00 0.00 0.00 0.00 0.00 0.00 0.00 0.00 0.00 0.00 0.00 0.00

GFSSE_prec_precacc_030.txt.gz
Total_Precipitation_Accumulation
0.00 0.00 0.04 0.02 0.05 0.06 0.03 0.03 0.01 0.00 0.00 0.00 0.00 0.02 0.06 0.07 0.02 0.01 0.00 0.00 0.00 0.00 0.00 0.06 0.15 0.17 0.29 0.25 0.09 0.01 0.01 0.00 0.00 0.00 0.00 0.00 0.00 0.00 0.00 0.00 0.00 0.00 0.01
0.00 0.00 0.02 0.02 0.04 0.03 0.02 0.02 0.00 0.00 0.00 0.00 0.00 0.04 0.06 0.04 0.02 0.02 0.01 0.00 0.00 0.00 0.00 0.00 0.03 0.12 0.12 0.04 0.00 0.00 0.00 0.00 0.00 0.00 0.00 0.00 0.00 0.00 0.00 0.00 0.00 0.00 0.01
0.00 0.00 0.00 0.02 0.06 0.02 0.01 0.00 0.00 0.00 0.00 0.00 0.03 0.07 0.03 0.00 0.00 0.01 0.01 0.00 0.00 0.00 0.00 0.00 0.00 0.00 0.00 0.00 0.00 0.00 0.00 0.00 0.00 0.00 0.00 0.00 0.00 0.00 0.00 0.00 0.00 0.00 0.00
0.00 0.00 0.00 0.02 0.04 0.02 0.02 0.00 0.00 0.00 0.00 0.00 0.05 0.02 0.00 0.00 0.00 0.00 0.00 0.00 0.00 0.00 0.00 0.00 0.00 0.00 0.00 0.00 0.00 0.00 0.00 0.00 0.00 0.00 0.00 0.00 0.00 0.00 0.00 0.00 0.01 0.01 0.01
0.00 0.00 0.00 0.02 0.03 0.02 0.01 0.00 0.00 0.00 0.00 0.01 0.02 0.00 0.01 0.02 0.02 0.01 0.00 0.00 0.00 0.00 0.00 0.00 0.00 0.00 0.00 0.00 0.00 0.00 0.00 0.00 0.00 0.00 0.00 0.00 0.00 0.00 0.00 0.01 0.02 0.03 0.03
0.00 0.00 0.00 0.02 0.03 0.01 0.00 0.00 0.00 0.00 0.00 0.01 0.00 0.00 0.00 0.03 0.07 0.06 0.01 0.00 0.00 0.00 0.00 0.00 0.00 0.00 0.00 0.00 0.00 0.00 0.00 0.00 0.00 0.00 0.00 0.00 0.00 0.00 0.00 0.00 0.00 0.00 0.00
0.00 0.00 0.00 0.02 0.02 0.01 0.00 0.00 0.00 0.00 0.00 0.00 0.00 0.00 0.01 0.04 0.08 0.12 0.03 0.00 0.00 0.00 0.00 0.00 0.00 0.00 0.00 0.00 0.00 0.00 0.00 0.00 0.00 0.00 0.00 0.00 0.00 0.00 0.00 0.00 0.00 0.01 0.02
0.00 0.00 0.00 0.02 0.04 0.01 0.00 0.01 0.00 0.00 0.00 0.00 0.00 0.00 0.00 0.01 0.05 0.12 0.05 0.00 0.00 0.00 0.00 0.00 0.00 0.00 0.01 0.01 0.00 0.00 0.00 0.00 0.00 0.00 0.00 0.00 0.00 0.00 0.00 0.02 0.02 0.03 0.03
0.00 0.00 0.00 0.02 0.03 0.01 0.00 0.01 0.01 0.01 0.01 0.00 0.00 0.00 0.00 0.00 0.02 0.06 0.02 0.00 0.00 0.00 0.00 0.00 0.00 0.00 0.01 0.02 0.02 0.02 0.01 0.00 0.00 0.00 0.00 0.00 0.00 0.00 0.02 0.04 0.05 0.06 0.08
0.00 0.00 0.00 0.00 0.02 0.02 0.00 0.00 0.00 0.00 0.00 0.00 0.00 0.00 0.00 0.00 0.01 0.02 0.00 0.00 0.00 0.00 0.00 0.00 0.01 0.03 0.03 0.02 0.02 0.01 0.01 0.00 0.00 0.00 0.00 0.00 0.00 0.00 0.02 0.04 0.04 0.07 0.10
0.00 0.00 0.00 0.00 0.00 0.01 0.00 0.00 0.00 0.00 0.00 0.00 0.00 0.00 0.00 0.00 0.00 0.00 0.00 0.00 0.00 0.00 0.00 0.00 0.01 0.03 0.02 0.01 0.01 0.00 0.00 0.00 0.00 0.00 0.00 0.00 0.00 0.01 0.02 0.03 0.05 0.06 0.07
0.00 0.00 0.00 0.00 0.00 0.01 0.00 0.00 0.00 0.00 0.00 0.00 0.00 0.00 0.00 0.00 0.00 0.00 0.00 0.00 0.00 0.00 0.00 0.00 0.01 0.01 0.01 0.00 0.00 0.00 0.00 0.00 0.00 0.00 0.00 0.00 0.00 0.01 0.02 0.03 0.04 0.02 0.02
0.00 0.00 0.00 0.00 0.00 0.00 0.00 0.00 0.00 0.00 0.00 0.00 0.00 0.00 0.00 0.00 0.00 0.00 0.00 0.00 0.00 0.00 0.00 0.00 0.00 0.00 0.00 0.00 0.00 0.00 0.00 0.00 0.00 0.00 0.00 0.00 0.00 0.00 0.01 0.02 0.02 0.02 0.02
0.00 0.00 0.00 0.00 0.00 0.00 0.00 0.00 0.00 0.00 0.00 0.00 0.00 0.00 0.00 0.00 0.00 0.00 0.00 0.00 0.00 0.00 0.00 0.00 0.00 0.00 0.00 0.00 0.00 0.00 0.00 0.00 0.00 0.00 0.00 0.00 0.00 0.00 0.00 0.01 0.01 0.01 0.02
0.00 0.00 0.00 0.00 0.00 0.00 0.00 0.00 0.00 0.00 0.00 0.00 0.00 0.00 0.00 0.00 0.00 0.00 0.00 0.00 0.00 0.00 0.00 0.00 0.00 0.00 0.00 0.00 0.00 0.00 0.00 0.00 0.00 0.00 0.00 0.00 0.00 0.00 0.00 0.00 0.01 0.01 0.02
0.00 0.00 0.00 0.00 0.00 0.00 0.00 0.00 0.00 0.00 0.00 0.00 0.00 0.00 0.00 0.00 0.00 0.00 0.00 0.00 0.00 0.00 0.00 0.00 0.00 0.00 0.00 0.00 0.00 0.00 0.00 0.00 0.00 0.00 0.00 0.00 0.00 0.00 0.00 0.00 0.01 0.01 0.02
0.00 0.00 0.00 0.00 0.00 0.00 0.00 0.00 0.00 0.00 0.00 0.00 0.00 0.00 0.00 0.00 0.00 0.00 0.00 0.00 0.00 0.00 0.00 0.00 0.00 0.00 0.00 0.00 0.00 0.00 0.00 0.00 0.00 0.00 0.00 0.00 0.00 0.00 0.00 0.00 0.01 0.02 0.02
0.00 0.00 0.00 0.00 0.00 0.00 0.00 0.00 0.00 0.01 0.02 0.03 0.01 0.00 0.00 0.00 0.00 0.00 0.00 0.00 0.00 0.00 0.00 0.00 0.00 0.00 0.00 0.00 0.00 0.00 0.00 0.00 0.00 0.00 0.00 0.00 0.00 0.00 0.00 0.00 0.01 0.01 0.01
0.00 0.00 0.00 0.00 0.00 0.00 0.00 0.00 0.03 0.02 0.01 0.02 0.01 0.00 0.00 0.00 0.00 0.00 0.00 0.00 0.00 0.00 0.00 0.00 0.00 0.00 0.00 0.00 0.00 0.00 0.00 0.00 0.00 0.00 0.00 0.00 0.00 0.00 0.00 0.00 0.00 0.00 0.01
0.00 0.00 0.00 0.00 0.00 0.00 0.00 0.05 0.05 0.02 0.02 0.02 0.00 0.00 0.00 0.00 0.00 0.00 0.00 0.00 0.00 0.00 0.00 0.00 0.00 0.00 0.00 0.00 0.00 0.00 0.00 0.00 0.00 0.00 0.00 0.00 0.00 0.00 0.00 0.00 0.00 0.00 0.02
0.00 0.00 0.00 0.00 0.00 0.00 0.00 0.03 0.04 0.06 0.07 0.06 0.02 0.00 0.00 0.00 0.00 0.00 0.00 0.00 0.00 0.00 0.00 0.00 0.00 0.00 0.00 0.00 0.00 0.00 0.00 0.00 0.00 0.00 0.00 0.00 0.00 0.00 0.00 0.00 0.00 0.01 0.05
0.00 0.00 0.00 0.00 0.00 0.00 0.00 0.02 0.06 0.09 0.09 0.07 0.05 0.02 0.01 0.00 0.00 0.00 0.00 0.00 0.00 0.00 0.00 0.00 0.00 0.00 0.00 0.00 0.00 0.00 0.00 0.00 0.00 0.00 0.00 0.00 0.00 0.00 0.00 0.00 0.01 0.02 0.03
0.00 0.00 0.00 0.00 0.00 0.00 0.00 0.03 0.04 0.03 0.03 0.02 0.02 0.04 0.03 0.02 0.00 0.00 0.00 0.00 0.00 0.00 0.00 0.00 0.00 0.00 0.00 0.00 0.00 0.00 0.00 0.00 0.00 0.00 0.00 0.00 0.00 0.00 0.00 0.00 0.00 0.00 0.00
0.00 0.00 0.00 0.00 0.00 0.00 0.00 0.02 0.05 0.04 0.04 0.04 0.04 0.04 0.03 0.01 0.00 0.00 0.00 0.00 0.00 0.00 0.00 0.00 0.00 0.00 0.00 0.00 0.00 0.00 0.00 0.00 0.00 0.00 0.00 0.00 0.00 0.00 0.00 0.00 0.00 0.00 0.00
0.00 0.00 0.00 0.00 0.00 0.00 0.00 0.03 0.07 0.04 0.02 0.02 0.01 0.01 0.01 0.01 0.01 0.00 0.00 0.00 0.00 0.00 0.00 0.00 0.00 0.00 0.00 0.00 0.00 0.00 0.00 0.00 0.00 0.00 0.00 0.00 0.00 0.00 0.00 0.00 0.00 0.00 0.00
0.00 0.00 0.00 0.00 0.00 0.00 0.00 0.00 0.03 0.04 0.02 0.01 0.00 0.01 0.03 0.03 0.01 0.00 0.00 0.00 0.00 0.00 0.00 0.00 0.00 0.00 0.00 0.00 0.00 0.00 0.00 0.00 0.00 0.00 0.00 0.00 0.00 0.00 0.00 0.00 0.00 0.00 0.00

GFSSE_prec_precacc_033.txt.gz
Total_Precipitation_Accumulation
0.00 0.00 0.04 0.02 0.05 0.06 0.03 0.03 0.01 0.00 0.00 0.00 0.01 0.02 0.06 0.07 0.02 0.01 0.00 0.00 0.00 0.00 0.01 0.07 0.16 0.19 0.34 0.26 0.09 0.01 0.01 0.00 0.00 0.00 0.00 0.00 0.00 0.00 0.00 0.00 0.00 0.00 0.01
0.00 0.00 0.02 0.02 0.04 0.03 0.02 0.02 0.00 0.00 0.00 0.00 0.01 0.04 0.06 0.04 0.02 0.02 0.01 0.00 0.00 0.00 0.00 0.00 0.05 0.15 0.14 0.04 0.00 0.00 0.00 0.00 0.00 0.00 0.00 0.00 0.00 0.00 0.00 0.00 0.00 0.00 0.01
0.00 0.00 0.00 0.02 0.06 0.02 0.01 0.00 0.00 0.00 0.00 0.00 0.04 0.08 0.03 0.00 0.00 0.01 0.01 0.00 0.00 0.00 0.00 0.00 0.00 0.00 0.00 0.00 0.00 0.00 0.00 0.00 0.00 0.00 0.00 0.00 0.00 0.00 0.00 0.00 0.00 0.00 0.00
0.00 0.00 0.00 0.02 0.04 0.02 0.02 0.00 0.00 0.00 0.00 0.01 0.06 0.02 0.00 0.00 0.00 0.00 0.00 0.00 0.00 0.00 0.00 0.00 0.00 0.00 0.00 0.00 0.00 0.00 0.00 0.00 0.00 0.00 0.00 0.00 0.00 0.00 0.00 0.00 0.01 0.01 0.01
0.00 0.00 0.00 0.02 0.03 0.02 0.01 0.00 0.00 0.00 0.00 0.01 0.02 0.00 0.01 0.02 0.02 0.01 0.00 0.00 0.00 0.00 0.00 0.00 0.00 0.00 0.00 0.00 0.00 0.00 0.00 0.00 0.00 0.00 0.00 0.00 0.00 0.00 0.00 0.01 0.02 0.03 0.03
0.00 0.00 0.00 0.02 0.03 0.01 0.00 0.00 0.00 0.00 0.00 0.01 0.00 0.00 0.00 0.03 0.07 0.06 0.01 0.00 0.00 0.00 0.00 0.00 0.00 0.00 0.00 0.00 0.00 0.00 0.00 0.00 0.00 0.00 0.00 0.00 0.00 0.00 0.00 0.00 0.01 0.01 0.01
0.00 0.00 0.00 0.02 0.02 0.01 0.00 0.00 0.00 0.00 0.00 0.00 0.00 0.00 0.01 0.04 0.08 0.12 0.03 0.00 0.00 0.00 0.00 0.00 0.00 0.00 0.00 0.00 0.00 0.00 0.00 0.00 0.00 0.00 0.00 0.00 0.01 0.00 0.00 0.01 0.01 0.03 0.04
0.00 0.00 0.00 0.02 0.04 0.01 0.00 0.01 0.00 0.00 0.00 0.00 0.00 0.00 0.00 0.01 0.05 0.12 0.05 0.00 0.00 0.00 0.00 0.00 0.00 0.00 0.01 0.01 0.00 0.00 0.00 0.00 0.00 0.00 0.00 0.00 0.00 0.00 0.00 0.02 0.02 0.03 0.04
0.00 0.00 0.00 0.02 0.03 0.01 0.00 0.01 0.01 0.01 0.01 0.00 0.00 0.00 0.00 0.00 0.02 0.06 0.02 0.00 0.00 0.00 0.00 0.00 0.00 0.00 0.01 0.02 0.02 0.02 0.01 0.00 0.00 0.00 0.00 0.00 0.00 0.00 0.02 0.04 0.05 0.06 0.08
0.00 0.00 0.00 0.00 0.02 0.02 0.00 0.00 0.00 0.00 0.00 0.00 0.00 0.00 0.00 0.00 0.01 0.02 0.00 0.00 0.00 0.00 0.00 0.00 0.01 0.03 0.03 0.02 0.02 0.01 0.01 0.00 0.00 0.00 0.00 0.00 0.00 0.00 0.03 0.04 0.04 0.07 0.11
0.00 0.00 0.00 0.00 0.00 0.01 0.00 0.00 0.00 0.00 0.00 0.00 0.00 0.00 0.00 0.00 0.00 0.00 0.00 0.00 0.00 0.00 0.00 0.00 0.01 0.03 0.02 0.01 0.01 0.00 0.00 0.00 0.00 0.00 0.00 0.00 0.00 0.01 0.02 0.03 0.05 0.06 0.07
0.00 0.00 0.00 0.00 0.00 0.01 0.00 0.00 0.00 0.00 0.00 0.00 0.00 0.00 0.00 0.00 0.00 0.00 0.00 0.00 0.00 0.00 0.00 0.00 0.01 0.01 0.01 0.00 0.00 0.00 0.00 0.00 0.00 0.00 0.00 0.00 0.00 0.01 0.02 0.03 0.04 0.02 0.02
0.00 0.00 0.00 0.00 0.00 0.00 0.00 0.00 0.00 0.00 0.00 0.00 0.00 0.00 0.00 0.00 0.00 0.00 0.00 0.00 0.00 0.00 0.00 0.00 0.00 0.00 0.00 0.00 0.00 0.00 0.00 0.00 0.00 0.00 0.00 0.00 0.00 0.00 0.01 0.02 0.02 0.02 0.02
0.00 0.00 0.00 0.00 0.00 0.00 0.00 0.00 0.00 0.00 0.00 0.00 0.00 0.00 0.00 0.00 0.00 0.00 0.00 0.00 0.00 0.00 0.00 0.00 0.00 0.00 0.00 0.00 0.00 0.00 0.00 0.00 0.00 0.00 0.00 0.00 0.00 0.00 0.00 0.01 0.01 0.01 0.02
0.00 0.00 0.00 0.00 0.00 0.00 0.00 0.00 0.00 0.00 0.00 0.00 0.00 0.00 0.00 0.00 0.00 0.00 0.00 0.00 0.00 0.00 0.00 0.00 0.00 0.00 0.00 0.00 0.00 0.00 0.00 0.00 0.00 0.00 0.00 0.00 0.00 0.00 0.00 0.00 0.01 0.01 0.02
0.00 0.00 0.00 0.00 0.00 0.00 0.00 0.00 0.00 0.00 0.00 0.00 0.00 0.00 0.00 0.00 0.00 0.00 0.00 0.00 0.00 0.00 0.00 0.00 0.00 0.00 0.00 0.00 0.00 0.00 0.00 0.00 0.00 0.00 0.00 0.00 0.00 0.00 0.00 0.00 0.01 0.01 0.02
0.00 0.00 0.00 0.00 0.00 0.00 0.00 0.01 0.00 0.00 0.00 0.00 0.00 0.00 0.00 0.00 0.00 0.00 0.00 0.00 0.00 0.00 0.00 0.00 0.00 0.00 0.00 0.00 0.00 0.00 0.00 0.00 0.00 0.00 0.00 0.00 0.00 0.00 0.00 0.00 0.01 0.02 0.02
0.00 0.00 0.00 0.00 0.00 0.00 0.00 0.01 0.00 0.01 0.02 0.04 0.01 0.00 0.00 0.00 0.00 0.00 0.00 0.00 0.00 0.00 0.00 0.00 0.00 0.00 0.00 0.00 0.00 0.00 0.00 0.00 0.00 0.00 0.00 0.00 0.00 0.00 0.00 0.00 0.01 0.01 0.01
0.00 0.00 0.00 0.00 0.00 0.00 0.00 0.01 0.04 0.04 0.02 0.04 0.02 0.00 0.00 0.00 0.00 0.00 0.00 0.00 0.00 0.00 0.00 0.00 0.00 0.00 0.00 0.00 0.00 0.00 0.00 0.00 0.00 0.00 0.00 0.00 0.00 0.00 0.00 0.00 0.00 0.00 0.01
0.00 0.00 0.00 0.00 0.00 0.00 0.00 0.06 0.10 0.09 0.03 0.02 0.01 0.00 0.00 0.00 0.00 0.00 0.00 0.00 0.00 0.00 0.00 0.00 0.00 0.00 0.00 0.00 0.00 0.00 0.00 0.00 0.00 0.00 0.00 0.00 0.00 0.00 0.00 0.00 0.00 0.00 0.02
0.00 0.00 0.00 0.00 0.00 0.00 0.00 0.03 0.08 0.10 0.07 0.06 0.02 0.00 0.00 0.00 0.00 0.00 0.00 0.00 0.00 0.00 0.00 0.00 0.00 0.00 0.00 0.00 0.00 0.00 0.00 0.00 0.00 0.00 0.00 0.00 0.00 0.00 0.00 0.00 0.00 0.01 0.05
0.00 0.00 0.00 0.00 0.00 0.00 0.00 0.03 0.11 0.18 0.15 0.13 0.07 0.03 0.01 0.00 0.00 0.00 0.00 0.00 0.00 0.00 0.00 0.00 0.00 0.00 0.00 0.00 0.00 0.00 0.00 0.00 0.00 0.00 0.00 0.00 0.00 0.00 0.00 0.00 0.01 0.02 0.03
0.00 0.00 0.00 0.00 0.00 0.00 0.00 0.03 0.06 0.10 0.12 0.10 0.03 0.04 0.04 0.07 0.01 0.00 0.00 0.00 0.00 0.00 0.00 0.00 0.00 0.00 0.00 0.00 0.00 0.00 0.00 0.00 0.00 0.00 0.00 0.00 0.00 0.00 0.00 0.00 0.00 0.00 0.00
0.00 0.00 0.00 0.00 0.00 0.00 0.00 0.02 0.05 0.05 0.07 0.07 0.06 0.09 0.10 0.05 0.01 0.00 0.00 0.00 0.00 0.00 0.00 0.00 0.00 0.00 0.00 0.00 0.00 0.00 0.00 0.00 0.00 0.00 0.00 0.00 0.00 0.00 0.00 0.00 0.00 0.00 0.00
0.00 0.00 0.00 0.00 0.00 0.00 0.00 0.03 0.07 0.05 0.04 0.04 0.05 0.06 0.05 0.06 0.03 0.02 0.01 0.00 0.00 0.00 0.00 0.00 0.00 0.00 0.00 0.00 0.00 0.00 0.00 0.00 0.00 0.00 0.00 0.00 0.00 0.00 0.00 0.00 0.00 0.00 0.00
0.00 0.00 0.00 0.00 0.00 0.00 0.00 0.00 0.03 0.04 0.03 0.02 0.02 0.04 0.05 0.07 0.05 0.02 0.01 0.01 0.00 0.00 0.00 0.00 0.00 0.00 0.00 0.00 0.00 0.00 0.00 0.00 0.00 0.00 0.00 0.00 0.00 0.00 0.00 0.00 0.00 0.00 0.00

GFSSE_prec_precacc_036.txt.gz
Total_Precipitation_Accumulation
0.00 0.00 0.05 0.02 0.05 0.06 0.03 0.03 0.01 0.00 0.01 0.01 0.01 0.02 0.06 0.07 0.02 0.01 0.00 0.00 0.00 0.00 0.01 0.07 0.16 0.24 0.36 0.27 0.09 0.01 0.01 0.00 0.00 0.00 0.00 0.00 0.00 0.00 0.00 0.00 0.00 0.00 0.01
0.00 0.00 0.02 0.02 0.04 0.03 0.02 0.02 0.00 0.00 0.00 0.00 0.01 0.05 0.06 0.04 0.02 0.02 0.01 0.00 0.00 0.00 0.01 0.02 0.09 0.17 0.14 0.04 0.00 0.00 0.00 0.00 0.00 0.00 0.00 0.00 0.00 0.00 0.00 0.00 0.00 0.00 0.01
0.00 0.00 0.00 0.03 0.06 0.02 0.01 0.00 0.00 0.00 0.00 0.00 0.04 0.08 0.03 0.00 0.00 0.01 0.01 0.00 0.00 0.00 0.00 0.00 0.00 0.00 0.00 0.00 0.00 0.00 0.00 0.00 0.00 0.00 0.00 0.00 0.00 0.00 0.00 0.00 0.00 0.00 0.00
0.00 0.00 0.00 0.02 0.04 0.02 0.02 0.00 0.00 0.00 0.00 0.01 0.06 0.02 0.00 0.00 0.00 0.00 0.00 0.00 0.00 0.00 0.00 0.00 0.00 0.00 0.00 0.00 0.00 0.00 0.00 0.00 0.00 0.00 0.00 0.00 0.00 0.00 0.00 0.00 0.01 0.01 0.02
0.00 0.00 0.00 0.02 0.03 0.02 0.01 0.00 0.00 0.00 0.00 0.02 0.02 0.00 0.01 0.02 0.02 0.01 0.00 0.00 0.00 0.00 0.00 0.00 0.00 0.00 0.00 0.00 0.00 0.00 0.00 0.00 0.00 0.00 0.00 0.00 0.00 0.00 0.00 0.01 0.02 0.03 0.03
0.00 0.00 0.00 0.02 0.03 0.01 0.00 0.00 0.00 0.00 0.00 0.01 0.00 0.00 0.00 0.03 0.07 0.06 0.01 0.00 0.00 0.00 0.00 0.00 0.00 0.00 0.00 0.00 0.00 0.00 0.00 0.00 0.00 0.00 0.00 0.00 0.00 0.00 0.00 0.01 0.02 0.02 0.03
0.00 0.00 0.00 0.02 0.02 0.01 0.00 0.00 0.00 0.00 0.00 0.00 0.00 0.00 0.01 0.04 0.08 0.12 0.03 0.00 0.00 0.00 0.00 0.00 0.00 0.00 0.00 0.00 0.00 0.00 0.00 0.00 0.00 0.00 0.00 0.00 0.01 0.00 0.01 0.02 0.01 0.03 0.05
0.00 0.00 0.00 0.02 0.04 0.01 0.00 0.01 0.00 0.00 0.00 0.00 0.00 0.00 0.00 0.01 0.05 0.12 0.05 0.00 0.00 0.00 0.00 0.00 0.00 0.00 0.01 0.01 0.00 0.00 0.00 0.00 0.00 0.00 0.00 0.00 0.00 0.00 0.01 0.03 0.03 0.04 0.05
0.00 0.00 0.00 0.02 0.03 0.01 0.00 0.01 0.01 0.01 0.01 0.00 0.00 0.00 0.00 0.00 0.02 0.06 0.02 0.00 0.00 0.00 0.00 0.00 0.00 0.00 0.01 0.02 0.02 0.02 0.01 0.00 0.00 0.00 0.00 0.00 0.00 0.00 0.02 0.04 0.05 0.06 0.08
0.00 0.00 0.00 0.00 0.02 0.02 0.00 0.00 0.00 0.00 0.00 0.00 0.00 0.00 0.00 0.00 0.01 0.02 0.00 0.00 0.00 0.00 0.00 0.00 0.01 0.03 0.03 0.02 0.02 0.01 0.01 0.00 0.00 0.00 0.00 0.00 0.00 0.00 0.03 0.04 0.05 0.07 0.11
0.00 0.01 0.01 0.00 0.00 0.01 0.00 0.00 0.00 0.00 0.00 0.00 0.00 0.00 0.00 0.00 0.00 0.00 0.00 0.00 0.00 0.00 0.00 0.00 0.01 0.03 0.02 0.01 0.01 0.00 0.00 0.00 0.00 0.00 0.00 0.00 0.00 0.01 0.02 0.04 0.06 0.06 0.07
0.00 0.01 0.00 0.00 0.00 0.01 0.00 0.00 0.00 0.00 0.00 0.00 0.00 0.00 0.00 0.00 0.00 0.00 0.00 0.00 0.00 0.00 0.00 0.00 0.01 0.01 0.01 0.00 0.00 0.00 0.00 0.00 0.00 0.00 0.00 0.00 0.00 0.01 0.02 0.03 0.04 0.02 0.02
0.00 0.00 0.00 0.00 0.00 0.00 0.00 0.00 0.00 0.00 0.00 0.00 0.00 0.00 0.00 0.00 0.00 0.00 0.00 0.00 0.00 0.00 0.00 0.00 0.00 0.00 0.00 0.00 0.00 0.00 0.00 0.00 0.00 0.00 0.00 0.00 0.00 0.00 0.01 0.02 0.02 0.02 0.02
0.00 0.00 0.00 0.00 0.00 0.00 0.00 0.00 0.00 0.00 0.00 0.00 0.00 0.00 0.00 0.00 0.00 0.00 0.00 0.00 0.00 0.00 0.00 0.00 0.00 0.00 0.00 0.00 0.00 0.00 0.00 0.00 0.00 0.00 0.00 0.00 0.00 0.00 0.00 0.01 0.01 0.01 0.02
0.00 0.00 0.00 0.00 0.00 0.00 0.00 0.00 0.00 0.00 0.00 0.00 0.00 0.00 0.00 0.00 0.00 0.00 0.00 0.00 0.00 0.00 0.00 0.00 0.00 0.00 0.00 0.00 0.00 0.00 0.00 0.00 0.00 0.00 0.00 0.00 0.00 0.00 0.00 0.00 0.01 0.01 0.02
0.00 0.00 0.00 0.00 0.00 0.00 0.00 0.00 0.00 0.00 0.00 0.00 0.00 0.00 0.00 0.00 0.00 0.00 0.00 0.00 0.00 0.00 0.00 0.00 0.00 0.00 0.00 0.00 0.00 0.00 0.00 0.00 0.00 0.00 0.00 0.00 0.00 0.00 0.00 0.00 0.01 0.01 0.02
0.00 0.00 0.00 0.00 0.00 0.00 0.00 0.01 0.00 0.00 0.00 0.00 0.00 0.00 0.00 0.00 0.00 0.00 0.00 0.00 0.00 0.00 0.00 0.00 0.00 0.00 0.00 0.00 0.00 0.00 0.00 0.00 0.00 0.00 0.00 0.00 0.00 0.00 0.00 0.00 0.01 0.02 0.02
0.00 0.00 0.00 0.00 0.00 0.00 0.00 0.02 0.01 0.01 0.02 0.04 0.01 0.00 0.00 0.00 0.00 0.00 0.00 0.00 0.00 0.00 0.00 0.00 0.00 0.00 0.00 0.00 0.00 0.00 0.00 0.00 0.00 0.00 0.00 0.00 0.00 0.00 0.00 0.00 0.01 0.01 0.01
0.00 0.00 0.00 0.00 0.00 0.00 0.00 0.02 0.06 0.05 0.02 0.04 0.02 0.00 0.00 0.00 0.00 0.00 0.00 0.00 0.00 0.00 0.00 0.00 0.00 0.00 0.00 0.00 0.00 0.00 0.00 0.00 0.00 0.00 0.00 0.00 0.00 0.00 0.00 0.00 0.00 0.00 0.01
0.00 0.00 0.00 0.00 0.00 0.03 0.04 0.09 0.15 0.14 0.04 0.04 0.01 0.00 0.00 0.00 0.00 0.00 0.00 0.00 0.00 0.00 0.00 0.00 0.00 0.00 0.00 0.00 0.00 0.00 0.00 0.00 0.00 0.00 0.00 0.00 0.00 0.00 0.00 0.00 0.00 0.00 0.02
0.00 0.00 0.00 0.00 0.00 0.02 0.02 0.05 0.12 0.16 0.08 0.08 0.03 0.00 0.00 0.01 0.02 0.01 0.00 0.00 0.00 0.00 0.00 0.00 0.00 0.00 0.00 0.00 0.00 0.00 0.00 0.00 0.00 0.00 0.00 0.00 0.00 0.00 0.00 0.00 0.00 0.01 0.05
0.00 0.00 0.00 0.00 0.00 0.00 0.02 0.04 0.14 0.23 0.20 0.20 0.10 0.03 0.02 0.04 0.05 0.03 0.00 0.00 0.00 0.00 0.00 0.00 0.00 0.00 0.00 0.00 0.00 0.00 0.00 0.00 0.00 0.00 0.00 0.00 0.00 0.00 0.00 0.00 0.01 0.02 0.03
0.00 0.00 0.00 0.00 0.00 0.01 0.02 0.07 0.14 0.16 0.17 0.16 0.08 0.05 0.07 0.14 0.09 0.06 0.01 0.00 0.00 0.00 0.00 0.00 0.00 0.00 0.00 0.00 0.00 0.00 0.00 0.00 0.00 0.00 0.00 0.00 0.00 0.00 0.00 0.00 0.00 0.00 0.00
0.00 0.00 0.00 0.00 0.00 0.00 0.00 0.04 0.07 0.07 0.08 0.08 0.08 0.16 0.19 0.15 0.10 0.04 0.01 0.02 0.01 0.00 0.00 0.00 0.00 0.00 0.00 0.00 0.00 0.00 0.00 0.00 0.00 0.00 0.00 0.00 0.00 0.00 0.00 0.00 0.00 0.00 0.00
0.00 0.00 0.00 0.00 0.00 0.00 0.00 0.03 0.08 0.05 0.05 0.05 0.07 0.10 0.12 0.14 0.09 0.07 0.04 0.02 0.01 0.00 0.00 0.00 0.00 0.00 0.00 0.00 0.00 0.00 0.00 0.00 0.00 0.00 0.00 0.00 0.00 0.00 0.00 0.00 0.00 0.00 0.00
0.00 0.00 0.00 0.00 0.00 0.00 0.00 0.00 0.03 0.04 0.03 0.02 0.03 0.06 0.08 0.12 0.09 0.06 0.05 0.04 0.02 0.00 0.00 0.00 0.00 0.00 0.00 0.00 0.00 0.00 0.00 0.00 0.00 0.00 0.00 0.00 0.00 0.00 0.00 0.00 0.00 0.00 0.00

GFSSE_prec_precacc_039.txt.gz
Total_Precipitation_Accumulation
0.00 0.01 0.05 0.03 0.06 0.06 0.03 0.03 0.01 0.01 0.01 0.01 0.01 0.03 0.06 0.07 0.02 0.01 0.00 0.00 0.00 0.00 0.01 0.07 0.19 0.29 0.37 0.27 0.09 0.01 0.01 0.00 0.00 0.00 0.00 0.00 0.00 0.00 0.00 0.00 0.00 0.00 0.01
0.00 0.00 0.02 0.03 0.05 0.03 0.03 0.03 0.01 0.01 0.01 0.01 0.02 0.05 0.06 0.04 0.02 0.02 0.01 0.01 0.00 0.01 0.02 0.04 0.14 0.19 0.14 0.04 0.00 0.00 0.00 0.00 0.00 0.00 0.00 0.00 0.00 0.00 0.00 0.00 0.00 0.00 0.01
0.00 0.00 0.00 0.03 0.07 0.03 0.01 0.01 0.00 0.00 0.00 0.00 0.04 0.09 0.03 0.00 0.00 0.01 0.01 0.01 0.00 0.01 0.04 0.04 0.03 0.00 0.00 0.00 0.00 0.00 0.00 0.00 0.00 0.00 0.00 0.00 0.00 0.00 0.00 0.00 0.00 0.01 0.00
0.00 0.00 0.00 0.03 0.04 0.02 0.02 0.00 0.00 0.00 0.00 0.02 0.06 0.02 0.00 0.00 0.00 0.00 0.00 0.00 0.00 0.00 0.00 0.00 0.00 0.00 0.00 0.00 0.00 0.00 0.00 0.00 0.00 0.00 0.00 0.00 0.00 0.00 0.00 0.00 0.01 0.01 0.02
0.00 0.00 0.00 0.02 0.03 0.02 0.01 0.00 0.00 0.00 0.00 0.02 0.02 0.00 0.01 0.02 0.02 0.01 0.00 0.00 0.00 0.00 0.00 0.00 0.00 0.00 0.00 0.00 0.00 0.00 0.00 0.00 0.00 0.00 0.00 0.00 0.00 0.00 0.00 0.01 0.02 0.03 0.03
0.00 0.00 0.00 0.03 0.03 0.01 0.00 0.00 0.00 0.00 0.01 0.01 0.00 0.00 0.00 0.03 0.07 0.06 0.01 0.00 0.00 0.00 0.00 0.00 0.00 0.00 0.00 0.00 0.00 0.00 0.00 0.00 0.00 0.00 0.00 0.00 0.00 0.01 0.02 0.02 0.03 0.04 0.04
0.00 0.00 0.00 0.02 0.02 0.01 0.00 0.00 0.00 0.01 0.00 0.00 0.00 0.00 0.01 0.04 0.08 0.12 0.03 0.00 0.00 0.00 0.00 0.00 0.00 0.00 0.00 0.00 0.00 0.00 0.00 0.00 0.00 0.00 0.00 0.00 0.01 0.00 0.01 0.02 0.02 0.04 0.05
0.00 0.00 0.00 0.02 0.04 0.01 0.00 0.01 0.00 0.01 0.00 0.00 0.00 0.00 0.00 0.01 0.05 0.12 0.05 0.00 0.00 0.00 0.00 0.00 0.00 0.00 0.01 0.01 0.00 0.00 0.00 0.00 0.00 0.00 0.00 0.00 0.00 0.00 0.01 0.03 0.03 0.05 0.05
0.00 0.00 0.00 0.02 0.03 0.01 0.00 0.01 0.01 0.01 0.01 0.00 0.00 0.00 0.00 0.00 0.02 0.06 0.02 0.00 0.00 0.00 0.00 0.00 0.00 0.00 0.01 0.02 0.02 0.02 0.01 0.00 0.00 0.00 0.00 0.00 0.00 0.00 0.02 0.04 0.05 0.06 0.08
0.00 0.01 0.00 0.00 0.02 0.02 0.00 0.00 0.00 0.01 0.00 0.00 0.00 0.00 0.00 0.00 0.01 0.02 0.00 0.00 0.00 0.00 0.00 0.00 0.01 0.03 0.03 0.02 0.02 0.01 0.01 0.00 0.00 0.00 0.00 0.00 0.00 0.00 0.03 0.04 0.05 0.07 0.11
0.02 0.04 0.03 0.02 0.01 0.01 0.00 0.00 0.00 0.00 0.00 0.00 0.00 0.00 0.00 0.00 0.00 0.00 0.00 0.00 0.00 0.00 0.00 0.00 0.01 0.03 0.02 0.01 0.01 0.00 0.00 0.00 0.00 0.00 0.00 0.00 0.00 0.01 0.03 0.04 0.06 0.06 0.07
0.02 0.04 0.02 0.01 0.00 0.01 0.00 0.00 0.00 0.00 0.00 0.00 0.00 0.00 0.00 0.00 0.00 0.00 0.00 0.00 0.00 0.00 0.00 0.00 0.01 0.01 0.01 0.00 0.00 0.00 0.00 0.00 0.00 0.00 0.00 0.00 0.00 0.01 0.02 0.03 0.04 0.02 0.02
0.01 0.00 0.00 0.00 0.00 0.00 0.00 0.00 0.00 0.00 0.00 0.00 0.00 0.00 0.00 0.00 0.00 0.00 0.00 0.00 0.00 0.00 0.00 0.00 0.00 0.00 0.00 0.00 0.00 0.00 0.00 0.00 0.00 0.00 0.00 0.00 0.00 0.00 0.01 0.02 0.02 0.02 0.02
0.00 0.00 0.00 0.00 0.00 0.00 0.00 0.00 0.00 0.00 0.00 0.00 0.00 0.00 0.00 0.00 0.00 0.00 0.00 0.00 0.00 0.00 0.00 0.00 0.00 0.00 0.00 0.00 0.00 0.00 0.00 0.00 0.00 0.00 0.00 0.00 0.00 0.00 0.00 0.01 0.01 0.01 0.02
0.00 0.00 0.00 0.00 0.00 0.00 0.00 0.00 0.00 0.00 0.00 0.00 0.00 0.00 0.00 0.00 0.00 0.00 0.00 0.00 0.00 0.00 0.00 0.00 0.00 0.00 0.00 0.00 0.00 0.00 0.00 0.00 0.00 0.00 0.00 0.00 0.00 0.00 0.00 0.00 0.01 0.01 0.02
0.00 0.00 0.00 0.00 0.00 0.00 0.00 0.00 0.00 0.00 0.00 0.00 0.00 0.00 0.00 0.00 0.00 0.00 0.00 0.00 0.00 0.00 0.00 0.00 0.00 0.00 0.00 0.00 0.00 0.00 0.00 0.00 0.00 0.00 0.00 0.00 0.00 0.00 0.00 0.00 0.01 0.01 0.02
0.00 0.00 0.00 0.00 0.00 0.00 0.00 0.01 0.01 0.02 0.00 0.00 0.00 0.00 0.00 0.00 0.00 0.00 0.00 0.00 0.00 0.00 0.00 0.00 0.00 0.00 0.00 0.00 0.00 0.00 0.00 0.00 0.00 0.00 0.00 0.00 0.00 0.00 0.00 0.00 0.01 0.02 0.02
0.00 0.00 0.00 0.01 0.02 0.00 0.00 0.03 0.04 0.05 0.02 0.04 0.01 0.00 0.00 0.00 0.00 0.00 0.00 0.00 0.00 0.00 0.00 0.00 0.00 0.00 0.00 0.00 0.00 0.00 0.00 0.00 0.00 0.00 0.00 0.00 0.00 0.00 0.00 0.00 0.01 0.01 0.01
0.00 0.00 0.00 0.00 0.01 0.01 0.01 0.05 0.10 0.10 0.03 0.06 0.02 0.00 0.00 0.00 0.00 0.00 0.00 0.00 0.00 0.00 0.00 0.00 0.00 0.00 0.00 0.00 0.00 0.00 0.00 0.00 0.00 0.00 0.00 0.00 0.00 0.00 0.00 0.00 0.00 0.00 0.01
0.00 0.00 0.00 0.00 0.00 0.03 0.08 0.14 0.18 0.16 0.06 0.06 0.01 0.00 0.00 0.00 0.00 0.00 0.00 0.00 0.00 0.00 0.00 0.00 0.00 0.00 0.00 0.00 0.00 0.00 0.00 0.00 0.00 0.00 0.00 0.00 0.00 0.00 0.00 0.00 0.00 0.00 0.02
0.00 0.00 0.00 0.00 0.00 0.02 0.03 0.06 0.13 0.17 0.10 0.11 0.04 0.00 0.01 0.04 0.07 0.04 0.00 0.00 0.00 0.00 0.00 0.00 0.00 0.00 0.00 0.00 0.00 0.00 0.00 0.00 0.00 0.00 0.00 0.00 0.00 0.00 0.00 0.00 0.00 0.01 0.05
0.00 0.00 0.00 0.00 0.00 0.00 0.02 0.04 0.14 0.25 0.21 0.22 0.13 0.04 0.03 0.07 0.14 0.08 0.01 0.00 0.00 0.00 0.00 0.00 0.00 0.00 0.00 0.00 0.00 0.00 0.00 0.00 0.00 0.00 0.00 0.00 0.00 0.00 0.00 0.00 0.01 0.02 0.03
0.00 0.00 0.00 0.00 0.00 0.01 0.02 0.07 0.15 0.17 0.20 0.19 0.09 0.05 0.07 0.21 0.19 0.16 0.05 0.00 0.00 0.00 0.00 0.00 0.00 0.00 0.00 0.00 0.00 0.00 0.00 0.00 0.00 0.00 0.00 0.00 0.00 0.00 0.00 0.00 0.00 0.00 0.00
0.00 0.00 0.00 0.00 0.00 0.00 0.00 0.04 0.07 0.07 0.08 0.08 0.08 0.18 0.22 0.21 0.19 0.15 0.09 0.05 0.04 0.01 0.01 0.01 0.00 0.00 0.00 0.00 0.00 0.00 0.00 0.00 0.00 0.00 0.00 0.00 0.00 0.00 0.00 0.00 0.00 0.00 0.00
0.00 0.00 0.00 0.00 0.00 0.00 0.00 0.03 0.09 0.06 0.05 0.05 0.07 0.11 0.14 0.17 0.14 0.13 0.11 0.07 0.06 0.07 0.05 0.02 0.00 0.00 0.00 0.00 0.00 0.00 0.00 0.00 0.00 0.00 0.00 0.00 0.00 0.00 0.00 0.00 0.00 0.00 0.00
0.00 0.00 0.00 0.00 0.00 0.00 0.00 0.00 0.03 0.05 0.03 0.02 0.03 0.08 0.10 0.14 0.12 0.09 0.09 0.09 0.07 0.05 0.04 0.02 0.01 0.00 0.00 0.00 0.00 0.00 0.00 0.00 0.00 0.00 0.00 0.00 0.00 0.00 0.00 0.00 0.00 0.00 0.00

GFSSE_prec_precacc_042.txt.gz
Total_Precipitation_Accumulation
0.00 0.01 0.06 0.04 0.06 0.07 0.04 0.05 0.03 0.01 0.02 0.01 0.01 0.03 0.06 0.07 0.02 0.01 0.00 0.00 0.00 0.00 0.01 0.07 0.23 0.31 0.37 0.27 0.09 0.01 0.01 0.00 0.00 0.00 0.00 0.00 0.00 0.00 0.00 0.00 0.00 0.00 0.01
0.00 0.01 0.03 0.03 0.06 0.05 0.03 0.04 0.02 0.02 0.01 0.01 0.02 0.05 0.06 0.04 0.02 0.02 0.01 0.01 0.01 0.01 0.03 0.08 0.23 0.21 0.14 0.04 0.00 0.00 0.00 0.00 0.00 0.00 0.00 0.00 0.00 0.00 0.00 0.00 0.00 0.00 0.01
0.00 0.00 0.01 0.03 0.07 0.04 0.02 0.02 0.01 0.01 0.00 0.00 0.04 0.09 0.03 0.00 0.00 0.01 0.01 0.01 0.03 0.05 0.09 0.13 0.07 0.00 0.00 0.00 0.00 0.00 0.00 0.00 0.00 0.00 0.00 0.00 0.00 0.00 0.00 0.00 0.00 0.01 0.00
0.00 0.00 0.00 0.03 0.05 0.03 0.03 0.01 0.00 0.01 0.01 0.02 0.06 0.02 0.00 0.00 0.00 0.00 0.00 0.00 0.01 0.01 0.01 0.00 0.00 0.00 0.00 0.00 0.00 0.00 0.00 0.00 0.00 0.00 0.00 0.00 0.00 0.00 0.00 0.00 0.01 0.01 0.02
0.00 0.00 0.00 0.03 0.04 0.03 0.01 0.00 0.00 0.00 0.01 0.02 0.02 0.00 0.01 0.02 0.02 0.01 0.00 0.00 0.00 0.00 0.00 0.00 0.00 0.00 0.00 0.00 0.00 0.00 0.00 0.00 0.00 0.00 0.00 0.00 0.00 0.00 0.00 0.01 0.02 0.03 0.03
0.00 0.00 0.00 0.03 0.03 0.01 0.00 0.00 0.00 0.00 0.01 0.01 0.00 0.00 0.00 0.03 0.07 0.06 0.01 0.00 0.00 0.00 0.00 0.00 0.00 0.00 0.00 0.00 0.00 0.00 0.00 0.00 0.00 0.00 0.00 0.00 0.00 0.02 0.04 0.02 0.05 0.06 0.07
0.00 0.00 0.00 0.02 0.02 0.01 0.00 0.00 0.00 0.01 0.01 0.00 0.00 0.00 0.01 0.04 0.08 0.12 0.03 0.00 0.00 0.00 0.00 0.00 0.00 0.00 0.00 0.00 0.00 0.00 0.00 0.00 0.00 0.00 0.00 0.00 0.01 0.01 0.02 0.03 0.02 0.05 0.06
0.00 0.00 0.00 0.02 0.04 0.01 0.00 0.01 0.00 0.01 0.01 0.00 0.00 0.00 0.00 0.01 0.05 0.12 0.05 0.00 0.00 0.00 0.00 0.00 0.00 0.00 0.01 0.01 0.00 0.00 0.00 0.00 0.00 0.00 0.00 0.00 0.01 0.00 0.01 0.04 0.04 0.05 0.06
0.00 0.00 0.00 0.02 0.03 0.01 0.00 0.01 0.01 0.01 0.01 0.00 0.00 0.00 0.00 0.00 0.02 0.06 0.02 0.00 0.00 0.00 0.00 0.00 0.00 0.00 0.01 0.02 0.02 0.02 0.01 0.00 0.00 0.00 0.00 0.00 0.01 0.00 0.02 0.04 0.05 0.06 0.08
0.00 0.01 0.00 0.00 0.02 0.02 0.00 0.00 0.00 0.01 0.00 0.00 0.00 0.00 0.00 0.00 0.01 0.02 0.00 0.00 0.00 0.00 0.00 0.00 0.01 0.03 0.03 0.02 0.02 0.01 0.01 0.00 0.00 0.00 0.00 0.00 0.00 0.00 0.03 0.05 0.05 0.07 0.11
0.02 0.04 0.03 0.02 0.01 0.01 0.00 0.00 0.00 0.01 0.00 0.00 0.00 0.00 0.00 0.00 0.00 0.00 0.00 0.00 0.00 0.00 0.00 0.00 0.01 0.03 0.02 0.01 0.01 0.00 0.00 0.00 0.00 0.00 0.00 0.00 0.00 0.01 0.03 0.04 0.06 0.06 0.07
0.02 0.04 0.02 0.01 0.00 0.01 0.00 0.00 0.00 0.00 0.00 0.00 0.00 0.00 0.00 0.00 0.00 0.00 0.00 0.00 0.00 0.00 0.00 0.00 0.01 0.01 0.01 0.00 0.00 0.00 0.00 0.00 0.00 0.00 0.00 0.00 0.00 0.01 0.02 0.03 0.04 0.02 0.02
0.01 0.00 0.00 0.00 0.00 0.00 0.00 0.00 0.00 0.00 0.00 0.00 0.00 0.00 0.00 0.00 0.00 0.00 0.00 0.00 0.00 0.00 0.00 0.00 0.00 0.00 0.00 0.00 0.00 0.00 0.00 0.00 0.00 0.00 0.00 0.00 0.00 0.00 0.01 0.02 0.02 0.02 0.02
0.00 0.00 0.00 0.00 0.00 0.00 0.00 0.00 0.00 0.00 0.00 0.00 0.00 0.00 0.00 0.00 0.00 0.00 0.00 0.00 0.00 0.00 0.00 0.00 0.00 0.00 0.00 0.00 0.00 0.00 0.00 0.00 0.00 0.00 0.00 0.00 0.00 0.00 0.00 0.01 0.01 0.01 0.02
0.00 0.00 0.00 0.00 0.00 0.00 0.00 0.00 0.00 0.00 0.00 0.00 0.00 0.00 0.00 0.00 0.00 0.00 0.00 0.00 0.00 0.00 0.00 0.00 0.00 0.00 0.00 0.00 0.00 0.00 0.00 0.00 0.00 0.00 0.00 0.00 0.00 0.00 0.00 0.00 0.01 0.01 0.02
0.00 0.00 0.01 0.00 0.00 0.00 0.00 0.00 0.00 0.00 0.00 0.00 0.00 0.00 0.00 0.00 0.00 0.00 0.00 0.00 0.00 0.00 0.00 0.00 0.00 0.00 0.00 0.00 0.00 0.00 0.00 0.00 0.00 0.00 0.00 0.00 0.00 0.00 0.00 0.00 0.01 0.01 0.02
0.00 0.00 0.01 0.01 0.00 0.00 0.00 0.01 0.02 0.03 0.00 0.00 0.00 0.00 0.00 0.00 0.00 0.00 0.00 0.00 0.00 0.00 0.00 0.00 0.00 0.00 0.00 0.00 0.00 0.00 0.00 0.00 0.00 0.00 0.00 0.00 0.00 0.00 0.00 0.00 0.01 0.02 0.02
0.00 0.00 0.00 0.02 0.02 0.00 0.00 0.03 0.07 0.09 0.05 0.05 0.03 0.00 0.00 0.00 0.00 0.00 0.00 0.00 0.00 0.00 0.00 0.00 0.00 0.00 0.00 0.00 0.00 0.00 0.00 0.00 0.00 0.00 0.00 0.00 0.00 0.00 0.00 0.00 0.01 0.01 0.01
0.00 0.00 0.00 0.00 0.01 0.01 0.01 0.07 0.16 0.16 0.05 0.07 0.04 0.00 0.00 0.00 0.00 0.00 0.00 0.00 0.00 0.00 0.00 0.00 0.00 0.00 0.00 0.00 0.00 0.00 0.00 0.00 0.00 0.00 0.00 0.00 0.00 0.00 0.00 0.00 0.00 0.00 0.01
0.00 0.00 0.00 0.00 0.00 0.03 0.08 0.17 0.21 0.17 0.07 0.07 0.02 0.00 0.01 0.00 0.00 0.00 0.00 0.00 0.00 0.00 0.00 0.00 0.00 0.00 0.00 0.00 0.00 0.00 0.00 0.00 0.00 0.00 0.00 0.00 0.00 0.00 0.00 0.00 0.00 0.00 0.02
0.00 0.00 0.00 0.00 0.00 0.02 0.03 0.06 0.14 0.17 0.12 0.12 0.07 0.05 0.03 0.05 0.09 0.05 0.00 0.00 0.00 0.00 0.00 0.00 0.00 0.00 0.00 0.00 0.00 0.00 0.00 0.00 0.00 0.00 0.00 0.00 0.00 0.00 0.00 0.00 0.00 0.01 0.05
0.00 0.00 0.00 0.00 0.00 0.00 0.02 0.04 0.14 0.25 0.22 0.24 0.18 0.07 0.04 0.09 0.19 0.11 0.03 0.02 0.00 0.00 0.00 0.00 0.00 0.00 0.00 0.00 0.00 0.00 0.00 0.00 0.00 0.00 0.00 0.00 0.00 0.00 0.00 0.00 0.01 0.02 0.03
0.00 0.00 0.00 0.00 0.00 0.01 0.02 0.07 0.15 0.17 0.20 0.20 0.10 0.05 0.07 0.25 0.28 0.25 0.11 0.04 0.02 0.01 0.01 0.00 0.00 0.00 0.00 0.00 0.00 0.00 0.00 0.00 0.00 0.00 0.00 0.00 0.00 0.00 0.00 0.00 0.00 0.00 0.00
0.00 0.00 0.00 0.00 0.00 0.00 0.00 0.04 0.08 0.07 0.08 0.08 0.08 0.18 0.23 0.25 0.27 0.24 0.16 0.10 0.07 0.04 0.03 0.04 0.05 0.04 0.01 0.00 0.00 0.00 0.00 0.00 0.00 0.00 0.00 0.00 0.00 0.00 0.00 0.00 0.00 0.00 0.00
0.00 0.00 0.00 0.00 0.00 0.00 0.00 0.03 0.09 0.07 0.05 0.05 0.08 0.11 0.14 0.20 0.19 0.20 0.18 0.13 0.09 0.09 0.10 0.08 0.04 0.02 0.01 0.00 0.00 0.00 0.00 0.00 0.00 0.00 0.00 0.00 0.00 0.00 0.00 0.00 0.00 0.00 0.00
0.00 0.00 0.00 0.00 0.00 0.00 0.00 0.00 0.03 0.05 0.04 0.03 0.05 0.11 0.11 0.15 0.14 0.12 0.12 0.11 0.11 0.07 0.07 0.08 0.05 0.02 0.01 0.01 0.00 0.00 0.00 0.00 0.00 0.00 0.00 0.00 0.00 0.00 0.00 0.00 0.00 0.00 0.00

GFSSE_prec_precacc_045.txt.gz
Total_Precipitation_Accumulation
0.00 0.02 0.08 0.05 0.06 0.08 0.04 0.05 0.04 0.02 0.03 0.02 0.02 0.03 0.06 0.07 0.02 0.01 0.00 0.00 0.00 0.00 0.01 0.12 0.26 0.31 0.37 0.27 0.09 0.01 0.01 0.00 0.00 0.00 0.00 0.00 0.00 0.00 0.00 0.00 0.00 0.00 0.01
0.00 0.01 0.04 0.04 0.06 0.05 0.04 0.06 0.03 0.02 0.01 0.01 0.02 0.05 0.06 0.04 0.02 0.02 0.01 0.01 0.01 0.01 0.03 0.18 0.28 0.23 0.14 0.04 0.00 0.00 0.00 0.00 0.00 0.00 0.00 0.00 0.00 0.00 0.00 0.00 0.00 0.00 0.01
0.00 0.00 0.01 0.03 0.08 0.04 0.03 0.03 0.02 0.01 0.00 0.01 0.05 0.09 0.03 0.00 0.00 0.01 0.01 0.02 0.04 0.07 0.16 0.23 0.09 0.01 0.00 0.00 0.00 0.00 0.00 0.00 0.00 0.00 0.00 0.00 0.00 0.00 0.00 0.00 0.00 0.01 0.00
0.00 0.00 0.00 0.03 0.05 0.03 0.04 0.03 0.01 0.01 0.01 0.02 0.07 0.02 0.00 0.00 0.00 0.00 0.00 0.01 0.03 0.05 0.05 0.01 0.00 0.00 0.00 0.00 0.00 0.00 0.00 0.00 0.00 0.00 0.00 0.00 0.00 0.00 0.00 0.00 0.01 0.01 0.02
0.00 0.00 0.00 0.03 0.04 0.04 0.02 0.02 0.01 0.01 0.01 0.02 0.02 0.00 0.01 0.02 0.02 0.01 0.00 0.00 0.00 0.00 0.00 0.00 0.00 0.00 0.00 0.00 0.00 0.00 0.00 0.00 0.00 0.00 0.00 0.00 0.00 0.01 0.02 0.03 0.03 0.03 0.04
0.00 0.00 0.00 0.03 0.04 0.02 0.01 0.01 0.00 0.01 0.02 0.01 0.01 0.00 0.00 0.03 0.07 0.06 0.01 0.00 0.00 0.00 0.00 0.00 0.00 0.00 0.00 0.00 0.00 0.00 0.00 0.00 0.00 0.00 0.00 0.00 0.00 0.05 0.07 0.04 0.07 0.09 0.12
0.00 0.00 0.00 0.03 0.03 0.01 0.01 0.01 0.00 0.01 0.01 0.00 0.00 0.00 0.01 0.04 0.08 0.12 0.03 0.00 0.00 0.00 0.00 0.00 0.00 0.00 0.00 0.00 0.00 0.00 0.00 0.00 0.00 0.00 0.00 0.00 0.02 0.02 0.03 0.04 0.03 0.06 0.07
0.00 0.00 0.00 0.03 0.04 0.01 0.00 0.01 0.00 0.01 0.01 0.00 0.00 0.00 0.00 0.01 0.05 0.12 0.05 0.00 0.00 0.00 0.00 0.00 0.00 0.00 0.01 0.01 0.00 0.00 0.00 0.00 0.00 0.00 0.00 0.00 0.02 0.00 0.02 0.04 0.04 0.05 0.06
0.00 0.00 0.00 0.02 0.03 0.01 0.00 0.01 0.01 0.02 0.02 0.00 0.00 0.00 0.00 0.00 0.02 0.06 0.02 0.00 0.00 0.00 0.00 0.00 0.00 0.00 0.01 0.02 0.02 0.02 0.01 0.00 0.00 0.00 0.00 0.00 0.02 0.00 0.02 0.04 0.05 0.06 0.08
0.00 0.01 0.00 0.00 0.02 0.02 0.00 0.00 0.00 0.02 0.00 0.00 0.00 0.00 0.00 0.00 0.01 0.02 0.00 0.00 0.00 0.00 0.00 0.00 0.01 0.03 0.03 0.02 0.02 0.01 0.01 0.00 0.00 0.00 0.00 0.00 0.00 0.01 0.03 0.05 0.05 0.07 0.11
0.02 0.04 0.03 0.02 0.01 0.01 0.00 0.00 0.00 0.01 0.00 0.00 0.00 0.00 0.00 0.00 0.00 0.00 0.00 0.00 0.00 0.01 0.00 0.01 0.01 0.03 0.02 0.01 0.01 0.00 0.00 0.00 0.00 0.00 0.00 0.00 0.00 0.02 0.03 0.04 0.06 0.06 0.07
0.03 0.04 0.02 0.01 0.00 0.01 0.00 0.00 0.00 0.00 0.00 0.00 0.00 0.00 0.00 0.00 0.00 0.00 0.00 0.00 0.00 0.01 0.01 0.01 0.01 0.01 0.01 0.00 0.00 0.00 0.00 0.00 0.00 0.00 0.00 0.00 0.00 0.02 0.02 0.03 0.04 0.02 0.02
0.01 0.00 0.00 0.00 0.00 0.00 0.00 0.00 0.00 0.00 0.00 0.00 0.00 0.00 0.00 0.00 0.00 0.00 0.00 0.00 0.00 0.00 0.00 0.00 0.00 0.00 0.00 0.00 0.00 0.00 0.00 0.00 0.00 0.00 0.00 0.00 0.00 0.01 0.01 0.02 0.02 0.02 0.02
0.01 0.00 0.00 0.00 0.00 0.00 0.01 0.00 0.00 0.00 0.00 0.00 0.00 0.00 0.00 0.00 0.00 0.00 0.00 0.00 0.00 0.00 0.00 0.00 0.00 0.00 0.00 0.00 0.00 0.00 0.00 0.00 0.00 0.00 0.00 0.00 0.00 0.00 0.00 0.01 0.01 0.01 0.02
0.00 0.00 0.00 0.01 0.01 0.02 0.02 0.01 0.00 0.00 0.00 0.00 0.00 0.00 0.00 0.00 0.00 0.00 0.00 0.00 0.00 0.00 0.00 0.00 0.00 0.00 0.00 0.00 0.00 0.00 0.00 0.00 0.00 0.00 0.00 0.00 0.00 0.00 0.00 0.00 0.01 0.01 0.02
0.00 0.00 0.01 0.00 0.00 0.00 0.02 0.02 0.01 0.00 0.00 0.00 0.00 0.00 0.00 0.00 0.00 0.00 0.00 0.00 0.00 0.00 0.00 0.00 0.00 0.00 0.00 0.00 0.00 0.00 0.00 0.00 0.00 0.00 0.00 0.00 0.00 0.00 0.00 0.00 0.01 0.01 0.02
0.00 0.00 0.01 0.01 0.00 0.00 0.00 0.02 0.03 0.04 0.00 0.00 0.00 0.00 0.00 0.00 0.00 0.00 0.00 0.00 0.00 0.00 0.00 0.00 0.00 0.00 0.00 0.00 0.00 0.00 0.00 0.00 0.00 0.00 0.00 0.00 0.00 0.00 0.00 0.00 0.01 0.02 0.02
0.00 0.00 0.00 0.02 0.02 0.00 0.01 0.06 0.09 0.13 0.07 0.06 0.03 0.00 0.00 0.00 0.00 0.00 0.00 0.00 0.00 0.00 0.00 0.00 0.00 0.00 0.00 0.00 0.00 0.00 0.00 0.00 0.00 0.00 0.00 0.00 0.00 0.00 0.00 0.00 0.01 0.01 0.01
0.00 0.00 0.00 0.00 0.01 0.01 0.03 0.09 0.21 0.21 0.10 0.08 0.04 0.00 0.00 0.00 0.00 0.00 0.00 0.00 0.00 0.00 0.00 0.00 0.00 0.00 0.00 0.00 0.00 0.00 0.00 0.00 0.00 0.00 0.00 0.00 0.00 0.00 0.00 0.00 0.00 0.00 0.01
0.00 0.00 0.00 0.00 0.00 0.03 0.08 0.19 0.23 0.18 0.07 0.07 0.03 0.01 0.04 0.02 0.01 0.00 0.00 0.00 0.00 0.00 0.00 0.00 0.00 0.00 0.00 0.00 0.00 0.00 0.00 0.00 0.00 0.00 0.00 0.00 0.00 0.00 0.00 0.00 0.00 0.00 0.02
0.00 0.00 0.00 0.00 0.00 0.02 0.03 0.06 0.14 0.17 0.15 0.14 0.08 0.12 0.05 0.08 0.13 0.06 0.00 0.00 0.00 0.00 0.00 0.00 0.00 0.00 0.00 0.00 0.00 0.00 0.00 0.00 0.00 0.00 0.00 0.00 0.00 0.00 0.00 0.00 0.00 0.01 0.05
0.00 0.00 0.00 0.00 0.00 0.00 0.02 0.04 0.14 0.25 0.23 0.24 0.20 0.09 0.04 0.11 0.21 0.15 0.05 0.03 0.00 0.00 0.00 0.00 0.00 0.00 0.00 0.00 0.00 0.00 0.00 0.00 0.00 0.00 0.00 0.00 0.00 0.00 0.00 0.00 0.01 0.02 0.03
0.00 0.00 0.00 0.00 0.00 0.01 0.02 0.07 0.15 0.17 0.20 0.20 0.10 0.05 0.07 0.25 0.30 0.29 0.13 0.06 0.05 0.02 0.01 0.00 0.00 0.00 0.00 0.00 0.00 0.00 0.00 0.00 0.00 0.00 0.00 0.00 0.00 0.00 0.00 0.00 0.00 0.00 0.00
0.00 0.00 0.00 0.00 0.00 0.00 0.00 0.04 0.08 0.07 0.08 0.08 0.08 0.18 0.23 0.25 0.29 0.28 0.19 0.15 0.12 0.07 0.03 0.06 0.05 0.05 0.03 0.01 0.00 0.00 0.00 0.00 0.00 0.00 0.00 0.00 0.00 0.00 0.00 0.00 0.00 0.00 0.00
0.00 0.00 0.00 0.00 0.00 0.00 0.00 0.03 0.09 0.07 0.05 0.05 0.08 0.11 0.14 0.20 0.21 0.25 0.22 0.17 0.11 0.12 0.13 0.10 0.06 0.04 0.03 0.02 0.00 0.00 0.00 0.00 0.00 0.00 0.00 0.00 0.00 0.00 0.00 0.00 0.00 0.00 0.00
0.00 0.00 0.00 0.00 0.00 0.00 0.00 0.00 0.03 0.05 0.04 0.03 0.05 0.12 0.12 0.16 0.16 0.16 0.16 0.13 0.14 0.09 0.09 0.11 0.10 0.07 0.04 0.03 0.02 0.01 0.00 0.00 0.00 0.00 0.00 0.00 0.00 0.00 0.00 0.00 0.00 0.00 0.00

GFSSE_prec_precacc_048.txt.gz
Total_Precipitation_Accumulation
0.00 0.02 0.08 0.06 0.07 0.08 0.05 0.06 0.04 0.03 0.03 0.02 0.02 0.03 0.06 0.07 0.02 0.01 0.00 0.00 0.00 0.00 0.03 0.16 0.27 0.32 0.37 0.27 0.09 0.01 0.01 0.00 0.00 0.00 0.00 0.00 0.00 0.00 0.00 0.00 0.00 0.00 0.01
0.00 0.01 0.05 0.05 0.06 0.06 0.05 0.07 0.03 0.02 0.01 0.01 0.02 0.05 0.06 0.04 0.02 0.02 0.01 0.01 0.01 0.01 0.07 0.23 0.31 0.24 0.14 0.04 0.00 0.00 0.00 0.00 0.00 0.00 0.00 0.00 0.00 0.00 0.00 0.00 0.00 0.00 0.01
0.00 0.00 0.01 0.04 0.08 0.05 0.05 0.04 0.02 0.01 0.00 0.01 0.05 0.09 0.03 0.00 0.00 0.01 0.02 0.02 0.04 0.08 0.21 0.28 0.10 0.01 0.00 0.00 0.00 0.00 0.00 0.00 0.00 0.00 0.00 0.00 0.00 0.00 0.00 0.00 0.00 0.01 0.00
0.00 0.00 0.00 0.03 0.05 0.03 0.05 0.03 0.01 0.01 0.01 0.02 0.07 0.03 0.00 0.00 0.00 0.00 0.01 0.03 0.05 0.09 0.10 0.02 0.00 0.00 0.00 0.00 0.00 0.00 0.00 0.00 0.00 0.00 0.00 0.00 0.00 0.00 0.00 0.00 0.01 0.01 0.02
0.00 0.00 0.00 0.03 0.04 0.04 0.03 0.03 0.01 0.01 0.01 0.03 0.02 0.00 0.01 0.02 0.02 0.01 0.00 0.01 0.00 0.00 0.00 0.00 0.00 0.00 0.00 0.00 0.00 0.00 0.00 0.00 0.00 0.00 0.00 0.00 0.00 0.02 0.03 0.03 0.04 0.04 0.04
0.00 0.00 0.00 0.03 0.04 0.02 0.02 0.02 0.01 0.01 0.02 0.02 0.01 0.00 0.00 0.03 0.07 0.06 0.01 0.00 0.00 0.00 0.00 0.00 0.00 0.00 0.00 0.00 0.00 0.00 0.00 0.00 0.00 0.00 0.00 0.00 0.01 0.09 0.08 0.05 0.12 0.15 0.16
0.00 0.00 0.00 0.03 0.03 0.01 0.01 0.02 0.01 0.01 0.01 0.01 0.00 0.00 0.01 0.04 0.08 0.12 0.03 0.00 0.00 0.00 0.00 0.00 0.00 0.00 0.00 0.00 0.00 0.00 0.00 0.00 0.00 0.00 0.00 0.00 0.02 0.03 0.05 0.05 0.04 0.06 0.08
0.00 0.00 0.00 0.03 0.04 0.02 0.01 0.01 0.01 0.02 0.01 0.00 0.00 0.00 0.00 0.01 0.05 0.12 0.05 0.00 0.00 0.00 0.00 0.00 0.00 0.00 0.01 0.01 0.00 0.00 0.00 0.00 0.00 0.00 0.00 0.01 0.03 0.01 0.03 0.04 0.04 0.05 0.06
0.00 0.00 0.00 0.02 0.03 0.01 0.00 0.01 0.01 0.02 0.02 0.00 0.00 0.00 0.00 0.00 0.02 0.06 0.02 0.00 0.00 0.00 0.01 0.00 0.00 0.00 0.01 0.02 0.02 0.02 0.01 0.00 0.00 0.00 0.00 0.01 0.02 0.01 0.02 0.04 0.05 0.06 0.08
0.00 0.01 0.00 0.00 0.02 0.02 0.00 0.00 0.00 0.02 0.01 0.00 0.00 0.00 0.00 0.00 0.01 0.02 0.00 0.00 0.00 0.01 0.01 0.01 0.01 0.03 0.03 0.02 0.02 0.01 0.01 0.00 0.00 0.00 0.00 0.00 0.01 0.01 0.04 0.05 0.05 0.07 0.11
0.02 0.04 0.03 0.02 0.01 0.01 0.00 0.00 0.00 0.01 0.00 0.00 0.00 0.00 0.00 0.00 0.00 0.00 0.00 0.00 0.00 0.02 0.01 0.02 0.01 0.03 0.02 0.01 0.01 0.00 0.00 0.00 0.00 0.00 0.00 0.00 0.00 0.02 0.04 0.04 0.06 0.06 0.07
0.03 0.04 0.02 0.01 0.00 0.01 0.00 0.00 0.00 0.00 0.00 0.00 0.00 0.00 0.00 0.00 0.00 0.00 0.00 0.00 0.00 0.02 0.01 0.02 0.01 0.01 0.01 0.00 0.00 0.00 0.00 0.00 0.00 0.00 0.00 0.00 0.00 0.02 0.02 0.03 0.04 0.02 0.02
0.01 0.01 0.00 0.00 0.00 0.00 0.00 0.00 0.00 0.00 0.00 0.00 0.00 0.00 0.00 0.00 0.00 0.00 0.00 0.00 0.00 0.01 0.00 0.00 0.00 0.00 0.00 0.00 0.00 0.00 0.00 0.00 0.00 0.00 0.00 0.00 0.00 0.01 0.01 0.02 0.02 0.02 0.02
0.01 0.00 0.00 0.00 0.00 0.00 0.01 0.00 0.00 0.00 0.00 0.00 0.00 0.00 0.00 0.00 0.00 0.00 0.00 0.00 0.00 0.00 0.00 0.00 0.00 0.00 0.00 0.00 0.00 0.00 0.00 0.00 0.00 0.00 0.00 0.00 0.00 0.00 0.00 0.01 0.01 0.01 0.02
0.00 0.00 0.00 0.01 0.01 0.02 0.02 0.02 0.00 0.00 0.00 0.00 0.00 0.00 0.00 0.00 0.00 0.00 0.00 0.00 0.00 0.00 0.00 0.00 0.00 0.00 0.00 0.00 0.00 0.00 0.00 0.00 0.00 0.00 0.00 0.00 0.00 0.00 0.00 0.00 0.01 0.01 0.02
0.00 0.00 0.01 0.02 0.01 0.00 0.03 0.03 0.03 0.00 0.00 0.00 0.00 0.00 0.00 0.00 0.00 0.00 0.00 0.00 0.00 0.00 0.00 0.00 0.00 0.00 0.00 0.00 0.00 0.00 0.00 0.00 0.00 0.00 0.00 0.00 0.00 0.00 0.00 0.00 0.01 0.01 0.02
0.00 0.00 0.01 0.01 0.00 0.00 0.01 0.04 0.05 0.08 0.03 0.01 0.00 0.00 0.00 0.00 0.00 0.00 0.00 0.00 0.00 0.00 0.00 0.00 0.00 0.00 0.00 0.00 0.00 0.00 0.00 0.00 0.00 0.00 0.00 0.00 0.00 0.00 0.00 0.00 0.01 0.02 0.02
0.00 0.00 0.00 0.02 0.02 0.00 0.02 0.07 0.11 0.16 0.09 0.10 0.06 0.01 0.00 0.00 0.00 0.00 0.00 0.00 0.00 0.00 0.00 0.00 0.00 0.00 0.00 0.00 0.00 0.00 0.00 0.00 0.00 0.00 0.00 0.00 0.00 0.00 0.00 0.00 0.01 0.01 0.01
0.00 0.00 0.00 0.00 0.01 0.01 0.03 0.10 0.23 0.23 0.10 0.09 0.07 0.02 0.01 0.01 0.01 0.00 0.00 0.00 0.00 0.00 0.00 0.00 0.00 0.00 0.00 0.00 0.00 0.00 0.00 0.00 0.00 0.00 0.00 0.00 0.00 0.00 0.00 0.00 0.00 0.00 0.01
0.00 0.00 0.00 0.00 0.00 0.03 0.08 0.19 0.24 0.19 0.08 0.07 0.03 0.02 0.12 0.06 0.04 0.01 0.00 0.00 0.00 0.00 0.00 0.00 0.00 0.00 0.00 0.00 0.00 0.00 0.00 0.00 0.00 0.00 0.00 0.00 0.00 0.00 0.00 0.00 0.00 0.00 0.02
0.00 0.00 0.00 0.00 0.00 0.02 0.03 0.07 0.15 0.18 0.16 0.15 0.08 0.17 0.08 0.12 0.14 0.08 0.01 0.00 0.00 0.00 0.00 0.00 0.00 0.00 0.00 0.00 0.00 0.00 0.00 0.00 0.00 0.00 0.00 0.00 0.00 0.00 0.00 0.00 0.00 0.01 0.05
0.00 0.00 0.00 0.00 0.00 0.00 0.02 0.04 0.14 0.25 0.23 0.24 0.20 0.09 0.05 0.12 0.21 0.15 0.06 0.05 0.02 0.00 0.00 0.00 0.00 0.00 0.00 0.00 0.00 0.00 0.00 0.00 0.00 0.00 0.00 0.00 0.00 0.00 0.00 0.00 0.01 0.02 0.03
0.00 0.00 0.00 0.00 0.00 0.01 0.02 0.07 0.15 0.18 0.20 0.20 0.11 0.05 0.07 0.25 0.30 0.30 0.18 0.10 0.09 0.03 0.01 0.00 0.00 0.00 0.00 0.00 0.00 0.00 0.00 0.00 0.00 0.00 0.00 0.00 0.00 0.00 0.00 0.00 0.00 0.00 0.00
0.00 0.00 0.00 0.00 0.00 0.00 0.00 0.04 0.08 0.07 0.08 0.08 0.08 0.18 0.23 0.25 0.29 0.31 0.24 0.18 0.16 0.11 0.04 0.06 0.05 0.05 0.03 0.01 0.00 0.00 0.00 0.00 0.00 0.00 0.00 0.00 0.00 0.00 0.00 0.00 0.00 0.00 0.00
0.00 0.00 0.00 0.00 0.00 0.00 0.00 0.03 0.09 0.07 0.05 0.05 0.08 0.11 0.14 0.20 0.21 0.27 0.25 0.21 0.13 0.13 0.18 0.13 0.08 0.06 0.05 0.02 0.01 0.00 0.00 0.00 0.00 0.00 0.00 0.00 0.00 0.00 0.00 0.00 0.00 0.00 0.00
0.00 0.00 0.00 0.00 0.00 0.00 0.00 0.00 0.03 0.05 0.04 0.03 0.05 0.12 0.12 0.16 0.16 0.16 0.18 0.14 0.18 0.12 0.13 0.14 0.17 0.13 0.09 0.07 0.04 0.01 0.01 0.00 0.00 0.00 0.00 0.00 0.00 0.00 0.00 0.00 0.00 0.00 0.00

GFSSE_prec_precacc_051.txt.gz
Total_Precipitation_Accumulation
0.00 0.02 0.08 0.06 0.07 0.08 0.05 0.06 0.04 0.05 0.04 0.03 0.03 0.03 0.07 0.07 0.02 0.01 0.00 0.00 0.00 0.00 0.04 0.16 0.27 0.32 0.37 0.27 0.09 0.01 0.01 0.00 0.00 0.00 0.00 0.00 0.00 0.00 0.00 0.00 0.00 0.00 0.01
0.00 0.01 0.05 0.05 0.07 0.06 0.06 0.07 0.04 0.03 0.02 0.01 0.02 0.05 0.06 0.04 0.02 0.02 0.01 0.01 0.01 0.02 0.11 0.24 0.31 0.24 0.14 0.04 0.00 0.00 0.00 0.00 0.00 0.00 0.00 0.00 0.00 0.00 0.00 0.00 0.00 0.00 0.01
0.00 0.00 0.01 0.04 0.08 0.05 0.06 0.04 0.02 0.01 0.01 0.01 0.05 0.09 0.03 0.00 0.00 0.01 0.02 0.02 0.04 0.09 0.27 0.29 0.10 0.01 0.00 0.00 0.00 0.00 0.00 0.00 0.00 0.00 0.00 0.00 0.00 0.00 0.00 0.00 0.00 0.01 0.00
0.00 0.00 0.00 0.03 0.05 0.04 0.06 0.03 0.01 0.01 0.01 0.02 0.07 0.03 0.00 0.00 0.00 0.00 0.02 0.04 0.06 0.15 0.15 0.03 0.00 0.00 0.00 0.00 0.00 0.00 0.00 0.00 0.00 0.00 0.00 0.00 0.00 0.00 0.00 0.00 0.01 0.01 0.02
0.00 0.00 0.00 0.03 0.04 0.04 0.04 0.03 0.02 0.01 0.02 0.03 0.02 0.00 0.01 0.02 0.02 0.02 0.02 0.02 0.01 0.01 0.00 0.00 0.00 0.00 0.00 0.00 0.00 0.00 0.00 0.00 0.00 0.00 0.00 0.00 0.00 0.02 0.04 0.04 0.05 0.05 0.05
0.00 0.00 0.00 0.03 0.04 0.03 0.03 0.03 0.02 0.02 0.02 0.02 0.01 0.00 0.00 0.03 0.07 0.06 0.01 0.00 0.00 0.00 0.00 0.00 0.00 0.00 0.00 0.00 0.00 0.00 0.00 0.00 0.00 0.00 0.00 0.00 0.02 0.11 0.10 0.06 0.15 0.18 0.17
0.00 0.00 0.00 0.03 0.03 0.02 0.02 0.03 0.02 0.02 0.02 0.01 0.00 0.00 0.01 0.04 0.08 0.12 0.03 0.00 0.00 0.00 0.00 0.00 0.00 0.00 0.00 0.00 0.00 0.00 0.00 0.00 0.00 0.00 0.00 0.01 0.03 0.05 0.06 0.05 0.04 0.06 0.08
0.00 0.00 0.00 0.03 0.05 0.02 0.02 0.02 0.02 0.03 0.02 0.01 0.00 0.00 0.00 0.01 0.05 0.12 0.05 0.00 0.00 0.00 0.00 0.00 0.00 0.00 0.01 0.01 0.00 0.00 0.00 0.00 0.00 0.00 0.00 0.01 0.03 0.02 0.03 0.04 0.04 0.05 0.06
0.00 0.00 0.00 0.02 0.03 0.02 0.01 0.01 0.02 0.02 0.03 0.01 0.00 0.00 0.00 0.00 0.02 0.06 0.02 0.00 0.00 0.00 0.01 0.00 0.00 0.00 0.01 0.02 0.02 0.02 0.01 0.00 0.00 0.00 0.00 0.01 0.02 0.01 0.02 0.04 0.05 0.06 0.08
0.00 0.01 0.00 0.00 0.02 0.02 0.00 0.00 0.01 0.02 0.01 0.00 0.00 0.00 0.00 0.00 0.01 0.02 0.00 0.00 0.00 0.01 0.01 0.01 0.01 0.03 0.03 0.02 0.02 0.01 0.01 0.00 0.00 0.00 0.00 0.00 0.01 0.02 0.04 0.05 0.05 0.07 0.11
0.02 0.04 0.03 0.02 0.01 0.01 0.00 0.00 0.00 0.01 0.01 0.00 0.00 0.00 0.00 0.00 0.00 0.00 0.00 0.00 0.00 0.02 0.02 0.02 0.01 0.03 0.02 0.01 0.01 0.00 0.00 0.00 0.00 0.00 0.00 0.00 0.01 0.02 0.04 0.04 0.06 0.06 0.07
0.03 0.04 0.02 0.01 0.00 0.01 0.00 0.00 0.00 0.00 0.00 0.00 0.00 0.00 0.00 0.00 0.00 0.00 0.00 0.00 0.00 0.02 0.02 0.03 0.01 0.01 0.01 0.00 0.00 0.00 0.00 0.00 0.00 0.00 0.00 0.00 0.00 0.02 0.02 0.03 0.04 0.02 0.02
0.01 0.01 0.00 0.00 0.00 0.00 0.00 0.00 0.00 0.00 0.00 0.00 0.00 0.00 0.00 0.00 0.00 0.00 0.00 0.00 0.00 0.01 0.00 0.01 0.00 0.00 0.00 0.00 0.00 0.00 0.00 0.00 0.00 0.00 0.00 0.00 0.00 0.01 0.01 0.02 0.02 0.02 0.02
0.01 0.00 0.00 0.00 0.00 0.00 0.01 0.00 0.00 0.00 0.00 0.00 0.00 0.00 0.00 0.00 0.00 0.00 0.00 0.00 0.00 0.00 0.00 0.00 0.00 0.00 0.00 0.00 0.00 0.00 0.00 0.00 0.00 0.00 0.00 0.00 0.00 0.00 0.00 0.01 0.01 0.01 0.02
0.00 0.00 0.00 0.01 0.01 0.02 0.02 0.02 0.00 0.00 0.00 0.00 0.00 0.00 0.00 0.00 0.00 0.00 0.00 0.00 0.00 0.00 0.00 0.00 0.00 0.00 0.00 0.00 0.00 0.00 0.00 0.00 0.00 0.00 0.00 0.00 0.00 0.00 0.00 0.00 0.01 0.01 0.02
0.00 0.00 0.01 0.03 0.02 0.00 0.03 0.03 0.03 0.00 0.00 0.00 0.00 0.00 0.00 0.00 0.00 0.00 0.00 0.00 0.00 0.00 0.00 0.00 0.00 0.00 0.00 0.00 0.00 0.00 0.00 0.00 0.00 0.00 0.00 0.00 0.00 0.00 0.00 0.00 0.01 0.01 0.02
0.00 0.00 0.01 0.01 0.00 0.00 0.01 0.04 0.05 0.08 0.03 0.01 0.00 0.00 0.00 0.00 0.00 0.00 0.00 0.00 0.00 0.00 0.00 0.00 0.00 0.00 0.00 0.00 0.00 0.00 0.00 0.00 0.00 0.00 0.00 0.00 0.00 0.00 0.00 0.00 0.01 0.02 0.02
0.00 0.00 0.00 0.02 0.02 0.00 0.02 0.07 0.12 0.16 0.09 0.10 0.06 0.01 0.00 0.00 0.00 0.00 0.00 0.00 0.00 0.00 0.00 0.00 0.00 0.00 0.00 0.00 0.00 0.00 0.00 0.00 0.00 0.00 0.00 0.00 0.00 0.00 0.00 0.00 0.01 0.01 0.01
0.00 0.00 0.00 0.00 0.01 0.01 0.03 0.10 0.23 0.24 0.11 0.09 0.07 0.02 0.01 0.01 0.02 0.00 0.00 0.00 0.00 0.00 0.00 0.00 0.00 0.00 0.00 0.00 0.00 0.00 0.00 0.00 0.00 0.00 0.00 0.00 0.00 0.00 0.00 0.00 0.00 0.00 0.01
0.00 0.00 0.00 0.00 0.00 0.03 0.08 0.19 0.24 0.20 0.08 0.08 0.03 0.02 0.12 0.06 0.04 0.02 0.00 0.00 0.00 0.00 0.00 0.00 0.00 0.00 0.00 0.00 0.00 0.00 0.00 0.00 0.00 0.00 0.00 0.00 0.00 0.00 0.00 0.00 0.00 0.00 0.02
0.00 0.00 0.00 0.00 0.00 0.02 0.03 0.07 0.15 0.18 0.19 0.17 0.08 0.17 0.08 0.12 0.14 0.08 0.01 0.00 0.00 0.00 0.00 0.00 0.00 0.00 0.00 0.00 0.00 0.00 0.00 0.00 0.00 0.00 0.00 0.00 0.00 0.00 0.00 0.00 0.00 0.01 0.05
0.00 0.00 0.00 0.00 0.00 0.00 0.02 0.04 0.14 0.25 0.23 0.25 0.21 0.09 0.05 0.12 0.21 0.15 0.06 0.06 0.02 0.00 0.00 0.00 0.00 0.00 0.00 0.00 0.00 0.00 0.00 0.00 0.00 0.00 0.00 0.00 0.00 0.00 0.00 0.00 0.01 0.02 0.03
0.00 0.00 0.00 0.00 0.00 0.01 0.02 0.07 0.15 0.18 0.20 0.20 0.11 0.05 0.07 0.26 0.30 0.30 0.18 0.11 0.09 0.03 0.01 0.00 0.00 0.00 0.00 0.00 0.00 0.00 0.00 0.00 0.00 0.00 0.00 0.00 0.00 0.00 0.00 0.00 0.00 0.00 0.00
0.00 0.00 0.00 0.00 0.00 0.00 0.00 0.04 0.08 0.07 0.08 0.08 0.08 0.18 0.23 0.25 0.29 0.32 0.25 0.20 0.17 0.11 0.04 0.07 0.06 0.07 0.03 0.01 0.00 0.00 0.00 0.00 0.00 0.00 0.00 0.00 0.00 0.00 0.00 0.00 0.00 0.00 0.00
0.00 0.00 0.00 0.00 0.00 0.00 0.00 0.03 0.09 0.07 0.05 0.05 0.08 0.11 0.14 0.20 0.21 0.28 0.26 0.23 0.14 0.14 0.22 0.15 0.09 0.08 0.07 0.04 0.02 0.01 0.00 0.00 0.00 0.00 0.00 0.00 0.00 0.00 0.00 0.00 0.00 0.00 0.00
0.00 0.00 0.00 0.00 0.00 0.00 0.00 0.00 0.03 0.05 0.04 0.03 0.05 0.12 0.12 0.16 0.16 0.16 0.18 0.14 0.18 0.15 0.14 0.17 0.23 0.17 0.12 0.11 0.06 0.04 0.03 0.03 0.01 0.01 0.01 0.00 0.00 0.00 0.00 0.00 0.00 0.00 0.00

GFSSE_prec_precacc_054.txt.gz
Total_Precipitation_Accumulation
0.00 0.02 0.08 0.07 0.07 0.08 0.05 0.06 0.05 0.05 0.06 0.04 0.04 0.04 0.07 0.08 0.02 0.01 0.00 0.00 0.00 0.01 0.05 0.16 0.27 0.32 0.37 0.27 0.09 0.01 0.01 0.00 0.00 0.00 0.00 0.00 0.00 0.00 0.00 0.00 0.00 0.00 0.01
0.00 0.01 0.05 0.06 0.07 0.06 0.06 0.08 0.05 0.03 0.03 0.02 0.02 0.05 0.06 0.04 0.02 0.02 0.01 0.01 0.01 0.03 0.12 0.24 0.31 0.24 0.14 0.04 0.00 0.00 0.00 0.00 0.00 0.00 0.00 0.00 0.00 0.00 0.00 0.00 0.00 0.00 0.01
0.00 0.00 0.01 0.04 0.09 0.05 0.07 0.05 0.02 0.02 0.01 0.01 0.05 0.09 0.03 0.00 0.00 0.01 0.02 0.02 0.04 0.12 0.30 0.29 0.10 0.01 0.00 0.00 0.00 0.00 0.00 0.00 0.00 0.00 0.00 0.00 0.00 0.00 0.00 0.00 0.00 0.01 0.00
0.00 0.00 0.00 0.03 0.05 0.04 0.07 0.04 0.02 0.02 0.01 0.02 0.07 0.03 0.00 0.00 0.00 0.01 0.02 0.04 0.07 0.18 0.16 0.03 0.00 0.00 0.00 0.00 0.00 0.00 0.00 0.00 0.00 0.00 0.00 0.00 0.00 0.00 0.00 0.00 0.01 0.01 0.02
0.00 0.00 0.00 0.03 0.04 0.05 0.04 0.04 0.03 0.02 0.02 0.03 0.02 0.00 0.01 0.02 0.04 0.04 0.03 0.02 0.02 0.02 0.00 0.00 0.00 0.00 0.00 0.00 0.00 0.00 0.00 0.00 0.00 0.00 0.00 0.00 0.01 0.03 0.04 0.06 0.07 0.05 0.05
0.00 0.00 0.00 0.03 0.04 0.03 0.04 0.05 0.03 0.03 0.03 0.02 0.01 0.00 0.00 0.03 0.08 0.06 0.01 0.00 0.00 0.00 0.00 0.00 0.00 0.00 0.00 0.00 0.00 0.00 0.00 0.00 0.00 0.00 0.00 0.01 0.04 0.15 0.11 0.08 0.17 0.19 0.18
0.00 0.00 0.00 0.03 0.03 0.02 0.03 0.04 0.03 0.03 0.02 0.01 0.00 0.00 0.01 0.04 0.09 0.12 0.03 0.00 0.00 0.00 0.00 0.00 0.00 0.00 0.00 0.00 0.00 0.00 0.00 0.00 0.00 0.00 0.00 0.01 0.04 0.06 0.06 0.05 0.04 0.06 0.08
0.00 0.00 0.00 0.03 0.05 0.02 0.02 0.03 0.03 0.03 0.03 0.01 0.00 0.00 0.00 0.01 0.05 0.12 0.05 0.00 0.00 0.00 0.00 0.00 0.00 0.00 0.01 0.01 0.00 0.00 0.00 0.00 0.00 0.00 0.00 0.01 0.03 0.02 0.03 0.04 0.04 0.05 0.06
0.00 0.00 0.00 0.02 0.03 0.02 0.02 0.02 0.03 0.03 0.03 0.01 0.00 0.00 0.00 0.00 0.02 0.06 0.02 0.00 0.00 0.00 0.01 0.00 0.00 0.00 0.01 0.02 0.02 0.02 0.01 0.00 0.00 0.00 0.00 0.01 0.02 0.01 0.02 0.04 0.05 0.06 0.08
0.00 0.01 0.00 0.00 0.02 0.02 0.01 0.00 0.02 0.03 0.01 0.00 0.00 0.00 0.00 0.00 0.01 0.02 0.00 0.00 0.00 0.01 0.01 0.01 0.01 0.03 0.03 0.02 0.02 0.01 0.01 0.00 0.00 0.00 0.00 0.00 0.01 0.02 0.04 0.05 0.05 0.07 0.11
0.02 0.04 0.03 0.02 0.01 0.01 0.00 0.00 0.00 0.02 0.01 0.00 0.00 0.00 0.00 0.00 0.00 0.00 0.00 0.00 0.00 0.02 0.02 0.02 0.01 0.03 0.02 0.01 0.01 0.00 0.00 0.00 0.00 0.00 0.00 0.00 0.01 0.02 0.04 0.04 0.06 0.06 0.07
0.03 0.04 0.02 0.01 0.00 0.01 0.00 0.00 0.00 0.00 0.00 0.00 0.00 0.00 0.00 0.00 0.00 0.00 0.00 0.00 0.00 0.03 0.02 0.03 0.01 0.01 0.01 0.00 0.00 0.00 0.00 0.00 0.00 0.00 0.00 0.00 0.00 0.02 0.02 0.03 0.04 0.02 0.02
0.01 0.01 0.00 0.00 0.00 0.00 0.00 0.00 0.00 0.00 0.00 0.00 0.00 0.00 0.00 0.00 0.00 0.00 0.00 0.00 0.00 0.01 0.00 0.01 0.00 0.00 0.00 0.00 0.00 0.00 0.00 0.00 0.00 0.00 0.00 0.00 0.00 0.01 0.01 0.02 0.02 0.02 0.02
0.01 0.00 0.00 0.00 0.00 0.00 0.01 0.00 0.00 0.00 0.00 0.00 0.00 0.00 0.00 0.00 0.00 0.00 0.00 0.00 0.00 0.00 0.00 0.00 0.00 0.00 0.00 0.00 0.00 0.00 0.00 0.00 0.00 0.00 0.00 0.00 0.00 0.00 0.00 0.01 0.01 0.01 0.02
0.00 0.00 0.01 0.01 0.01 0.02 0.02 0.02 0.00 0.00 0.00 0.00 0.00 0.00 0.00 0.00 0.00 0.00 0.00 0.00 0.00 0.00 0.00 0.00 0.00 0.00 0.00 0.00 0.00 0.00 0.00 0.00 0.00 0.00 0.00 0.00 0.00 0.00 0.00 0.00 0.01 0.01 0.02
0.00 0.00 0.02 0.04 0.02 0.00 0.03 0.03 0.03 0.00 0.00 0.00 0.00 0.00 0.00 0.00 0.00 0.00 0.00 0.00 0.00 0.00 0.00 0.00 0.00 0.00 0.00 0.00 0.00 0.00 0.00 0.00 0.00 0.00 0.00 0.00 0.00 0.00 0.00 0.00 0.01 0.01 0.02
0.00 0.01 0.01 0.01 0.00 0.00 0.01 0.05 0.05 0.08 0.03 0.01 0.00 0.00 0.00 0.00 0.00 0.00 0.00 0.00 0.00 0.00 0.00 0.00 0.00 0.00 0.00 0.00 0.00 0.00 0.00 0.00 0.00 0.00 0.00 0.00 0.00 0.00 0.00 0.00 0.01 0.02 0.02
0.00 0.00 0.01 0.02 0.03 0.00 0.02 0.08 0.13 0.16 0.09 0.10 0.06 0.01 0.00 0.00 0.00 0.00 0.00 0.00 0.00 0.00 0.00 0.00 0.00 0.00 0.00 0.00 0.00 0.00 0.00 0.00 0.00 0.00 0.00 0.00 0.00 0.00 0.00 0.00 0.01 0.01 0.01
0.00 0.00 0.00 0.00 0.01 0.01 0.03 0.10 0.24 0.25 0.11 0.09 0.07 0.02 0.01 0.01 0.02 0.00 0.00 0.00 0.00 0.00 0.00 0.00 0.00 0.00 0.00 0.00 0.00 0.00 0.00 0.00 0.00 0.00 0.00 0.00 0.00 0.00 0.00 0.00 0.00 0.00 0.01
0.00 0.00 0.00 0.00 0.00 0.03 0.08 0.19 0.25 0.22 0.09 0.08 0.03 0.03 0.12 0.06 0.06 0.02 0.00 0.00 0.00 0.00 0.00 0.00 0.00 0.00 0.00 0.00 0.00 0.00 0.00 0.00 0.00 0.00 0.00 0.00 0.00 0.00 0.00 0.00 0.00 0.00 0.02
0.00 0.00 0.00 0.00 0.00 0.02 0.03 0.07 0.16 0.18 0.19 0.17 0.09 0.18 0.09 0.13 0.15 0.11 0.03 0.01 0.00 0.00 0.00 0.00 0.00 0.00 0.00 0.00 0.00 0.00 0.00 0.00 0.00 0.00 0.00 0.00 0.00 0.00 0.00 0.00 0.00 0.01 0.05
0.00 0.00 0.00 0.00 0.00 0.00 0.02 0.04 0.14 0.26 0.23 0.25 0.22 0.10 0.09 0.13 0.23 0.16 0.10 0.10 0.04 0.02 0.00 0.00 0.00 0.00 0.00 0.00 0.00 0.00 0.00 0.00 0.00 0.00 0.00 0.00 0.00 0.00 0.00 0.00 0.01 0.02 0.03
0.00 0.00 0.00 0.00 0.00 0.01 0.02 0.07 0.15 0.18 0.20 0.20 0.11 0.05 0.08 0.29 0.34 0.31 0.19 0.13 0.15 0.08 0.07 0.01 0.05 0.03 0.02 0.01 0.00 0.00 0.00 0.00 0.00 0.00 0.00 0.00 0.00 0.00 0.00 0.00 0.00 0.00 0.00
0.00 0.00 0.00 0.00 0.00 0.00 0.00 0.04 0.08 0.07 0.08 0.08 0.08 0.18 0.23 0.25 0.30 0.35 0.29 0.22 0.17 0.13 0.08 0.11 0.13 0.14 0.07 0.02 0.01 0.00 0.00 0.00 0.00 0.00 0.00 0.00 0.00 0.00 0.00 0.00 0.00 0.00 0.00
0.00 0.00 0.00 0.00 0.00 0.00 0.00 0.03 0.09 0.07 0.05 0.05 0.08 0.11 0.14 0.20 0.21 0.28 0.26 0.24 0.16 0.15 0.24 0.18 0.15 0.15 0.13 0.10 0.04 0.04 0.02 0.00 0.00 0.00 0.00 0.00 0.00 0.00 0.00 0.00 0.00 0.00 0.00
0.00 0.00 0.00 0.00 0.00 0.00 0.00 0.00 0.03 0.05 0.04 0.03 0.05 0.12 0.12 0.16 0.16 0.17 0.19 0.14 0.18 0.16 0.15 0.18 0.26 0.23 0.19 0.17 0.11 0.08 0.07 0.07 0.04 0.03 0.02 0.01 0.01 0.00 0.00 0.00 0.00 0.00 0.00

GFSSE_prec_precacc_057.txt.gz
Total_Precipitation_Accumulation
0.00 0.02 0.08 0.07 0.07 0.08 0.05 0.06 0.05 0.06 0.07 0.05 0.04 0.04 0.08 0.08 0.02 0.01 0.00 0.00 0.00 0.02 0.05 0.16 0.27 0.32 0.37 0.27 0.09 0.01 0.01 0.00 0.00 0.00 0.00 0.00 0.00 0.00 0.00 0.00 0.00 0.00 0.01
0.00 0.01 0.05 0.06 0.07 0.06 0.06 0.08 0.06 0.04 0.05 0.03 0.04 0.06 0.06 0.04 0.02 0.02 0.01 0.01 0.02 0.06 0.12 0.24 0.31 0.24 0.14 0.04 0.00 0.00 0.00 0.00 0.00 0.00 0.00 0.00 0.00 0.00 0.00 0.00 0.00 0.00 0.01
0.00 0.00 0.01 0.04 0.09 0.05 0.07 0.05 0.02 0.03 0.02 0.01 0.05 0.09 0.03 0.00 0.00 0.01 0.02 0.02 0.05 0.14 0.31 0.29 0.10 0.01 0.00 0.00 0.00 0.00 0.00 0.00 0.00 0.00 0.00 0.00 0.00 0.00 0.00 0.00 0.00 0.01 0.00
0.00 0.00 0.00 0.03 0.06 0.05 0.07 0.04 0.02 0.02 0.01 0.02 0.07 0.03 0.00 0.00 0.00 0.01 0.02 0.04 0.09 0.19 0.16 0.03 0.00 0.00 0.00 0.00 0.00 0.00 0.00 0.00 0.00 0.00 0.00 0.00 0.00 0.00 0.00 0.00 0.01 0.01 0.02
0.00 0.00 0.00 0.03 0.04 0.05 0.04 0.04 0.03 0.03 0.02 0.03 0.02 0.00 0.01 0.03 0.05 0.04 0.03 0.03 0.03 0.02 0.00 0.00 0.00 0.00 0.00 0.00 0.00 0.00 0.00 0.00 0.00 0.00 0.00 0.01 0.02 0.05 0.08 0.09 0.08 0.05 0.05
0.00 0.00 0.00 0.03 0.04 0.03 0.05 0.05 0.03 0.03 0.03 0.02 0.01 0.00 0.01 0.04 0.08 0.07 0.01 0.00 0.00 0.00 0.00 0.00 0.00 0.00 0.00 0.00 0.00 0.00 0.00 0.00 0.00 0.00 0.00 0.02 0.05 0.17 0.12 0.10 0.17 0.20 0.19
0.00 0.00 0.00 0.03 0.03 0.02 0.04 0.05 0.03 0.04 0.02 0.01 0.00 0.00 0.01 0.04 0.09 0.12 0.03 0.00 0.00 0.00 0.00 0.00 0.00 0.00 0.00 0.00 0.00 0.00 0.00 0.00 0.00 0.00 0.00 0.01 0.04 0.07 0.06 0.05 0.04 0.07 0.08
0.00 0.00 0.00 0.03 0.05 0.03 0.03 0.04 0.04 0.04 0.03 0.01 0.00 0.00 0.00 0.01 0.05 0.12 0.05 0.00 0.00 0.00 0.00 0.00 0.00 0.00 0.01 0.01 0.00 0.00 0.00 0.00 0.00 0.00 0.00 0.01 0.03 0.02 0.03 0.04 0.04 0.05 0.06
0.00 0.00 0.00 0.02 0.03 0.02 0.02 0.03 0.04 0.03 0.03 0.01 0.00 0.00 0.00 0.00 0.02 0.06 0.02 0.00 0.00 0.00 0.01 0.00 0.00 0.00 0.01 0.02 0.02 0.02 0.01 0.00 0.00 0.00 0.00 0.01 0.02 0.01 0.02 0.04 0.05 0.06 0.08
0.00 0.01 0.00 0.00 0.02 0.02 0.01 0.01 0.02 0.03 0.01 0.00 0.00 0.00 0.00 0.00 0.01 0.02 0.00 0.00 0.00 0.01 0.01 0.01 0.01 0.03 0.03 0.02 0.02 0.01 0.01 0.00 0.00 0.00 0.00 0.00 0.01 0.02 0.04 0.05 0.05 0.07 0.11
0.02 0.04 0.03 0.02 0.01 0.01 0.00 0.00 0.00 0.02 0.01 0.00 0.00 0.00 0.00 0.00 0.00 0.00 0.00 0.00 0.00 0.02 0.02 0.02 0.01 0.03 0.02 0.01 0.01 0.00 0.00 0.00 0.00 0.00 0.00 0.00 0.01 0.02 0.04 0.04 0.06 0.06 0.07
0.03 0.04 0.02 0.01 0.00 0.01 0.00 0.00 0.00 0.00 0.00 0.00 0.00 0.00 0.00 0.00 0.00 0.00 0.00 0.00 0.00 0.03 0.02 0.03 0.01 0.01 0.01 0.00 0.00 0.00 0.00 0.00 0.00 0.00 0.00 0.00 0.00 0.02 0.02 0.03 0.04 0.02 0.02
0.01 0.01 0.00 0.00 0.00 0.00 0.00 0.00 0.00 0.00 0.00 0.00 0.00 0.00 0.00 0.00 0.00 0.00 0.00 0.00 0.00 0.01 0.00 0.01 0.00 0.00 0.00 0.00 0.00 0.00 0.00 0.00 0.00 0.00 0.00 0.00 0.00 0.01 0.01 0.02 0.02 0.02 0.02
0.01 0.00 0.00 0.00 0.00 0.00 0.01 0.00 0.00 0.00 0.00 0.00 0.00 0.00 0.00 0.00 0.00 0.00 0.00 0.00 0.00 0.00 0.00 0.00 0.00 0.00 0.00 0.00 0.00 0.00 0.00 0.00 0.00 0.00 0.00 0.00 0.00 0.00 0.00 0.01 0.01 0.01 0.02
0.00 0.00 0.01 0.01 0.01 0.02 0.02 0.02 0.00 0.00 0.00 0.00 0.00 0.00 0.00 0.00 0.00 0.00 0.00 0.00 0.00 0.00 0.00 0.00 0.00 0.00 0.00 0.00 0.00 0.00 0.00 0.00 0.00 0.00 0.00 0.00 0.00 0.00 0.00 0.00 0.01 0.01 0.02
0.00 0.00 0.02 0.04 0.02 0.00 0.03 0.03 0.03 0.00 0.00 0.00 0.00 0.00 0.00 0.00 0.00 0.00 0.00 0.00 0.00 0.00 0.00 0.00 0.00 0.00 0.00 0.00 0.00 0.00 0.00 0.00 0.00 0.00 0.00 0.00 0.00 0.00 0.00 0.00 0.01 0.01 0.02
0.00 0.01 0.01 0.01 0.00 0.00 0.01 0.05 0.05 0.08 0.03 0.01 0.00 0.00 0.00 0.00 0.00 0.00 0.00 0.00 0.00 0.00 0.00 0.00 0.00 0.00 0.00 0.00 0.00 0.00 0.00 0.00 0.00 0.00 0.00 0.00 0.00 0.00 0.00 0.00 0.01 0.02 0.02
0.00 0.00 0.01 0.03 0.03 0.01 0.02 0.08 0.15 0.16 0.09 0.10 0.06 0.01 0.00 0.00 0.00 0.00 0.00 0.00 0.00 0.00 0.00 0.00 0.00 0.00 0.00 0.00 0.00 0.00 0.00 0.00 0.00 0.00 0.00 0.00 0.00 0.00 0.00 0.00 0.01 0.01 0.01
0.00 0.00 0.00 0.00 0.01 0.03 0.05 0.10 0.25 0.26 0.11 0.09 0.07 0.02 0.01 0.01 0.02 0.00 0.00 0.00 0.00 0.00 0.00 0.00 0.00 0.00 0.00 0.00 0.00 0.00 0.00 0.00 0.00 0.00 0.00 0.00 0.00 0.00 0.00 0.00 0.00 0.00 0.01
0.00 0.00 0.00 0.00 0.00 0.03 0.08 0.19 0.25 0.22 0.10 0.09 0.03 0.03 0.12 0.07 0.06 0.04 0.01 0.00 0.00 0.00 0.00 0.00 0.00 0.00 0.00 0.00 0.00 0.00 0.00 0.00 0.00 0.00 0.00 0.00 0.00 0.00 0.00 0.00 0.00 0.00 0.02
0.00 0.00 0.00 0.00 0.00 0.02 0.03 0.07 0.16 0.18 0.20 0.19 0.09 0.19 0.11 0.16 0.18 0.14 0.04 0.01 0.01 0.00 0.00 0.00 0.00 0.00 0.00 0.00 0.00 0.00 0.00 0.00 0.00 0.00 0.00 0.00 0.00 0.00 0.00 0.00 0.00 0.01 0.05
0.00 0.00 0.00 0.00 0.00 0.00 0.02 0.04 0.14 0.26 0.23 0.25 0.22 0.10 0.10 0.17 0.27 0.20 0.14 0.13 0.08 0.03 0.02 0.01 0.02 0.06 0.02 0.02 0.01 0.00 0.00 0.00 0.00 0.00 0.00 0.00 0.00 0.00 0.00 0.00 0.01 0.02 0.03
0.00 0.00 0.00 0.00 0.00 0.01 0.02 0.07 0.15 0.18 0.20 0.20 0.11 0.05 0.08 0.30 0.36 0.34 0.21 0.16 0.22 0.16 0.13 0.06 0.10 0.12 0.10 0.07 0.03 0.01 0.00 0.00 0.00 0.00 0.00 0.00 0.00 0.00 0.00 0.00 0.00 0.00 0.00
0.00 0.00 0.00 0.00 0.00 0.00 0.00 0.04 0.08 0.07 0.08 0.08 0.08 0.18 0.23 0.25 0.30 0.35 0.31 0.28 0.23 0.17 0.14 0.20 0.24 0.23 0.19 0.10 0.07 0.03 0.02 0.01 0.00 0.00 0.00 0.00 0.00 0.00 0.00 0.00 0.00 0.00 0.00
0.00 0.00 0.00 0.00 0.00 0.00 0.00 0.03 0.09 0.07 0.05 0.05 0.08 0.11 0.14 0.20 0.22 0.28 0.26 0.25 0.18 0.20 0.29 0.23 0.20 0.20 0.17 0.16 0.12 0.11 0.09 0.05 0.02 0.00 0.00 0.02 0.02 0.01 0.00 0.00 0.00 0.00 0.00
0.00 0.00 0.00 0.00 0.00 0.00 0.00 0.00 0.03 0.05 0.04 0.03 0.05 0.12 0.12 0.16 0.16 0.18 0.19 0.15 0.20 0.17 0.17 0.22 0.33 0.31 0.27 0.27 0.18 0.15 0.15 0.16 0.12 0.08 0.05 0.04 0.05 0.03 0.01 0.00 0.00 0.00 0.01

GFSSE_prec_precacc_060.txt.gz
Total_Precipitation_Accumulation
0.00 0.02 0.08 0.07 0.07 0.08 0.05 0.06 0.05 0.06 0.08 0.06 0.05 0.05 0.08 0.08 0.02 0.01 0.00 0.00 0.02 0.02 0.05 0.17 0.27 0.32 0.37 0.27 0.09 0.01 0.01 0.00 0.00 0.00 0.00 0.00 0.00 0.00 0.00 0.00 0.00 0.00 0.01
0.00 0.01 0.05 0.06 0.08 0.07 0.07 0.08 0.06 0.04 0.06 0.04 0.05 0.07 0.06 0.04 0.02 0.02 0.01 0.01 0.03 0.06 0.12 0.24 0.31 0.24 0.14 0.04 0.00 0.00 0.00 0.00 0.00 0.00 0.00 0.00 0.00 0.00 0.00 0.00 0.00 0.00 0.01
0.00 0.00 0.01 0.05 0.10 0.06 0.07 0.05 0.02 0.03 0.02 0.02 0.05 0.09 0.03 0.00 0.00 0.01 0.02 0.03 0.07 0.14 0.31 0.29 0.10 0.01 0.00 0.00 0.00 0.00 0.00 0.00 0.00 0.00 0.00 0.00 0.00 0.00 0.00 0.00 0.00 0.01 0.00
0.00 0.00 0.00 0.04 0.06 0.05 0.07 0.04 0.02 0.02 0.01 0.02 0.07 0.03 0.00 0.00 0.00 0.01 0.02 0.06 0.10 0.19 0.16 0.03 0.00 0.00 0.00 0.00 0.00 0.00 0.00 0.00 0.00 0.00 0.00 0.00 0.00 0.01 0.01 0.00 0.01 0.01 0.02
0.00 0.00 0.00 0.04 0.05 0.05 0.04 0.04 0.03 0.03 0.02 0.03 0.02 0.00 0.02 0.04 0.06 0.04 0.04 0.04 0.03 0.02 0.00 0.00 0.00 0.00 0.00 0.00 0.00 0.00 0.00 0.00 0.00 0.00 0.00 0.01 0.03 0.10 0.11 0.10 0.08 0.06 0.07
0.00 0.00 0.01 0.04 0.04 0.03 0.05 0.05 0.03 0.03 0.03 0.02 0.01 0.00 0.01 0.05 0.09 0.08 0.02 0.00 0.00 0.00 0.00 0.00 0.00 0.00 0.00 0.00 0.00 0.00 0.00 0.00 0.00 0.00 0.01 0.03 0.06 0.18 0.14 0.11 0.19 0.22 0.21
0.00 0.00 0.00 0.04 0.04 0.03 0.05 0.05 0.03 0.04 0.02 0.01 0.00 0.00 0.02 0.05 0.09 0.12 0.03 0.00 0.00 0.00 0.00 0.00 0.00 0.00 0.00 0.00 0.00 0.00 0.00 0.00 0.00 0.00 0.00 0.01 0.04 0.07 0.06 0.05 0.04 0.07 0.09
0.00 0.00 0.00 0.03 0.05 0.04 0.04 0.04 0.04 0.04 0.03 0.01 0.00 0.00 0.01 0.02 0.05 0.12 0.05 0.00 0.00 0.00 0.00 0.00 0.00 0.00 0.01 0.01 0.00 0.00 0.00 0.00 0.00 0.00 0.00 0.01 0.03 0.02 0.03 0.04 0.04 0.05 0.06
0.00 0.00 0.00 0.02 0.03 0.02 0.02 0.03 0.04 0.03 0.03 0.01 0.00 0.00 0.00 0.00 0.02 0.06 0.02 0.00 0.00 0.00 0.01 0.00 0.00 0.00 0.01 0.02 0.02 0.02 0.01 0.00 0.00 0.00 0.00 0.01 0.02 0.01 0.02 0.04 0.05 0.06 0.08
0.00 0.01 0.00 0.00 0.02 0.02 0.01 0.01 0.02 0.03 0.01 0.00 0.00 0.00 0.00 0.00 0.01 0.02 0.00 0.00 0.00 0.01 0.01 0.01 0.01 0.03 0.03 0.02 0.02 0.01 0.01 0.00 0.00 0.00 0.00 0.00 0.01 0.02 0.04 0.05 0.05 0.07 0.11
0.02 0.04 0.03 0.02 0.01 0.01 0.00 0.00 0.00 0.02 0.01 0.00 0.00 0.00 0.00 0.00 0.00 0.00 0.00 0.00 0.00 0.02 0.02 0.02 0.01 0.03 0.02 0.01 0.01 0.00 0.00 0.00 0.00 0.00 0.00 0.00 0.01 0.02 0.04 0.04 0.06 0.06 0.07
0.03 0.04 0.02 0.01 0.00 0.01 0.00 0.00 0.00 0.00 0.00 0.00 0.00 0.00 0.00 0.00 0.00 0.00 0.00 0.00 0.00 0.03 0.02 0.03 0.01 0.01 0.01 0.00 0.00 0.00 0.00 0.00 0.00 0.00 0.00 0.00 0.00 0.02 0.02 0.03 0.04 0.02 0.02
0.01 0.01 0.00 0.00 0.00 0.00 0.00 0.00 0.00 0.00 0.00 0.00 0.00 0.00 0.00 0.00 0.00 0.00 0.00 0.00 0.00 0.01 0.00 0.01 0.00 0.00 0.00 0.00 0.00 0.00 0.00 0.00 0.00 0.00 0.00 0.00 0.00 0.01 0.01 0.02 0.02 0.02 0.02
0.01 0.00 0.00 0.00 0.00 0.00 0.01 0.00 0.00 0.00 0.00 0.00 0.00 0.00 0.00 0.00 0.00 0.00 0.00 0.00 0.00 0.00 0.00 0.00 0.00 0.00 0.00 0.00 0.00 0.00 0.00 0.00 0.00 0.00 0.00 0.00 0.00 0.00 0.00 0.01 0.01 0.01 0.02
0.00 0.00 0.01 0.01 0.01 0.02 0.02 0.02 0.00 0.00 0.00 0.00 0.00 0.00 0.00 0.00 0.00 0.00 0.00 0.00 0.00 0.00 0.00 0.00 0.00 0.00 0.00 0.00 0.00 0.00 0.00 0.00 0.00 0.00 0.00 0.00 0.00 0.00 0.00 0.00 0.01 0.01 0.02
0.00 0.01 0.02 0.04 0.02 0.00 0.03 0.03 0.03 0.00 0.00 0.00 0.00 0.00 0.00 0.00 0.00 0.00 0.00 0.00 0.00 0.00 0.00 0.00 0.00 0.00 0.00 0.00 0.00 0.00 0.00 0.00 0.00 0.00 0.00 0.00 0.00 0.00 0.00 0.00 0.01 0.01 0.02
0.00 0.01 0.01 0.01 0.00 0.00 0.01 0.05 0.05 0.08 0.03 0.01 0.00 0.00 0.00 0.00 0.00 0.00 0.00 0.00 0.00 0.00 0.00 0.00 0.00 0.00 0.00 0.00 0.00 0.00 0.00 0.00 0.00 0.00 0.00 0.00 0.00 0.00 0.00 0.00 0.01 0.02 0.02
0.00 0.00 0.01 0.03 0.04 0.01 0.02 0.08 0.15 0.16 0.09 0.10 0.06 0.01 0.00 0.00 0.00 0.00 0.00 0.00 0.00 0.00 0.00 0.00 0.00 0.00 0.00 0.00 0.00 0.00 0.00 0.00 0.00 0.00 0.00 0.00 0.00 0.00 0.00 0.00 0.01 0.01 0.01
0.00 0.00 0.00 0.00 0.01 0.03 0.05 0.10 0.25 0.26 0.11 0.09 0.07 0.02 0.01 0.01 0.02 0.01 0.00 0.00 0.00 0.00 0.00 0.00 0.00 0.00 0.00 0.00 0.00 0.00 0.00 0.00 0.00 0.00 0.00 0.00 0.00 0.00 0.00 0.00 0.00 0.00 0.01
0.00 0.00 0.00 0.00 0.00 0.03 0.08 0.19 0.25 0.22 0.10 0.10 0.03 0.03 0.12 0.07 0.07 0.07 0.03 0.02 0.01 0.00 0.00 0.00 0.00 0.00 0.00 0.00 0.00 0.00 0.00 0.00 0.00 0.00 0.00 0.00 0.00 0.00 0.00 0.00 0.00 0.00 0.02
0.00 0.00 0.00 0.00 0.00 0.02 0.03 0.07 0.16 0.18 0.20 0.23 0.12 0.23 0.16 0.20 0.24 0.19 0.07 0.04 0.05 0.02 0.01 0.01 0.00 0.00 0.01 0.05 0.02 0.00 0.00 0.00 0.00 0.00 0.00 0.00 0.00 0.00 0.00 0.00 0.00 0.01 0.05
0.00 0.00 0.00 0.00 0.00 0.00 0.02 0.04 0.14 0.26 0.23 0.25 0.22 0.11 0.12 0.21 0.31 0.25 0.17 0.15 0.10 0.07 0.05 0.03 0.04 0.07 0.06 0.11 0.10 0.03 0.00 0.00 0.00 0.00 0.00 0.00 0.00 0.00 0.00 0.00 0.01 0.02 0.03
0.00 0.00 0.00 0.00 0.00 0.01 0.02 0.07 0.15 0.18 0.20 0.20 0.11 0.05 0.08 0.30 0.37 0.35 0.22 0.17 0.23 0.18 0.15 0.09 0.14 0.15 0.14 0.12 0.09 0.08 0.01 0.00 0.00 0.00 0.00 0.00 0.00 0.00 0.00 0.00 0.00 0.00 0.00
0.00 0.00 0.00 0.00 0.00 0.00 0.00 0.04 0.08 0.07 0.08 0.08 0.08 0.18 0.23 0.25 0.30 0.35 0.31 0.28 0.24 0.19 0.16 0.22 0.29 0.28 0.26 0.14 0.12 0.07 0.08 0.03 0.01 0.00 0.00 0.01 0.00 0.00 0.00 0.00 0.00 0.00 0.00
0.00 0.00 0.00 0.00 0.00 0.00 0.00 0.03 0.09 0.07 0.05 0.05 0.08 0.11 0.14 0.20 0.22 0.28 0.26 0.26 0.19 0.21 0.30 0.24 0.21 0.22 0.22 0.22 0.16 0.16 0.15 0.10 0.06 0.03 0.01 0.04 0.05 0.04 0.02 0.01 0.00 0.00 0.00
0.00 0.00 0.00 0.00 0.00 0.00 0.00 0.00 0.03 0.05 0.04 0.03 0.05 0.12 0.12 0.16 0.16 0.18 0.19 0.16 0.20 0.18 0.18 0.24 0.34 0.33 0.31 0.32 0.25 0.22 0.24 0.24 0.19 0.15 0.10 0.07 0.09 0.08 0.04 0.01 0.01 0.01 0.02

GFSSE_prec_precacc_063.txt.gz
Total_Precipitation_Accumulation
0.00 0.02 0.08 0.07 0.07 0.09 0.06 0.07 0.05 0.06 0.08 0.06 0.05 0.05 0.08 0.08 0.02 0.01 0.00 0.01 0.02 0.03 0.06 0.17 0.27 0.32 0.37 0.27 0.09 0.01 0.01 0.00 0.00 0.00 0.00 0.00 0.00 0.00 0.00 0.00 0.00 0.00 0.01
0.00 0.01 0.05 0.06 0.08 0.07 0.08 0.08 0.06 0.04 0.07 0.05 0.06 0.07 0.06 0.04 0.02 0.02 0.01 0.02 0.03 0.06 0.12 0.24 0.31 0.24 0.14 0.04 0.00 0.00 0.00 0.00 0.00 0.00 0.00 0.00 0.00 0.00 0.00 0.00 0.00 0.00 0.01
0.00 0.01 0.01 0.05 0.10 0.07 0.08 0.06 0.04 0.04 0.03 0.02 0.05 0.09 0.03 0.00 0.00 0.01 0.02 0.03 0.07 0.14 0.31 0.29 0.10 0.01 0.00 0.00 0.00 0.00 0.00 0.00 0.00 0.00 0.00 0.00 0.00 0.00 0.00 0.00 0.00 0.01 0.00
0.00 0.00 0.00 0.04 0.07 0.05 0.07 0.04 0.02 0.03 0.01 0.02 0.07 0.03 0.00 0.00 0.00 0.01 0.02 0.07 0.10 0.19 0.16 0.03 0.00 0.00 0.00 0.00 0.00 0.00 0.00 0.00 0.00 0.00 0.00 0.00 0.00 0.01 0.01 0.00 0.01 0.01 0.02
0.00 0.00 0.01 0.05 0.05 0.05 0.05 0.04 0.03 0.03 0.02 0.03 0.02 0.00 0.02 0.04 0.06 0.04 0.05 0.05 0.03 0.02 0.00 0.00 0.00 0.00 0.00 0.00 0.00 0.00 0.00 0.00 0.00 0.00 0.00 0.01 0.03 0.12 0.12 0.10 0.08 0.09 0.11
0.00 0.00 0.01 0.05 0.05 0.03 0.05 0.05 0.03 0.03 0.03 0.02 0.01 0.00 0.02 0.05 0.09 0.09 0.02 0.00 0.00 0.00 0.00 0.00 0.00 0.00 0.00 0.00 0.00 0.00 0.00 0.00 0.00 0.00 0.01 0.04 0.07 0.20 0.15 0.12 0.20 0.24 0.22
0.00 0.00 0.01 0.04 0.05 0.03 0.05 0.05 0.03 0.04 0.02 0.01 0.00 0.00 0.03 0.05 0.10 0.13 0.03 0.00 0.00 0.00 0.00 0.00 0.00 0.00 0.00 0.00 0.00 0.00 0.00 0.00 0.00 0.00 0.00 0.01 0.04 0.07 0.07 0.05 0.04 0.08 0.10
0.00 0.00 0.01 0.04 0.06 0.04 0.04 0.04 0.04 0.04 0.03 0.01 0.00 0.01 0.01 0.02 0.06 0.12 0.05 0.00 0.00 0.00 0.00 0.00 0.00 0.00 0.01 0.01 0.00 0.00 0.00 0.00 0.00 0.00 0.00 0.01 0.03 0.02 0.03 0.04 0.04 0.05 0.06
0.00 0.00 0.00 0.02 0.04 0.03 0.03 0.03 0.04 0.03 0.03 0.01 0.00 0.00 0.00 0.01 0.03 0.07 0.02 0.00 0.00 0.00 0.01 0.00 0.00 0.00 0.01 0.02 0.02 0.02 0.01 0.00 0.00 0.00 0.00 0.01 0.02 0.01 0.02 0.04 0.05 0.06 0.08
0.00 0.01 0.00 0.00 0.02 0.02 0.01 0.01 0.02 0.03 0.01 0.00 0.00 0.00 0.00 0.00 0.01 0.02 0.00 0.00 0.00 0.01 0.01 0.01 0.01 0.03 0.03 0.02 0.02 0.01 0.01 0.00 0.00 0.00 0.00 0.00 0.01 0.02 0.04 0.05 0.05 0.07 0.11
0.02 0.04 0.03 0.02 0.01 0.01 0.00 0.00 0.00 0.02 0.01 0.00 0.00 0.00 0.00 0.00 0.00 0.00 0.00 0.00 0.00 0.02 0.02 0.02 0.01 0.03 0.02 0.01 0.01 0.00 0.00 0.00 0.00 0.00 0.00 0.00 0.01 0.02 0.04 0.04 0.06 0.06 0.07
0.03 0.04 0.02 0.01 0.00 0.01 0.00 0.00 0.00 0.00 0.00 0.00 0.00 0.00 0.00 0.00 0.00 0.00 0.00 0.00 0.00 0.03 0.02 0.03 0.01 0.01 0.01 0.00 0.00 0.00 0.00 0.00 0.00 0.00 0.00 0.00 0.00 0.02 0.02 0.03 0.04 0.02 0.02
0.01 0.01 0.00 0.00 0.00 0.00 0.00 0.00 0.00 0.00 0.00 0.00 0.00 0.00 0.00 0.00 0.00 0.00 0.00 0.00 0.00 0.01 0.00 0.01 0.00 0.00 0.00 0.00 0.00 0.00 0.00 0.00 0.00 0.00 0.00 0.00 0.00 0.01 0.01 0.02 0.02 0.02 0.02
0.01 0.00 0.00 0.00 0.00 0.00 0.01 0.00 0.00 0.00 0.00 0.00 0.00 0.00 0.00 0.00 0.00 0.00 0.00 0.00 0.00 0.00 0.00 0.00 0.00 0.00 0.00 0.00 0.00 0.00 0.00 0.00 0.00 0.00 0.00 0.00 0.00 0.00 0.00 0.01 0.01 0.01 0.02
0.00 0.00 0.01 0.01 0.01 0.02 0.02 0.02 0.00 0.00 0.00 0.00 0.00 0.00 0.00 0.00 0.00 0.00 0.00 0.00 0.00 0.00 0.00 0.00 0.00 0.00 0.00 0.00 0.00 0.00 0.00 0.00 0.00 0.00 0.00 0.00 0.00 0.00 0.00 0.00 0.01 0.01 0.02
0.00 0.01 0.02 0.04 0.02 0.00 0.03 0.03 0.03 0.00 0.00 0.00 0.00 0.00 0.00 0.00 0.00 0.00 0.00 0.00 0.00 0.00 0.00 0.00 0.00 0.00 0.00 0.00 0.00 0.00 0.00 0.00 0.00 0.00 0.00 0.00 0.00 0.00 0.00 0.00 0.01 0.01 0.02
0.00 0.01 0.01 0.01 0.00 0.00 0.01 0.05 0.05 0.08 0.03 0.01 0.00 0.00 0.00 0.00 0.00 0.00 0.00 0.00 0.00 0.00 0.00 0.00 0.00 0.00 0.00 0.00 0.00 0.00 0.00 0.00 0.00 0.00 0.00 0.00 0.00 0.00 0.00 0.00 0.01 0.02 0.02
0.00 0.00 0.01 0.03 0.04 0.01 0.02 0.08 0.15 0.16 0.09 0.10 0.06 0.01 0.00 0.00 0.00 0.00 0.00 0.00 0.00 0.00 0.00 0.00 0.00 0.00 0.00 0.00 0.00 0.00 0.00 0.00 0.00 0.00 0.00 0.00 0.00 0.00 0.00 0.00 0.01 0.01 0.01
0.00 0.00 0.00 0.00 0.01 0.03 0.05 0.10 0.25 0.26 0.11 0.09 0.07 0.02 0.01 0.01 0.02 0.01 0.00 0.00 0.00 0.00 0.00 0.00 0.00 0.00 0.00 0.00 0.00 0.00 0.00 0.00 0.00 0.00 0.00 0.00 0.00 0.00 0.00 0.00 0.00 0.00 0.01
0.00 0.00 0.00 0.00 0.00 0.03 0.08 0.19 0.25 0.22 0.10 0.10 0.03 0.03 0.12 0.07 0.07 0.07 0.03 0.02 0.01 0.00 0.00 0.00 0.00 0.00 0.00 0.00 0.00 0.00 0.00 0.00 0.00 0.00 0.00 0.00 0.00 0.00 0.00 0.00 0.00 0.00 0.02
0.00 0.00 0.00 0.00 0.00 0.02 0.03 0.07 0.16 0.18 0.21 0.23 0.13 0.24 0.17 0.23 0.26 0.21 0.09 0.07 0.07 0.04 0.03 0.01 0.00 0.00 0.01 0.05 0.03 0.00 0.00 0.00 0.00 0.00 0.00 0.00 0.00 0.00 0.00 0.00 0.00 0.01 0.05
0.00 0.00 0.00 0.00 0.00 0.00 0.02 0.04 0.14 0.26 0.23 0.25 0.22 0.12 0.13 0.22 0.33 0.27 0.19 0.16 0.10 0.07 0.06 0.04 0.05 0.08 0.07 0.14 0.14 0.05 0.00 0.00 0.00 0.00 0.00 0.00 0.00 0.00 0.00 0.00 0.01 0.02 0.03
0.00 0.00 0.00 0.00 0.00 0.01 0.02 0.07 0.15 0.18 0.20 0.20 0.11 0.05 0.08 0.30 0.37 0.35 0.22 0.17 0.23 0.18 0.15 0.09 0.14 0.16 0.16 0.14 0.12 0.13 0.03 0.00 0.00 0.00 0.00 0.00 0.00 0.00 0.00 0.01 0.01 0.01 0.01
0.00 0.00 0.00 0.00 0.00 0.00 0.00 0.04 0.08 0.07 0.08 0.08 0.08 0.18 0.23 0.25 0.30 0.35 0.31 0.28 0.24 0.19 0.16 0.22 0.29 0.28 0.26 0.15 0.14 0.09 0.11 0.05 0.03 0.01 0.00 0.01 0.01 0.01 0.02 0.03 0.03 0.02 0.01
0.00 0.00 0.00 0.00 0.00 0.00 0.00 0.03 0.09 0.07 0.05 0.05 0.08 0.11 0.14 0.20 0.22 0.28 0.26 0.26 0.19 0.21 0.30 0.24 0.21 0.22 0.22 0.23 0.16 0.17 0.16 0.11 0.08 0.04 0.02 0.04 0.05 0.06 0.05 0.04 0.02 0.01 0.01
0.00 0.00 0.00 0.00 0.00 0.00 0.00 0.00 0.03 0.05 0.04 0.03 0.05 0.12 0.12 0.16 0.16 0.18 0.19 0.16 0.20 0.18 0.18 0.24 0.35 0.34 0.32 0.33 0.26 0.23 0.26 0.26 0.21 0.18 0.13 0.09 0.11 0.11 0.08 0.05 0.03 0.02 0.02

GFSSE_prec_precacc_066.txt.gz
Total_Precipitation_Accumulation
0.00 0.02 0.09 0.07 0.08 0.09 0.06 0.07 0.05 0.06 0.08 0.06 0.05 0.05 0.08 0.08 0.02 0.01 0.01 0.01 0.02 0.03 0.06 0.17 0.27 0.32 0.37 0.27 0.09 0.01 0.01 0.00 0.00 0.00 0.00 0.00 0.00 0.00 0.01 0.00 0.00 0.00 0.01
0.00 0.02 0.05 0.07 0.08 0.07 0.08 0.08 0.07 0.04 0.07 0.06 0.06 0.07 0.06 0.04 0.02 0.02 0.02 0.02 0.03 0.06 0.12 0.24 0.31 0.24 0.14 0.04 0.00 0.00 0.00 0.00 0.00 0.00 0.00 0.00 0.00 0.00 0.00 0.00 0.00 0.00 0.02
0.00 0.01 0.02 0.05 0.10 0.07 0.08 0.06 0.04 0.05 0.05 0.03 0.06 0.09 0.03 0.00 0.00 0.01 0.02 0.03 0.07 0.14 0.31 0.29 0.10 0.01 0.00 0.00 0.00 0.00 0.00 0.00 0.00 0.00 0.00 0.00 0.00 0.00 0.00 0.00 0.00 0.01 0.00
0.00 0.00 0.01 0.04 0.08 0.05 0.07 0.04 0.03 0.03 0.01 0.02 0.07 0.03 0.00 0.00 0.00 0.01 0.03 0.07 0.10 0.19 0.16 0.03 0.00 0.00 0.00 0.00 0.00 0.00 0.00 0.00 0.00 0.00 0.00 0.00 0.00 0.01 0.01 0.01 0.01 0.01 0.02
0.00 0.00 0.01 0.05 0.06 0.05 0.05 0.04 0.03 0.03 0.02 0.03 0.02 0.00 0.02 0.04 0.06 0.05 0.06 0.05 0.03 0.02 0.00 0.00 0.00 0.00 0.00 0.00 0.00 0.00 0.00 0.00 0.00 0.00 0.00 0.01 0.04 0.13 0.12 0.10 0.10 0.12 0.15
0.00 0.00 0.02 0.05 0.05 0.03 0.05 0.05 0.03 0.03 0.03 0.02 0.01 0.00 0.02 0.05 0.09 0.10 0.03 0.00 0.00 0.00 0.00 0.00 0.00 0.00 0.00 0.00 0.00 0.00 0.00 0.00 0.00 0.00 0.01 0.04 0.08 0.20 0.16 0.13 0.22 0.25 0.24
0.00 0.00 0.01 0.04 0.05 0.03 0.05 0.05 0.03 0.04 0.02 0.01 0.01 0.02 0.03 0.05 0.10 0.14 0.03 0.00 0.00 0.00 0.00 0.00 0.00 0.00 0.00 0.00 0.00 0.00 0.00 0.00 0.00 0.00 0.00 0.01 0.04 0.08 0.07 0.05 0.04 0.08 0.11
0.00 0.00 0.01 0.04 0.06 0.04 0.04 0.04 0.04 0.04 0.03 0.01 0.00 0.02 0.03 0.04 0.07 0.13 0.05 0.00 0.00 0.00 0.00 0.00 0.00 0.00 0.01 0.01 0.00 0.00 0.00 0.00 0.00 0.00 0.00 0.01 0.03 0.02 0.03 0.04 0.04 0.06 0.06
0.00 0.00 0.00 0.02 0.04 0.03 0.03 0.03 0.04 0.03 0.03 0.01 0.00 0.00 0.01 0.02 0.04 0.07 0.02 0.00 0.00 0.00 0.01 0.00 0.00 0.00 0.01 0.02 0.02 0.02 0.01 0.00 0.00 0.00 0.00 0.01 0.02 0.01 0.02 0.04 0.05 0.06 0.08
0.00 0.01 0.00 0.00 0.02 0.02 0.01 0.01 0.02 0.03 0.01 0.00 0.00 0.00 0.00 0.00 0.01 0.02 0.00 0.00 0.00 0.01 0.01 0.01 0.01 0.03 0.03 0.02 0.02 0.01 0.01 0.00 0.00 0.00 0.00 0.00 0.01 0.02 0.04 0.05 0.05 0.07 0.11
0.02 0.04 0.03 0.02 0.01 0.01 0.00 0.00 0.00 0.02 0.01 0.00 0.00 0.00 0.00 0.00 0.00 0.00 0.00 0.00 0.00 0.02 0.02 0.02 0.01 0.03 0.02 0.01 0.01 0.00 0.00 0.00 0.00 0.00 0.00 0.00 0.01 0.02 0.04 0.04 0.06 0.06 0.07
0.03 0.04 0.02 0.01 0.00 0.01 0.00 0.00 0.00 0.00 0.00 0.00 0.00 0.00 0.00 0.00 0.00 0.00 0.00 0.00 0.00 0.03 0.02 0.03 0.01 0.01 0.01 0.00 0.00 0.00 0.00 0.00 0.00 0.00 0.00 0.00 0.00 0.02 0.02 0.03 0.04 0.02 0.02
0.01 0.01 0.00 0.00 0.00 0.00 0.00 0.00 0.00 0.00 0.00 0.00 0.00 0.00 0.00 0.00 0.00 0.00 0.00 0.00 0.00 0.01 0.00 0.01 0.00 0.00 0.00 0.00 0.00 0.00 0.00 0.00 0.00 0.00 0.00 0.00 0.00 0.01 0.01 0.02 0.02 0.02 0.02
0.01 0.00 0.00 0.00 0.00 0.00 0.01 0.00 0.00 0.00 0.00 0.00 0.00 0.00 0.00 0.00 0.00 0.00 0.00 0.00 0.00 0.00 0.00 0.00 0.00 0.00 0.00 0.00 0.00 0.00 0.00 0.00 0.00 0.00 0.00 0.00 0.00 0.00 0.00 0.01 0.01 0.01 0.02
0.00 0.00 0.01 0.01 0.01 0.02 0.02 0.02 0.00 0.00 0.00 0.00 0.00 0.00 0.00 0.00 0.00 0.00 0.00 0.00 0.00 0.00 0.00 0.00 0.00 0.00 0.00 0.00 0.00 0.00 0.00 0.00 0.00 0.00 0.00 0.00 0.00 0.00 0.00 0.00 0.01 0.01 0.02
0.00 0.01 0.02 0.04 0.02 0.00 0.03 0.03 0.03 0.00 0.00 0.00 0.00 0.00 0.00 0.00 0.00 0.00 0.00 0.00 0.00 0.00 0.00 0.00 0.00 0.00 0.00 0.00 0.00 0.00 0.00 0.00 0.00 0.00 0.00 0.00 0.00 0.00 0.00 0.00 0.01 0.01 0.02
0.00 0.01 0.01 0.01 0.00 0.00 0.01 0.05 0.05 0.08 0.03 0.01 0.00 0.00 0.00 0.00 0.00 0.00 0.00 0.00 0.00 0.00 0.00 0.00 0.00 0.00 0.00 0.00 0.00 0.00 0.00 0.00 0.00 0.00 0.00 0.00 0.00 0.00 0.00 0.00 0.01 0.02 0.02
0.00 0.00 0.01 0.03 0.04 0.01 0.02 0.08 0.15 0.16 0.09 0.10 0.06 0.01 0.00 0.00 0.00 0.00 0.00 0.00 0.00 0.00 0.00 0.00 0.00 0.00 0.00 0.00 0.00 0.00 0.00 0.00 0.00 0.00 0.00 0.00 0.00 0.00 0.00 0.00 0.01 0.01 0.01
0.00 0.00 0.00 0.00 0.01 0.03 0.05 0.10 0.25 0.26 0.11 0.09 0.07 0.02 0.01 0.01 0.02 0.01 0.00 0.00 0.00 0.00 0.00 0.00 0.00 0.00 0.00 0.00 0.00 0.00 0.00 0.00 0.00 0.00 0.00 0.00 0.00 0.00 0.00 0.00 0.00 0.00 0.01
0.00 0.00 0.00 0.00 0.00 0.03 0.08 0.19 0.25 0.22 0.11 0.10 0.03 0.03 0.12 0.07 0.07 0.07 0.03 0.02 0.01 0.00 0.00 0.00 0.00 0.00 0.00 0.00 0.00 0.00 0.00 0.00 0.00 0.00 0.00 0.00 0.00 0.00 0.00 0.00 0.00 0.00 0.02
0.00 0.00 0.00 0.00 0.00 0.02 0.03 0.07 0.16 0.18 0.21 0.23 0.13 0.25 0.18 0.23 0.26 0.21 0.09 0.07 0.08 0.04 0.04 0.02 0.01 0.00 0.01 0.05 0.03 0.00 0.00 0.00 0.00 0.00 0.00 0.01 0.01 0.01 0.01 0.01 0.01 0.02 0.05
0.00 0.00 0.00 0.00 0.00 0.00 0.02 0.04 0.14 0.26 0.23 0.25 0.22 0.12 0.14 0.23 0.33 0.27 0.20 0.17 0.11 0.08 0.06 0.04 0.05 0.08 0.07 0.14 0.14 0.05 0.00 0.00 0.00 0.00 0.00 0.00 0.00 0.00 0.01 0.01 0.02 0.03 0.04
0.00 0.00 0.00 0.00 0.00 0.01 0.02 0.07 0.15 0.18 0.20 0.20 0.11 0.05 0.08 0.30 0.37 0.35 0.22 0.17 0.23 0.18 0.15 0.09 0.14 0.16 0.16 0.14 0.12 0.15 0.03 0.00 0.00 0.00 0.00 0.00 0.00 0.00 0.00 0.02 0.02 0.02 0.01
0.00 0.00 0.00 0.00 0.00 0.00 0.00 0.04 0.08 0.07 0.08 0.08 0.08 0.18 0.23 0.25 0.30 0.35 0.31 0.28 0.24 0.19 0.16 0.22 0.29 0.28 0.27 0.15 0.14 0.10 0.11 0.05 0.03 0.01 0.00 0.01 0.01 0.01 0.02 0.03 0.03 0.03 0.02
0.00 0.00 0.00 0.00 0.00 0.00 0.00 0.03 0.09 0.07 0.05 0.05 0.08 0.11 0.14 0.20 0.22 0.28 0.26 0.26 0.19 0.21 0.30 0.24 0.21 0.22 0.22 0.23 0.16 0.18 0.16 0.11 0.08 0.05 0.02 0.04 0.06 0.06 0.05 0.04 0.02 0.01 0.01
0.00 0.00 0.00 0.00 0.00 0.00 0.00 0.00 0.03 0.05 0.04 0.03 0.05 0.12 0.12 0.16 0.16 0.18 0.19 0.16 0.20 0.18 0.18 0.24 0.35 0.34 0.32 0.33 0.27 0.24 0.26 0.27 0.22 0.18 0.13 0.09 0.11 0.11 0.08 0.05 0.03 0.02 0.03

GFSSE_prec_precacc_069.txt.gz
Total_Precipitation_Accumulation
0.00 0.03 0.10 0.08 0.09 0.09 0.06 0.07 0.05 0.06 0.08 0.06 0.05 0.05 0.08 0.08 0.02 0.01 0.01 0.01 0.02 0.03 0.06 0.17 0.27 0.32 0.37 0.27 0.09 0.01 0.01 0.00 0.00 0.00 0.00 0.00 0.00 0.00 0.01 0.00 0.00 0.00 0.01
0.00 0.02 0.06 0.07 0.09 0.07 0.08 0.09 0.07 0.04 0.07 0.06 0.06 0.07 0.06 0.04 0.02 0.02 0.02 0.02 0.03 0.06 0.12 0.24 0.31 0.24 0.14 0.04 0.00 0.00 0.00 0.00 0.00 0.00 0.00 0.00 0.00 0.00 0.00 0.00 0.00 0.00 0.02
0.00 0.01 0.02 0.06 0.10 0.08 0.08 0.06 0.04 0.06 0.06 0.04 0.06 0.09 0.03 0.00 0.00 0.01 0.02 0.03 0.07 0.14 0.31 0.29 0.10 0.01 0.00 0.00 0.00 0.00 0.00 0.00 0.00 0.00 0.00 0.00 0.00 0.00 0.00 0.00 0.00 0.01 0.00
0.00 0.00 0.01 0.05 0.08 0.05 0.07 0.04 0.03 0.05 0.03 0.02 0.07 0.03 0.00 0.00 0.00 0.01 0.03 0.07 0.10 0.19 0.16 0.03 0.00 0.00 0.00 0.00 0.00 0.00 0.00 0.00 0.00 0.00 0.00 0.00 0.00 0.01 0.01 0.01 0.02 0.02 0.02
0.00 0.00 0.02 0.06 0.06 0.05 0.05 0.04 0.03 0.03 0.02 0.03 0.02 0.00 0.02 0.04 0.06 0.06 0.06 0.05 0.03 0.02 0.00 0.00 0.00 0.00 0.00 0.00 0.00 0.00 0.00 0.00 0.00 0.00 0.00 0.01 0.04 0.14 0.13 0.12 0.12 0.15 0.17
0.00 0.00 0.02 0.07 0.05 0.03 0.05 0.05 0.03 0.03 0.03 0.02 0.01 0.00 0.02 0.05 0.09 0.11 0.03 0.00 0.00 0.00 0.00 0.00 0.00 0.00 0.00 0.00 0.00 0.00 0.00 0.00 0.00 0.00 0.01 0.05 0.08 0.21 0.16 0.13 0.22 0.26 0.25
0.00 0.00 0.02 0.06 0.05 0.03 0.05 0.05 0.03 0.04 0.02 0.01 0.01 0.02 0.03 0.05 0.11 0.14 0.03 0.00 0.00 0.00 0.00 0.00 0.00 0.00 0.00 0.00 0.00 0.00 0.00 0.00 0.00 0.00 0.00 0.01 0.04 0.08 0.07 0.05 0.04 0.08 0.12
0.00 0.00 0.02 0.05 0.06 0.04 0.04 0.04 0.04 0.04 0.03 0.01 0.01 0.04 0.03 0.04 0.09 0.13 0.05 0.00 0.00 0.00 0.00 0.00 0.00 0.00 0.01 0.01 0.00 0.00 0.00 0.00 0.00 0.00 0.00 0.01 0.03 0.02 0.03 0.04 0.04 0.06 0.06
0.00 0.00 0.01 0.03 0.04 0.03 0.03 0.03 0.04 0.03 0.03 0.01 0.00 0.01 0.02 0.03 0.05 0.08 0.02 0.00 0.00 0.00 0.01 0.00 0.00 0.00 0.01 0.02 0.02 0.02 0.01 0.00 0.00 0.00 0.00 0.01 0.02 0.01 0.02 0.04 0.05 0.06 0.08
0.00 0.01 0.00 0.01 0.02 0.02 0.01 0.01 0.02 0.03 0.01 0.00 0.00 0.00 0.00 0.00 0.01 0.02 0.00 0.00 0.00 0.01 0.01 0.01 0.01 0.03 0.03 0.02 0.02 0.01 0.01 0.00 0.00 0.00 0.00 0.00 0.01 0.02 0.04 0.05 0.05 0.07 0.11
0.02 0.04 0.03 0.02 0.01 0.01 0.00 0.00 0.00 0.02 0.01 0.00 0.00 0.00 0.00 0.00 0.00 0.00 0.00 0.00 0.00 0.02 0.02 0.02 0.01 0.03 0.02 0.01 0.01 0.00 0.00 0.00 0.00 0.00 0.00 0.00 0.01 0.02 0.04 0.04 0.06 0.06 0.07
0.04 0.05 0.02 0.01 0.00 0.01 0.00 0.00 0.00 0.00 0.00 0.00 0.00 0.00 0.00 0.00 0.00 0.00 0.00 0.00 0.00 0.03 0.02 0.03 0.01 0.01 0.01 0.00 0.00 0.00 0.00 0.00 0.00 0.00 0.00 0.00 0.00 0.02 0.02 0.03 0.04 0.02 0.02
0.01 0.01 0.00 0.00 0.00 0.00 0.00 0.00 0.00 0.00 0.00 0.00 0.00 0.00 0.00 0.00 0.00 0.00 0.00 0.00 0.00 0.01 0.00 0.01 0.00 0.00 0.00 0.00 0.00 0.00 0.00 0.00 0.00 0.00 0.00 0.00 0.00 0.01 0.02 0.02 0.02 0.02 0.02
0.02 0.00 0.00 0.00 0.00 0.00 0.01 0.00 0.00 0.00 0.00 0.00 0.00 0.00 0.00 0.00 0.00 0.00 0.00 0.00 0.00 0.00 0.00 0.00 0.00 0.00 0.00 0.00 0.00 0.00 0.00 0.00 0.00 0.00 0.00 0.00 0.00 0.00 0.00 0.01 0.01 0.01 0.02
0.01 0.00 0.01 0.01 0.01 0.02 0.02 0.02 0.00 0.00 0.00 0.00 0.00 0.00 0.00 0.00 0.00 0.00 0.00 0.00 0.00 0.00 0.00 0.00 0.00 0.00 0.00 0.00 0.00 0.00 0.00 0.00 0.00 0.00 0.00 0.00 0.00 0.00 0.00 0.00 0.01 0.01 0.02
0.02 0.01 0.02 0.04 0.02 0.00 0.03 0.03 0.03 0.00 0.00 0.00 0.00 0.00 0.00 0.00 0.00 0.00 0.00 0.00 0.00 0.00 0.00 0.00 0.00 0.00 0.00 0.00 0.00 0.00 0.00 0.00 0.00 0.00 0.00 0.00 0.00 0.00 0.00 0.00 0.01 0.01 0.02
0.05 0.01 0.01 0.01 0.00 0.00 0.01 0.05 0.05 0.08 0.03 0.01 0.00 0.00 0.00 0.00 0.00 0.00 0.00 0.00 0.00 0.00 0.00 0.00 0.00 0.00 0.00 0.00 0.00 0.00 0.00 0.00 0.00 0.00 0.00 0.00 0.00 0.00 0.00 0.00 0.01 0.02 0.02
0.03 0.00 0.01 0.03 0.04 0.01 0.02 0.08 0.15 0.16 0.09 0.10 0.06 0.01 0.00 0.00 0.00 0.00 0.00 0.00 0.00 0.00 0.00 0.00 0.00 0.00 0.00 0.00 0.00 0.00 0.00 0.00 0.00 0.00 0.00 0.00 0.00 0.00 0.00 0.00 0.01 0.01 0.01
0.00 0.00 0.00 0.00 0.01 0.03 0.05 0.10 0.25 0.26 0.11 0.09 0.07 0.02 0.01 0.01 0.02 0.01 0.00 0.00 0.00 0.00 0.00 0.00 0.00 0.00 0.00 0.00 0.00 0.00 0.00 0.00 0.00 0.00 0.00 0.00 0.00 0.00 0.00 0.00 0.00 0.00 0.01
0.00 0.00 0.00 0.00 0.00 0.03 0.08 0.19 0.25 0.22 0.11 0.10 0.03 0.03 0.12 0.07 0.07 0.07 0.03 0.02 0.01 0.00 0.00 0.00 0.00 0.00 0.00 0.00 0.00 0.00 0.00 0.00 0.00 0.00 0.00 0.00 0.01 0.01 0.00 0.01 0.00 0.00 0.02
0.00 0.00 0.00 0.00 0.00 0.02 0.03 0.07 0.16 0.18 0.21 0.23 0.13 0.25 0.18 0.24 0.26 0.21 0.09 0.07 0.08 0.04 0.04 0.02 0.01 0.00 0.01 0.05 0.03 0.00 0.00 0.00 0.00 0.00 0.00 0.01 0.01 0.02 0.01 0.01 0.01 0.02 0.05
0.00 0.00 0.00 0.00 0.00 0.00 0.02 0.04 0.14 0.26 0.23 0.25 0.22 0.12 0.15 0.23 0.34 0.27 0.20 0.17 0.11 0.08 0.06 0.04 0.05 0.08 0.07 0.14 0.14 0.05 0.00 0.00 0.00 0.00 0.00 0.00 0.00 0.00 0.01 0.01 0.02 0.03 0.04
0.00 0.00 0.00 0.00 0.00 0.01 0.02 0.07 0.15 0.18 0.20 0.20 0.11 0.05 0.08 0.30 0.37 0.35 0.22 0.17 0.23 0.18 0.15 0.09 0.14 0.16 0.16 0.14 0.12 0.15 0.03 0.00 0.00 0.00 0.00 0.00 0.00 0.00 0.00 0.02 0.02 0.02 0.01
0.00 0.00 0.00 0.00 0.00 0.00 0.00 0.04 0.08 0.07 0.08 0.08 0.08 0.18 0.23 0.25 0.30 0.35 0.31 0.28 0.24 0.19 0.16 0.22 0.29 0.28 0.27 0.16 0.14 0.10 0.11 0.05 0.03 0.01 0.00 0.01 0.01 0.01 0.02 0.03 0.03 0.03 0.02
0.00 0.00 0.00 0.00 0.00 0.00 0.00 0.03 0.09 0.07 0.05 0.05 0.08 0.11 0.14 0.20 0.22 0.28 0.26 0.26 0.19 0.21 0.30 0.24 0.21 0.22 0.22 0.24 0.16 0.18 0.16 0.11 0.08 0.05 0.02 0.04 0.06 0.06 0.05 0.04 0.02 0.01 0.01
0.00 0.00 0.00 0.00 0.00 0.00 0.00 0.00 0.03 0.05 0.04 0.03 0.05 0.12 0.12 0.16 0.16 0.18 0.19 0.16 0.20 0.18 0.18 0.24 0.35 0.34 0.32 0.33 0.27 0.24 0.26 0.27 0.22 0.18 0.13 0.09 0.11 0.11 0.08 0.05 0.03 0.02 0.03

GFSSE_prec_precacc_072.txt.gz
Total_Precipitation_Accumulation
0.00 0.03 0.11 0.08 0.09 0.10 0.07 0.08 0.06 0.06 0.08 0.06 0.05 0.05 0.08 0.08 0.02 0.01 0.01 0.01 0.02 0.03 0.06 0.17 0.27 0.32 0.37 0.27 0.09 0.01 0.01 0.00 0.00 0.00 0.00 0.00 0.00 0.00 0.01 0.00 0.00 0.00 0.01
0.00 0.02 0.06 0.08 0.09 0.08 0.09 0.09 0.07 0.05 0.07 0.06 0.06 0.07 0.06 0.04 0.02 0.02 0.02 0.02 0.03 0.06 0.12 0.24 0.31 0.24 0.14 0.04 0.00 0.00 0.00 0.00 0.00 0.00 0.00 0.00 0.00 0.00 0.00 0.00 0.00 0.00 0.02
0.00 0.02 0.02 0.07 0.11 0.08 0.09 0.06 0.04 0.06 0.06 0.04 0.06 0.09 0.03 0.00 0.00 0.01 0.02 0.03 0.07 0.14 0.31 0.29 0.10 0.01 0.00 0.00 0.00 0.00 0.00 0.00 0.00 0.00 0.00 0.00 0.00 0.00 0.00 0.00 0.00 0.01 0.00
0.00 0.00 0.01 0.05 0.09 0.06 0.07 0.04 0.04 0.05 0.03 0.02 0.07 0.03 0.00 0.00 0.01 0.01 0.03 0.07 0.10 0.19 0.16 0.03 0.00 0.00 0.00 0.00 0.00 0.00 0.00 0.00 0.00 0.00 0.00 0.00 0.00 0.01 0.03 0.04 0.03 0.02 0.02
0.00 0.00 0.02 0.06 0.07 0.05 0.05 0.04 0.04 0.03 0.02 0.03 0.02 0.00 0.02 0.04 0.07 0.06 0.06 0.05 0.03 0.02 0.00 0.00 0.00 0.00 0.00 0.00 0.00 0.00 0.00 0.00 0.00 0.00 0.00 0.02 0.05 0.15 0.14 0.12 0.13 0.15 0.17
0.00 0.00 0.03 0.07 0.06 0.04 0.05 0.05 0.03 0.03 0.03 0.02 0.01 0.00 0.02 0.05 0.11 0.11 0.03 0.00 0.00 0.00 0.00 0.00 0.00 0.00 0.00 0.00 0.00 0.00 0.00 0.00 0.00 0.01 0.01 0.05 0.09 0.21 0.16 0.13 0.22 0.26 0.26
0.00 0.00 0.02 0.07 0.05 0.03 0.05 0.05 0.03 0.04 0.02 0.01 0.01 0.02 0.03 0.05 0.13 0.14 0.03 0.00 0.00 0.00 0.00 0.00 0.00 0.00 0.00 0.00 0.00 0.00 0.00 0.00 0.00 0.00 0.00 0.01 0.04 0.08 0.07 0.05 0.04 0.08 0.12
0.00 0.00 0.02 0.06 0.06 0.04 0.04 0.04 0.04 0.04 0.03 0.01 0.01 0.04 0.03 0.05 0.10 0.13 0.05 0.00 0.00 0.00 0.00 0.00 0.00 0.00 0.01 0.01 0.00 0.00 0.00 0.00 0.00 0.00 0.00 0.01 0.03 0.02 0.03 0.04 0.04 0.06 0.06
0.00 0.00 0.02 0.03 0.04 0.03 0.03 0.03 0.04 0.03 0.03 0.01 0.01 0.01 0.02 0.04 0.06 0.08 0.02 0.00 0.00 0.00 0.01 0.00 0.00 0.00 0.01 0.02 0.02 0.02 0.01 0.00 0.00 0.00 0.00 0.01 0.02 0.01 0.02 0.04 0.05 0.06 0.08
0.00 0.01 0.01 0.01 0.02 0.02 0.01 0.01 0.02 0.03 0.01 0.00 0.00 0.00 0.00 0.00 0.01 0.02 0.00 0.00 0.00 0.01 0.01 0.01 0.01 0.03 0.03 0.02 0.02 0.01 0.01 0.00 0.00 0.00 0.00 0.00 0.01 0.02 0.04 0.05 0.05 0.07 0.11
0.04 0.05 0.04 0.03 0.01 0.01 0.00 0.00 0.00 0.02 0.01 0.00 0.00 0.00 0.00 0.00 0.00 0.00 0.00 0.00 0.00 0.02 0.02 0.02 0.01 0.03 0.02 0.01 0.01 0.00 0.00 0.00 0.00 0.00 0.00 0.00 0.01 0.02 0.04 0.04 0.06 0.06 0.07
0.05 0.06 0.03 0.02 0.01 0.01 0.00 0.00 0.00 0.00 0.00 0.00 0.00 0.00 0.00 0.00 0.00 0.00 0.00 0.00 0.00 0.03 0.02 0.03 0.01 0.01 0.01 0.00 0.00 0.00 0.00 0.00 0.00 0.00 0.00 0.00 0.00 0.02 0.02 0.03 0.04 0.02 0.02
0.01 0.01 0.01 0.01 0.01 0.00 0.00 0.00 0.00 0.00 0.00 0.00 0.00 0.00 0.00 0.00 0.00 0.00 0.00 0.00 0.00 0.01 0.00 0.01 0.00 0.00 0.00 0.00 0.00 0.00 0.00 0.00 0.00 0.00 0.00 0.00 0.00 0.01 0.02 0.02 0.02 0.02 0.02
0.02 0.00 0.01 0.01 0.01 0.00 0.01 0.00 0.00 0.00 0.00 0.00 0.00 0.00 0.00 0.00 0.00 0.00 0.00 0.00 0.00 0.00 0.00 0.00 0.00 0.00 0.00 0.00 0.00 0.00 0.00 0.00 0.00 0.00 0.00 0.00 0.00 0.00 0.00 0.01 0.01 0.01 0.02
0.02 0.00 0.01 0.02 0.01 0.02 0.02 0.02 0.00 0.00 0.00 0.00 0.00 0.00 0.00 0.00 0.00 0.00 0.00 0.00 0.00 0.00 0.00 0.00 0.00 0.00 0.00 0.00 0.00 0.00 0.00 0.00 0.00 0.00 0.00 0.00 0.00 0.00 0.00 0.00 0.01 0.01 0.02
0.04 0.01 0.02 0.04 0.03 0.01 0.03 0.03 0.03 0.00 0.00 0.00 0.00 0.00 0.00 0.00 0.00 0.00 0.00 0.00 0.00 0.00 0.00 0.00 0.00 0.00 0.00 0.00 0.00 0.00 0.00 0.00 0.00 0.00 0.00 0.00 0.00 0.00 0.00 0.00 0.01 0.01 0.02
0.13 0.05 0.01 0.01 0.00 0.00 0.01 0.05 0.05 0.08 0.03 0.01 0.00 0.00 0.00 0.00 0.00 0.00 0.00 0.00 0.00 0.00 0.00 0.00 0.00 0.00 0.00 0.00 0.00 0.00 0.00 0.00 0.00 0.00 0.00 0.00 0.00 0.00 0.00 0.00 0.01 0.02 0.02
0.03 0.02 0.01 0.03 0.04 0.01 0.02 0.08 0.15 0.16 0.09 0.10 0.06 0.01 0.00 0.00 0.00 0.00 0.00 0.00 0.00 0.00 0.00 0.00 0.00 0.00 0.00 0.00 0.00 0.00 0.00 0.00 0.00 0.00 0.00 0.00 0.00 0.00 0.00 0.00 0.01 0.01 0.01
0.00 0.02 0.02 0.02 0.01 0.03 0.05 0.10 0.25 0.26 0.11 0.09 0.07 0.02 0.01 0.01 0.02 0.01 0.00 0.00 0.00 0.00 0.00 0.00 0.00 0.00 0.00 0.00 0.00 0.00 0.00 0.00 0.00 0.00 0.00 0.00 0.00 0.00 0.00 0.00 0.00 0.00 0.01
0.00 0.01 0.02 0.04 0.01 0.03 0.08 0.19 0.25 0.22 0.11 0.10 0.03 0.03 0.12 0.07 0.07 0.07 0.03 0.02 0.01 0.00 0.00 0.00 0.00 0.00 0.00 0.00 0.00 0.00 0.00 0.00 0.00 0.00 0.00 0.00 0.01 0.01 0.00 0.01 0.00 0.00 0.02
0.00 0.00 0.00 0.00 0.00 0.02 0.03 0.07 0.16 0.18 0.21 0.23 0.13 0.25 0.18 0.24 0.26 0.21 0.09 0.07 0.08 0.04 0.04 0.02 0.01 0.00 0.01 0.05 0.03 0.00 0.00 0.00 0.00 0.00 0.00 0.01 0.01 0.02 0.01 0.01 0.01 0.02 0.05
0.00 0.00 0.00 0.00 0.00 0.00 0.02 0.04 0.14 0.26 0.23 0.25 0.22 0.12 0.15 0.23 0.34 0.27 0.20 0.17 0.11 0.08 0.06 0.04 0.05 0.08 0.07 0.14 0.14 0.05 0.00 0.00 0.00 0.00 0.00 0.00 0.00 0.00 0.01 0.01 0.02 0.03 0.04
0.00 0.00 0.00 0.00 0.00 0.01 0.02 0.07 0.15 0.18 0.20 0.20 0.11 0.05 0.08 0.30 0.37 0.35 0.22 0.17 0.23 0.18 0.15 0.10 0.15 0.17 0.16 0.14 0.12 0.15 0.04 0.00 0.00 0.00 0.00 0.00 0.00 0.00 0.00 0.02 0.02 0.02 0.01
0.00 0.00 0.00 0.00 0.00 0.00 0.00 0.04 0.08 0.07 0.08 0.08 0.08 0.18 0.23 0.25 0.30 0.35 0.31 0.28 0.24 0.19 0.16 0.22 0.30 0.28 0.27 0.16 0.14 0.10 0.12 0.05 0.04 0.02 0.00 0.01 0.01 0.01 0.02 0.03 0.03 0.03 0.02
0.00 0.00 0.00 0.00 0.00 0.00 0.00 0.03 0.09 0.07 0.05 0.05 0.08 0.11 0.14 0.20 0.22 0.28 0.26 0.26 0.19 0.21 0.30 0.24 0.21 0.22 0.23 0.24 0.17 0.18 0.16 0.11 0.08 0.05 0.03 0.04 0.06 0.06 0.05 0.04 0.02 0.01 0.01
0.00 0.00 0.00 0.00 0.00 0.00 0.00 0.00 0.03 0.05 0.04 0.03 0.05 0.12 0.12 0.16 0.16 0.18 0.19 0.16 0.20 0.18 0.18 0.24 0.35 0.35 0.32 0.34 0.28 0.25 0.27 0.27 0.22 0.18 0.13 0.09 0.11 0.11 0.08 0.05 0.03 0.02 0.03

GFSSE_prec_precacc_075.txt.gz
Total_Precipitation_Accumulation
0.00 0.03 0.11 0.08 0.09 0.10 0.08 0.08 0.07 0.07 0.08 0.06 0.05 0.05 0.09 0.09 0.03 0.01 0.01 0.01 0.02 0.03 0.06 0.17 0.27 0.32 0.37 0.27 0.09 0.01 0.01 0.00 0.00 0.00 0.00 0.00 0.00 0.00 0.01 0.00 0.00 0.00 0.01
0.00 0.02 0.07 0.08 0.10 0.09 0.10 0.10 0.08 0.05 0.08 0.06 0.06 0.07 0.06 0.04 0.02 0.02 0.02 0.02 0.03 0.06 0.12 0.24 0.31 0.24 0.14 0.04 0.00 0.00 0.00 0.00 0.00 0.00 0.00 0.00 0.00 0.00 0.00 0.00 0.00 0.00 0.02
0.00 0.02 0.02 0.07 0.11 0.10 0.09 0.06 0.04 0.06 0.06 0.04 0.06 0.09 0.03 0.01 0.00 0.01 0.02 0.03 0.07 0.14 0.31 0.29 0.10 0.01 0.00 0.00 0.00 0.00 0.00 0.00 0.00 0.00 0.00 0.00 0.00 0.02 0.02 0.01 0.00 0.01 0.00
0.00 0.00 0.02 0.06 0.09 0.07 0.07 0.04 0.04 0.05 0.03 0.02 0.07 0.03 0.00 0.01 0.01 0.01 0.03 0.07 0.10 0.19 0.16 0.03 0.00 0.00 0.00 0.00 0.00 0.00 0.00 0.00 0.00 0.00 0.00 0.00 0.00 0.03 0.04 0.05 0.04 0.02 0.02
0.00 0.00 0.03 0.07 0.08 0.05 0.05 0.04 0.04 0.03 0.02 0.03 0.02 0.00 0.02 0.06 0.07 0.06 0.06 0.05 0.03 0.02 0.00 0.00 0.00 0.00 0.00 0.00 0.00 0.00 0.00 0.00 0.00 0.00 0.00 0.02 0.05 0.15 0.14 0.13 0.13 0.16 0.19
0.00 0.00 0.03 0.08 0.06 0.04 0.05 0.06 0.04 0.03 0.03 0.02 0.01 0.00 0.02 0.07 0.11 0.11 0.03 0.00 0.00 0.00 0.00 0.00 0.00 0.00 0.00 0.00 0.00 0.00 0.00 0.00 0.00 0.01 0.01 0.05 0.09 0.21 0.16 0.13 0.22 0.27 0.27
0.00 0.00 0.03 0.08 0.05 0.03 0.05 0.05 0.03 0.04 0.02 0.01 0.01 0.02 0.03 0.07 0.13 0.14 0.03 0.00 0.00 0.00 0.00 0.00 0.00 0.00 0.00 0.00 0.00 0.00 0.00 0.00 0.00 0.00 0.00 0.01 0.04 0.08 0.07 0.05 0.04 0.08 0.12
0.00 0.00 0.03 0.07 0.06 0.04 0.04 0.04 0.04 0.04 0.03 0.01 0.01 0.04 0.04 0.07 0.10 0.13 0.05 0.00 0.00 0.00 0.00 0.00 0.00 0.00 0.01 0.01 0.00 0.00 0.00 0.00 0.00 0.00 0.00 0.01 0.03 0.02 0.03 0.04 0.04 0.06 0.06
0.00 0.00 0.02 0.04 0.04 0.03 0.03 0.03 0.04 0.03 0.03 0.01 0.01 0.01 0.03 0.05 0.06 0.08 0.02 0.00 0.00 0.00 0.01 0.00 0.00 0.00 0.01 0.02 0.02 0.02 0.01 0.00 0.00 0.00 0.00 0.01 0.02 0.01 0.02 0.04 0.05 0.06 0.08
0.00 0.01 0.02 0.02 0.02 0.02 0.01 0.01 0.02 0.03 0.01 0.00 0.00 0.00 0.00 0.00 0.01 0.02 0.00 0.00 0.00 0.01 0.01 0.01 0.01 0.03 0.03 0.02 0.02 0.01 0.01 0.00 0.00 0.00 0.00 0.00 0.01 0.02 0.04 0.05 0.05 0.07 0.11
0.04 0.06 0.04 0.03 0.01 0.01 0.00 0.00 0.00 0.02 0.01 0.00 0.00 0.00 0.00 0.00 0.00 0.00 0.00 0.00 0.00 0.02 0.02 0.02 0.01 0.03 0.02 0.01 0.01 0.00 0.00 0.00 0.00 0.00 0.00 0.00 0.01 0.02 0.04 0.04 0.06 0.06 0.07
0.06 0.07 0.04 0.02 0.01 0.01 0.00 0.00 0.00 0.00 0.00 0.00 0.00 0.00 0.00 0.00 0.00 0.00 0.00 0.00 0.00 0.03 0.02 0.03 0.01 0.01 0.01 0.00 0.00 0.00 0.00 0.00 0.00 0.00 0.00 0.00 0.00 0.02 0.02 0.03 0.04 0.02 0.02
0.02 0.02 0.02 0.02 0.01 0.01 0.00 0.00 0.00 0.00 0.00 0.00 0.00 0.00 0.00 0.00 0.00 0.00 0.00 0.00 0.00 0.01 0.00 0.01 0.00 0.00 0.00 0.00 0.00 0.00 0.00 0.00 0.00 0.00 0.00 0.00 0.00 0.01 0.02 0.02 0.02 0.02 0.02
0.02 0.01 0.02 0.02 0.02 0.01 0.01 0.00 0.00 0.00 0.00 0.00 0.00 0.00 0.00 0.00 0.00 0.00 0.00 0.00 0.00 0.00 0.00 0.00 0.00 0.00 0.00 0.00 0.00 0.00 0.00 0.00 0.00 0.00 0.00 0.00 0.00 0.00 0.00 0.01 0.02 0.01 0.02
0.02 0.00 0.02 0.03 0.01 0.02 0.03 0.02 0.00 0.00 0.00 0.00 0.00 0.00 0.00 0.00 0.00 0.00 0.00 0.00 0.00 0.00 0.00 0.00 0.00 0.00 0.00 0.00 0.00 0.00 0.00 0.00 0.00 0.00 0.00 0.00 0.00 0.00 0.00 0.00 0.01 0.01 0.02
0.06 0.02 0.04 0.06 0.03 0.01 0.03 0.03 0.03 0.00 0.00 0.00 0.00 0.00 0.00 0.00 0.00 0.00 0.00 0.00 0.00 0.00 0.00 0.00 0.00 0.00 0.00 0.00 0.00 0.00 0.00 0.00 0.00 0.00 0.00 0.00 0.00 0.00 0.00 0.00 0.01 0.01 0.02
0.18 0.12 0.06 0.03 0.01 0.01 0.01 0.05 0.05 0.08 0.03 0.01 0.00 0.00 0.00 0.00 0.00 0.00 0.00 0.00 0.00 0.00 0.00 0.00 0.00 0.00 0.00 0.00 0.00 0.00 0.00 0.00 0.00 0.00 0.00 0.00 0.00 0.00 0.00 0.00 0.01 0.02 0.02
0.04 0.03 0.05 0.03 0.04 0.01 0.02 0.08 0.15 0.16 0.09 0.10 0.06 0.01 0.00 0.00 0.00 0.00 0.00 0.00 0.00 0.00 0.00 0.00 0.00 0.00 0.00 0.00 0.00 0.00 0.00 0.00 0.00 0.00 0.00 0.00 0.00 0.00 0.00 0.00 0.01 0.01 0.01
0.00 0.02 0.03 0.03 0.01 0.03 0.05 0.10 0.25 0.26 0.11 0.09 0.07 0.02 0.01 0.01 0.02 0.01 0.00 0.00 0.00 0.00 0.00 0.00 0.00 0.00 0.00 0.00 0.00 0.00 0.00 0.00 0.00 0.00 0.00 0.00 0.00 0.00 0.00 0.00 0.00 0.00 0.01
0.00 0.01 0.02 0.04 0.01 0.03 0.08 0.19 0.25 0.22 0.11 0.10 0.03 0.03 0.12 0.07 0.07 0.07 0.03 0.02 0.01 0.00 0.00 0.00 0.00 0.00 0.00 0.00 0.00 0.00 0.00 0.00 0.00 0.00 0.00 0.00 0.01 0.01 0.00 0.01 0.00 0.00 0.02
0.00 0.00 0.00 0.00 0.00 0.02 0.03 0.07 0.16 0.18 0.21 0.23 0.13 0.25 0.18 0.24 0.26 0.21 0.09 0.07 0.08 0.04 0.04 0.03 0.02 0.01 0.01 0.05 0.03 0.00 0.00 0.00 0.00 0.00 0.00 0.01 0.01 0.02 0.01 0.01 0.01 0.02 0.05
0.00 0.00 0.00 0.00 0.00 0.00 0.02 0.04 0.14 0.26 0.23 0.25 0.22 0.12 0.15 0.23 0.34 0.27 0.20 0.17 0.12 0.08 0.06 0.04 0.05 0.09 0.07 0.14 0.15 0.06 0.01 0.00 0.00 0.00 0.00 0.00 0.00 0.00 0.01 0.01 0.02 0.03 0.04
0.00 0.00 0.00 0.00 0.00 0.01 0.02 0.07 0.15 0.18 0.20 0.20 0.11 0.05 0.08 0.30 0.37 0.35 0.22 0.18 0.24 0.19 0.16 0.10 0.16 0.18 0.17 0.15 0.13 0.16 0.05 0.01 0.00 0.00 0.00 0.00 0.00 0.00 0.00 0.02 0.02 0.02 0.01
0.00 0.00 0.00 0.00 0.00 0.00 0.00 0.04 0.08 0.07 0.08 0.08 0.08 0.18 0.23 0.25 0.30 0.35 0.31 0.28 0.24 0.19 0.16 0.23 0.30 0.29 0.28 0.16 0.15 0.10 0.13 0.07 0.05 0.03 0.01 0.01 0.01 0.01 0.02 0.03 0.03 0.03 0.02
0.00 0.00 0.00 0.00 0.00 0.00 0.00 0.03 0.09 0.07 0.05 0.05 0.08 0.11 0.14 0.20 0.22 0.28 0.26 0.26 0.19 0.21 0.30 0.24 0.21 0.22 0.23 0.25 0.18 0.19 0.16 0.12 0.09 0.06 0.04 0.05 0.06 0.06 0.05 0.04 0.02 0.01 0.01
0.00 0.00 0.00 0.00 0.00 0.00 0.00 0.00 0.03 0.05 0.04 0.03 0.05 0.12 0.12 0.16 0.16 0.18 0.19 0.16 0.20 0.18 0.18 0.24 0.35 0.35 0.32 0.34 0.28 0.26 0.28 0.28 0.23 0.19 0.14 0.10 0.11 0.11 0.08 0.05 0.03 0.02 0.03

GFSSE_prec_precacc_081.txt.gz
Total_Precipitation_Accumulation
0.00 0.03 0.11 0.09 0.09 0.11 0.08 0.10 0.09 0.08 0.09 0.08 0.07 0.08 0.10 0.10 0.03 0.02 0.04 0.05 0.07 0.06 0.07 0.17 0.27 0.32 0.37 0.27 0.09 0.01 0.01 0.00 0.00 0.00 0.00 0.00 0.01 0.00 0.01 0.00 0.00 0.00 0.01
0.00 0.02 0.07 0.08 0.10 0.10 0.12 0.11 0.08 0.06 0.08 0.06 0.06 0.07 0.06 0.04 0.02 0.02 0.02 0.02 0.04 0.07 0.13 0.25 0.31 0.24 0.14 0.04 0.00 0.00 0.00 0.00 0.00 0.00 0.00 0.00 0.01 0.02 0.00 0.00 0.00 0.00 0.02
0.00 0.02 0.02 0.07 0.12 0.12 0.10 0.07 0.04 0.06 0.06 0.04 0.06 0.10 0.03 0.01 0.00 0.01 0.02 0.04 0.07 0.15 0.31 0.30 0.10 0.01 0.00 0.00 0.00 0.00 0.00 0.00 0.00 0.00 0.00 0.00 0.00 0.04 0.04 0.02 0.02 0.01 0.00
0.00 0.00 0.02 0.06 0.10 0.08 0.07 0.04 0.04 0.05 0.03 0.02 0.07 0.04 0.01 0.01 0.01 0.01 0.03 0.07 0.11 0.20 0.16 0.03 0.00 0.00 0.00 0.00 0.00 0.00 0.00 0.00 0.00 0.00 0.00 0.00 0.00 0.03 0.05 0.06 0.05 0.05 0.05
0.00 0.00 0.03 0.08 0.09 0.05 0.05 0.04 0.04 0.03 0.02 0.03 0.03 0.02 0.03 0.06 0.07 0.06 0.06 0.05 0.03 0.02 0.00 0.00 0.00 0.00 0.00 0.00 0.00 0.00 0.00 0.00 0.00 0.00 0.00 0.02 0.05 0.15 0.14 0.13 0.14 0.17 0.21
0.00 0.00 0.03 0.09 0.06 0.04 0.05 0.07 0.04 0.03 0.03 0.02 0.01 0.01 0.04 0.08 0.11 0.11 0.03 0.00 0.00 0.00 0.00 0.00 0.00 0.00 0.00 0.00 0.00 0.00 0.00 0.00 0.00 0.01 0.01 0.05 0.09 0.21 0.16 0.13 0.22 0.27 0.27
0.00 0.00 0.03 0.09 0.05 0.03 0.06 0.05 0.03 0.04 0.02 0.01 0.01 0.03 0.06 0.08 0.13 0.14 0.03 0.00 0.00 0.00 0.00 0.00 0.00 0.00 0.00 0.00 0.00 0.00 0.00 0.00 0.00 0.00 0.00 0.01 0.04 0.08 0.07 0.05 0.04 0.08 0.12
0.00 0.00 0.03 0.09 0.06 0.05 0.04 0.04 0.04 0.04 0.03 0.01 0.01 0.05 0.05 0.07 0.10 0.13 0.05 0.00 0.00 0.00 0.00 0.00 0.00 0.00 0.01 0.01 0.00 0.00 0.00 0.00 0.00 0.00 0.00 0.01 0.03 0.02 0.03 0.04 0.04 0.06 0.06
0.00 0.00 0.03 0.04 0.04 0.03 0.03 0.03 0.04 0.03 0.03 0.01 0.01 0.02 0.04 0.06 0.06 0.08 0.02 0.00 0.00 0.00 0.01 0.00 0.00 0.00 0.01 0.02 0.02 0.02 0.01 0.00 0.00 0.00 0.00 0.01 0.02 0.01 0.02 0.04 0.05 0.06 0.08
0.00 0.02 0.02 0.02 0.02 0.02 0.01 0.01 0.02 0.03 0.01 0.01 0.00 0.00 0.00 0.00 0.01 0.02 0.00 0.00 0.00 0.01 0.01 0.01 0.01 0.03 0.03 0.02 0.02 0.01 0.01 0.00 0.00 0.00 0.00 0.00 0.01 0.02 0.04 0.05 0.05 0.07 0.11
0.05 0.06 0.05 0.03 0.01 0.01 0.00 0.00 0.00 0.02 0.01 0.00 0.00 0.00 0.00 0.00 0.00 0.00 0.00 0.00 0.00 0.02 0.02 0.02 0.01 0.03 0.02 0.01 0.01 0.00 0.00 0.00 0.00 0.00 0.00 0.00 0.01 0.02 0.04 0.04 0.06 0.06 0.07
0.10 0.10 0.06 0.03 0.01 0.01 0.00 0.00 0.00 0.00 0.00 0.00 0.00 0.00 0.00 0.00 0.00 0.00 0.00 0.00 0.00 0.03 0.02 0.03 0.01 0.01 0.01 0.00 0.00 0.00 0.00 0.00 0.00 0.00 0.00 0.00 0.00 0.02 0.02 0.03 0.04 0.02 0.02
0.15 0.10 0.05 0.02 0.01 0.01 0.00 0.00 0.00 0.00 0.00 0.00 0.00 0.00 0.00 0.00 0.00 0.00 0.00 0.00 0.00 0.01 0.00 0.01 0.00 0.00 0.00 0.00 0.00 0.00 0.00 0.00 0.00 0.00 0.00 0.00 0.00 0.01 0.02 0.02 0.02 0.02 0.02
0.07 0.09 0.07 0.04 0.02 0.01 0.01 0.00 0.00 0.00 0.00 0.00 0.00 0.00 0.00 0.00 0.00 0.00 0.00 0.00 0.00 0.00 0.00 0.00 0.00 0.00 0.00 0.00 0.00 0.00 0.00 0.00 0.00 0.00 0.00 0.00 0.00 0.00 0.00 0.01 0.02 0.01 0.02
0.13 0.09 0.09 0.05 0.03 0.04 0.03 0.02 0.00 0.00 0.00 0.00 0.00 0.00 0.00 0.00 0.00 0.00 0.00 0.00 0.00 0.00 0.00 0.00 0.00 0.00 0.00 0.00 0.00 0.00 0.00 0.00 0.00 0.00 0.00 0.00 0.00 0.00 0.00 0.00 0.01 0.01 0.02
0.12 0.10 0.25 0.16 0.07 0.02 0.04 0.03 0.03 0.00 0.00 0.00 0.00 0.00 0.00 0.00 0.00 0.00 0.00 0.00 0.00 0.00 0.00 0.00 0.00 0.00 0.00 0.00 0.00 0.00 0.00 0.00 0.00 0.00 0.00 0.00 0.00 0.00 0.00 0.00 0.01 0.01 0.02
0.34 0.31 0.17 0.15 0.15 0.05 0.03 0.06 0.05 0.08 0.03 0.01 0.00 0.00 0.00 0.00 0.00 0.00 0.00 0.00 0.00 0.00 0.00 0.00 0.00 0.00 0.00 0.00 0.00 0.00 0.00 0.00 0.00 0.00 0.00 0.00 0.00 0.00 0.00 0.00 0.01 0.02 0.02
0.17 0.16 0.21 0.17 0.17 0.09 0.06 0.09 0.15 0.16 0.09 0.10 0.06 0.01 0.00 0.00 0.00 0.00 0.00 0.00 0.00 0.00 0.00 0.00 0.00 0.00 0.00 0.00 0.00 0.00 0.00 0.00 0.00 0.00 0.00 0.00 0.00 0.00 0.00 0.00 0.01 0.01 0.01
0.08 0.24 0.33 0.21 0.09 0.10 0.12 0.16 0.27 0.26 0.11 0.09 0.07 0.02 0.01 0.01 0.02 0.01 0.00 0.00 0.00 0.00 0.00 0.00 0.00 0.00 0.00 0.00 0.00 0.00 0.00 0.00 0.00 0.00 0.00 0.00 0.00 0.00 0.00 0.00 0.00 0.00 0.01
0.14 0.11 0.11 0.18 0.08 0.07 0.14 0.33 0.30 0.24 0.11 0.10 0.03 0.03 0.12 0.07 0.07 0.07 0.03 0.02 0.01 0.00 0.00 0.00 0.00 0.00 0.00 0.01 0.00 0.00 0.00 0.00 0.00 0.00 0.00 0.00 0.01 0.01 0.00 0.01 0.00 0.00 0.02
0.11 0.14 0.07 0.04 0.17 0.10 0.05 0.11 0.26 0.21 0.21 0.25 0.21 0.27 0.18 0.24 0.26 0.21 0.09 0.07 0.08 0.04 0.04 0.03 0.03 0.01 0.01 0.06 0.04 0.01 0.00 0.00 0.00 0.00 0.00 0.01 0.01 0.02 0.01 0.01 0.01 0.02 0.05
0.01 0.10 0.17 0.18 0.24 0.24 0.21 0.15 0.21 0.31 0.27 0.29 0.30 0.15 0.16 0.24 0.34 0.27 0.20 0.17 0.12 0.08 0.06 0.05 0.06 0.09 0.08 0.15 0.16 0.09 0.02 0.00 0.00 0.00 0.00 0.00 0.00 0.00 0.01 0.01 0.02 0.03 0.04
0.00 0.01 0.02 0.13 0.11 0.11 0.20 0.19 0.25 0.37 0.41 0.36 0.22 0.12 0.09 0.30 0.37 0.35 0.22 0.18 0.24 0.20 0.16 0.11 0.16 0.19 0.18 0.15 0.14 0.19 0.06 0.01 0.00 0.00 0.00 0.00 0.00 0.00 0.00 0.02 0.02 0.02 0.01
0.00 0.00 0.00 0.01 0.05 0.11 0.06 0.16 0.21 0.15 0.15 0.10 0.09 0.18 0.23 0.25 0.30 0.35 0.31 0.28 0.24 0.19 0.16 0.23 0.30 0.29 0.28 0.16 0.15 0.11 0.14 0.09 0.07 0.03 0.01 0.01 0.01 0.01 0.02 0.03 0.03 0.03 0.02
0.00 0.00 0.00 0.00 0.01 0.06 0.04 0.06 0.13 0.08 0.05 0.05 0.08 0.11 0.14 0.20 0.22 0.28 0.26 0.26 0.19 0.21 0.30 0.24 0.21 0.22 0.23 0.25 0.18 0.19 0.17 0.13 0.10 0.08 0.05 0.05 0.06 0.06 0.05 0.04 0.02 0.01 0.01
0.00 0.00 0.00 0.00 0.00 0.01 0.02 0.01 0.05 0.05 0.04 0.03 0.05 0.12 0.12 0.16 0.16 0.18 0.19 0.16 0.20 0.18 0.18 0.24 0.35 0.35 0.32 0.34 0.29 0.26 0.29 0.29 0.24 0.20 0.16 0.11 0.12 0.11 0.08 0.05 0.03 0.02 0.03

GFSSE_prec_precacc_087.txt.gz
Total_Precipitation_Accumulation
0.00 0.03 0.12 0.10 0.10 0.11 0.09 0.11 0.09 0.08 0.10 0.08 0.09 0.09 0.11 0.15 0.13 0.16 0.11 0.07 0.08 0.06 0.07 0.17 0.27 0.32 0.37 0.27 0.09 0.01 0.01 0.00 0.00 0.00 0.00 0.01 0.01 0.01 0.01 0.00 0.00 0.00 0.01
0.00 0.02 0.08 0.09 0.10 0.12 0.14 0.12 0.09 0.06 0.09 0.07 0.07 0.09 0.10 0.10 0.09 0.06 0.03 0.03 0.04 0.07 0.13 0.25 0.31 0.24 0.14 0.04 0.00 0.00 0.00 0.00 0.00 0.00 0.00 0.00 0.02 0.04 0.02 0.01 0.00 0.00 0.02
0.00 0.02 0.03 0.07 0.13 0.14 0.10 0.07 0.04 0.06 0.06 0.04 0.06 0.10 0.05 0.03 0.02 0.02 0.03 0.04 0.07 0.16 0.31 0.30 0.10 0.01 0.00 0.00 0.00 0.00 0.00 0.00 0.00 0.00 0.00 0.00 0.01 0.05 0.07 0.05 0.04 0.03 0.03
0.00 0.01 0.02 0.07 0.12 0.09 0.07 0.04 0.04 0.05 0.03 0.02 0.07 0.04 0.01 0.01 0.01 0.01 0.03 0.08 0.11 0.20 0.16 0.03 0.00 0.00 0.00 0.00 0.00 0.00 0.00 0.00 0.00 0.00 0.00 0.00 0.00 0.03 0.05 0.08 0.07 0.06 0.06
0.00 0.01 0.03 0.10 0.11 0.06 0.05 0.04 0.04 0.04 0.03 0.04 0.03 0.02 0.03 0.06 0.07 0.06 0.06 0.05 0.03 0.02 0.00 0.00 0.00 0.00 0.00 0.00 0.00 0.00 0.00 0.00 0.00 0.00 0.00 0.02 0.05 0.15 0.14 0.13 0.14 0.17 0.21
0.01 0.01 0.05 0.12 0.07 0.04 0.06 0.07 0.04 0.04 0.03 0.02 0.01 0.01 0.04 0.08 0.11 0.11 0.03 0.00 0.00 0.00 0.00 0.00 0.00 0.00 0.00 0.00 0.00 0.00 0.00 0.00 0.00 0.01 0.01 0.05 0.09 0.21 0.16 0.13 0.22 0.27 0.27
0.00 0.02 0.05 0.12 0.06 0.03 0.06 0.05 0.04 0.05 0.03 0.02 0.02 0.03 0.06 0.08 0.13 0.14 0.03 0.00 0.00 0.00 0.00 0.00 0.00 0.00 0.00 0.00 0.00 0.00 0.00 0.00 0.00 0.00 0.00 0.01 0.04 0.08 0.07 0.05 0.04 0.08 0.12
0.01 0.03 0.07 0.11 0.07 0.06 0.04 0.04 0.04 0.05 0.04 0.02 0.02 0.05 0.05 0.07 0.10 0.13 0.05 0.00 0.00 0.00 0.00 0.00 0.00 0.00 0.01 0.01 0.00 0.00 0.00 0.00 0.00 0.00 0.00 0.01 0.03 0.02 0.03 0.04 0.04 0.06 0.06
0.02 0.03 0.07 0.05 0.06 0.04 0.03 0.03 0.04 0.04 0.04 0.02 0.02 0.02 0.04 0.06 0.06 0.08 0.02 0.00 0.00 0.00 0.01 0.00 0.00 0.00 0.01 0.02 0.02 0.02 0.01 0.00 0.00 0.00 0.00 0.01 0.02 0.01 0.02 0.04 0.05 0.06 0.08
0.02 0.02 0.03 0.02 0.03 0.02 0.01 0.01 0.02 0.03 0.02 0.02 0.01 0.01 0.00 0.00 0.01 0.02 0.00 0.00 0.00 0.01 0.01 0.01 0.01 0.03 0.03 0.02 0.02 0.01 0.01 0.00 0.00 0.00 0.00 0.00 0.01 0.02 0.04 0.05 0.05 0.07 0.11
0.08 0.07 0.05 0.04 0.01 0.01 0.00 0.00 0.00 0.02 0.01 0.01 0.00 0.00 0.00 0.00 0.00 0.00 0.00 0.00 0.00 0.02 0.02 0.02 0.01 0.03 0.02 0.01 0.01 0.00 0.00 0.00 0.00 0.00 0.00 0.00 0.01 0.02 0.04 0.04 0.06 0.06 0.07
0.16 0.11 0.06 0.03 0.01 0.01 0.00 0.00 0.00 0.00 0.00 0.00 0.00 0.00 0.00 0.00 0.00 0.00 0.00 0.00 0.00 0.03 0.02 0.03 0.01 0.01 0.01 0.00 0.00 0.00 0.00 0.00 0.00 0.00 0.00 0.00 0.00 0.02 0.02 0.03 0.04 0.02 0.02
0.61 0.29 0.09 0.02 0.01 0.01 0.00 0.00 0.00 0.00 0.00 0.00 0.00 0.00 0.00 0.00 0.00 0.00 0.00 0.00 0.00 0.01 0.00 0.01 0.00 0.00 0.00 0.00 0.00 0.00 0.00 0.00 0.00 0.00 0.00 0.00 0.00 0.01 0.02 0.02 0.02 0.02 0.02
1.50 0.71 0.44 0.14 0.02 0.01 0.01 0.00 0.00 0.00 0.00 0.00 0.00 0.00 0.00 0.00 0.00 0.00 0.00 0.00 0.00 0.00 0.00 0.00 0.00 0.00 0.00 0.00 0.00 0.00 0.00 0.00 0.00 0.00 0.00 0.00 0.00 0.00 0.00 0.01 0.02 0.01 0.02
2.47 1.89 0.74 0.38 0.13 0.04 0.03 0.02 0.00 0.00 0.00 0.00 0.00 0.00 0.00 0.00 0.00 0.00 0.00 0.00 0.00 0.00 0.00 0.00 0.00 0.00 0.00 0.00 0.00 0.00 0.00 0.00 0.00 0.00 0.00 0.00 0.00 0.00 0.00 0.00 0.01 0.01 0.03
0.58 1.29 1.27 0.67 0.32 0.08 0.04 0.03 0.03 0.00 0.00 0.00 0.00 0.00 0.00 0.00 0.00 0.00 0.00 0.00 0.00 0.00 0.00 0.00 0.00 0.00 0.00 0.00 0.00 0.00 0.00 0.00 0.00 0.00 0.00 0.00 0.00 0.00 0.00 0.00 0.01 0.02 0.02
0.41 0.46 0.63 0.71 0.68 0.28 0.11 0.06 0.05 0.08 0.03 0.01 0.00 0.00 0.00 0.00 0.00 0.00 0.00 0.00 0.00 0.00 0.00 0.00 0.00 0.00 0.00 0.00 0.00 0.00 0.00 0.00 0.00 0.00 0.00 0.00 0.00 0.00 0.00 0.00 0.01 0.04 0.07
0.28 0.21 0.31 0.42 0.71 0.66 0.42 0.24 0.17 0.16 0.09 0.10 0.07 0.01 0.00 0.00 0.00 0.00 0.00 0.00 0.00 0.00 0.00 0.00 0.00 0.00 0.00 0.00 0.00 0.00 0.00 0.00 0.00 0.00 0.00 0.00 0.00 0.00 0.00 0.00 0.02 0.04 0.03
0.20 0.34 0.43 0.34 0.29 0.44 0.61 0.50 0.48 0.36 0.13 0.10 0.09 0.02 0.01 0.01 0.02 0.01 0.00 0.00 0.00 0.00 0.00 0.00 0.00 0.00 0.00 0.00 0.00 0.00 0.00 0.00 0.00 0.00 0.00 0.00 0.00 0.00 0.00 0.00 0.00 0.00 0.01
0.32 0.26 0.24 0.28 0.19 0.19 0.39 0.69 0.57 0.44 0.24 0.12 0.04 0.03 0.12 0.07 0.07 0.07 0.03 0.02 0.01 0.00 0.00 0.00 0.00 0.00 0.00 0.01 0.01 0.00 0.00 0.00 0.00 0.00 0.00 0.00 0.01 0.01 0.00 0.01 0.00 0.00 0.02
0.32 0.30 0.17 0.12 0.26 0.29 0.25 0.33 0.49 0.41 0.48 0.46 0.39 0.39 0.20 0.24 0.26 0.21 0.09 0.07 0.08 0.04 0.04 0.03 0.03 0.02 0.02 0.06 0.04 0.01 0.00 0.00 0.00 0.00 0.00 0.01 0.01 0.02 0.01 0.01 0.01 0.02 0.05
0.11 0.23 0.35 0.33 0.42 0.33 0.32 0.30 0.34 0.52 0.62 0.78 0.75 0.47 0.49 0.40 0.37 0.29 0.20 0.17 0.12 0.08 0.06 0.05 0.06 0.09 0.08 0.15 0.16 0.09 0.02 0.00 0.00 0.00 0.00 0.00 0.00 0.00 0.01 0.01 0.02 0.03 0.04
0.01 0.08 0.13 0.30 0.19 0.17 0.29 0.32 0.35 0.50 0.54 0.49 0.31 0.17 0.24 0.55 0.68 0.57 0.38 0.29 0.31 0.22 0.16 0.11 0.16 0.19 0.18 0.15 0.14 0.20 0.07 0.01 0.00 0.00 0.00 0.00 0.00 0.00 0.00 0.02 0.02 0.02 0.01
0.00 0.01 0.07 0.06 0.09 0.18 0.23 0.33 0.33 0.30 0.32 0.28 0.32 0.33 0.43 0.42 0.48 0.47 0.40 0.36 0.29 0.20 0.16 0.23 0.30 0.29 0.28 0.16 0.15 0.11 0.14 0.10 0.07 0.04 0.01 0.01 0.01 0.01 0.02 0.03 0.03 0.03 0.02
0.00 0.00 0.00 0.09 0.14 0.30 0.19 0.21 0.38 0.36 0.24 0.20 0.18 0.20 0.26 0.35 0.35 0.39 0.34 0.31 0.23 0.22 0.30 0.24 0.21 0.22 0.23 0.25 0.18 0.19 0.17 0.13 0.10 0.09 0.05 0.05 0.06 0.06 0.05 0.04 0.02 0.01 0.01
0.00 0.00 0.00 0.01 0.05 0.14 0.21 0.23 0.31 0.25 0.22 0.16 0.18 0.25 0.24 0.28 0.27 0.24 0.23 0.17 0.21 0.18 0.18 0.24 0.35 0.35 0.32 0.34 0.29 0.26 0.29 0.29 0.24 0.20 0.16 0.11 0.12 0.11 0.08 0.05 0.03 0.02 0.03

GFSSE_prec_precacc_090.txt.gz
Total_Precipitation_Accumulation
0.00 0.03 0.13 0.11 0.10 0.11 0.09 0.11 0.09 0.08 0.11 0.10 0.10 0.10 0.12 0.15 0.13 0.16 0.11 0.07 0.08 0.06 0.07 0.17 0.27 0.32 0.37 0.27 0.09 0.02 0.01 0.00 0.00 0.00 0.01 0.02 0.03 0.01 0.01 0.00 0.00 0.00 0.01
0.00 0.02 0.09 0.09 0.11 0.13 0.15 0.12 0.09 0.07 0.10 0.09 0.09 0.11 0.11 0.12 0.12 0.07 0.03 0.03 0.04 0.07 0.13 0.25 0.31 0.24 0.15 0.04 0.01 0.00 0.00 0.00 0.00 0.00 0.00 0.00 0.04 0.05 0.02 0.01 0.02 0.02 0.02
0.00 0.02 0.04 0.08 0.14 0.15 0.11 0.07 0.04 0.06 0.07 0.06 0.11 0.16 0.11 0.09 0.06 0.02 0.03 0.04 0.07 0.16 0.31 0.30 0.10 0.01 0.00 0.00 0.00 0.00 0.00 0.00 0.00 0.00 0.00 0.00 0.01 0.06 0.08 0.06 0.04 0.05 0.04
0.00 0.01 0.02 0.07 0.13 0.09 0.07 0.05 0.04 0.05 0.03 0.03 0.11 0.09 0.07 0.06 0.01 0.01 0.03 0.08 0.11 0.20 0.16 0.03 0.00 0.00 0.00 0.00 0.00 0.00 0.00 0.00 0.00 0.00 0.00 0.00 0.00 0.03 0.05 0.08 0.07 0.06 0.07
0.00 0.01 0.04 0.10 0.12 0.06 0.05 0.04 0.04 0.04 0.03 0.04 0.03 0.03 0.05 0.06 0.07 0.06 0.06 0.05 0.03 0.02 0.00 0.00 0.00 0.00 0.00 0.00 0.00 0.00 0.00 0.00 0.00 0.00 0.00 0.02 0.05 0.15 0.14 0.13 0.14 0.17 0.22
0.01 0.01 0.06 0.14 0.08 0.04 0.06 0.07 0.04 0.04 0.03 0.02 0.01 0.01 0.04 0.08 0.11 0.11 0.03 0.00 0.00 0.00 0.00 0.00 0.00 0.00 0.00 0.00 0.00 0.00 0.00 0.00 0.00 0.01 0.01 0.05 0.09 0.21 0.16 0.13 0.22 0.27 0.27
0.01 0.03 0.07 0.13 0.07 0.03 0.07 0.06 0.06 0.05 0.03 0.02 0.02 0.03 0.06 0.08 0.13 0.14 0.03 0.00 0.00 0.00 0.00 0.00 0.00 0.00 0.00 0.00 0.00 0.00 0.00 0.00 0.00 0.00 0.00 0.01 0.04 0.08 0.07 0.05 0.04 0.08 0.12
0.01 0.05 0.10 0.12 0.07 0.06 0.05 0.05 0.06 0.06 0.04 0.02 0.02 0.05 0.06 0.07 0.10 0.13 0.05 0.00 0.00 0.00 0.00 0.00 0.00 0.00 0.01 0.01 0.00 0.00 0.00 0.00 0.00 0.00 0.00 0.01 0.03 0.02 0.03 0.04 0.04 0.06 0.06
0.03 0.05 0.10 0.06 0.06 0.04 0.03 0.04 0.06 0.06 0.05 0.02 0.02 0.02 0.05 0.06 0.06 0.08 0.02 0.00 0.00 0.00 0.01 0.00 0.00 0.00 0.01 0.02 0.02 0.02 0.01 0.00 0.00 0.00 0.00 0.01 0.02 0.01 0.02 0.04 0.05 0.06 0.08
0.09 0.06 0.04 0.02 0.03 0.02 0.01 0.01 0.03 0.05 0.03 0.02 0.01 0.01 0.00 0.00 0.01 0.02 0.00 0.00 0.00 0.01 0.01 0.01 0.01 0.03 0.03 0.02 0.02 0.01 0.01 0.00 0.00 0.00 0.00 0.00 0.01 0.02 0.04 0.05 0.05 0.07 0.11
0.17 0.15 0.08 0.04 0.01 0.01 0.00 0.00 0.01 0.03 0.02 0.01 0.00 0.00 0.00 0.00 0.00 0.00 0.00 0.00 0.00 0.02 0.02 0.02 0.01 0.03 0.02 0.01 0.01 0.00 0.00 0.00 0.00 0.00 0.00 0.00 0.01 0.02 0.04 0.04 0.06 0.06 0.07
0.18 0.13 0.08 0.04 0.01 0.01 0.00 0.00 0.00 0.01 0.01 0.01 0.00 0.00 0.00 0.00 0.00 0.00 0.00 0.00 0.00 0.03 0.02 0.03 0.01 0.01 0.01 0.00 0.00 0.00 0.00 0.00 0.00 0.00 0.00 0.00 0.00 0.02 0.02 0.03 0.04 0.02 0.02
0.65 0.38 0.20 0.07 0.02 0.01 0.00 0.00 0.00 0.00 0.00 0.00 0.00 0.00 0.00 0.00 0.00 0.00 0.00 0.00 0.00 0.01 0.00 0.01 0.00 0.00 0.00 0.00 0.00 0.00 0.00 0.00 0.00 0.00 0.00 0.00 0.00 0.01 0.02 0.02 0.02 0.02 0.02
1.59 0.89 0.63 0.22 0.03 0.01 0.01 0.00 0.00 0.00 0.00 0.00 0.00 0.00 0.00 0.00 0.00 0.00 0.00 0.00 0.00 0.00 0.00 0.00 0.00 0.00 0.00 0.00 0.00 0.00 0.00 0.00 0.00 0.00 0.00 0.00 0.00 0.00 0.00 0.01 0.02 0.01 0.02
2.59 1.96 0.89 0.56 0.20 0.06 0.03 0.02 0.00 0.00 0.00 0.00 0.00 0.00 0.00 0.00 0.00 0.00 0.00 0.00 0.00 0.00 0.00 0.00 0.00 0.00 0.00 0.00 0.00 0.00 0.00 0.00 0.00 0.00 0.00 0.00 0.00 0.00 0.00 0.00 0.01 0.01 0.03
0.59 1.32 1.40 0.87 0.42 0.15 0.06 0.03 0.03 0.00 0.00 0.00 0.00 0.00 0.00 0.00 0.00 0.00 0.00 0.00 0.00 0.00 0.00 0.00 0.00 0.00 0.00 0.00 0.00 0.00 0.00 0.00 0.00 0.00 0.00 0.00 0.00 0.00 0.00 0.00 0.01 0.04 0.05
0.42 0.46 0.66 0.80 0.76 0.34 0.19 0.09 0.05 0.08 0.03 0.01 0.00 0.00 0.00 0.00 0.00 0.00 0.00 0.00 0.00 0.00 0.00 0.00 0.00 0.00 0.00 0.00 0.00 0.00 0.00 0.00 0.00 0.00 0.00 0.00 0.00 0.00 0.00 0.00 0.01 0.05 0.10
0.31 0.22 0.31 0.43 0.74 0.72 0.57 0.32 0.25 0.20 0.11 0.11 0.07 0.01 0.00 0.00 0.00 0.00 0.00 0.00 0.00 0.00 0.00 0.00 0.00 0.00 0.00 0.00 0.00 0.00 0.00 0.00 0.00 0.00 0.00 0.00 0.00 0.00 0.00 0.00 0.02 0.05 0.03
0.24 0.34 0.43 0.34 0.30 0.46 0.66 0.63 0.63 0.46 0.23 0.18 0.14 0.03 0.01 0.01 0.02 0.01 0.00 0.00 0.00 0.00 0.00 0.00 0.00 0.00 0.00 0.00 0.00 0.00 0.00 0.00 0.00 0.00 0.00 0.00 0.00 0.00 0.00 0.00 0.00 0.00 0.01
0.35 0.29 0.26 0.29 0.19 0.20 0.43 0.75 0.65 0.52 0.45 0.28 0.11 0.04 0.12 0.07 0.07 0.07 0.03 0.02 0.01 0.00 0.00 0.00 0.00 0.00 0.00 0.01 0.01 0.00 0.00 0.00 0.00 0.00 0.00 0.00 0.01 0.01 0.00 0.01 0.00 0.00 0.02
0.37 0.34 0.21 0.16 0.29 0.31 0.34 0.46 0.61 0.46 0.55 0.57 0.49 0.45 0.22 0.24 0.26 0.21 0.09 0.07 0.08 0.04 0.04 0.03 0.03 0.02 0.02 0.06 0.05 0.01 0.00 0.00 0.00 0.00 0.00 0.01 0.01 0.02 0.01 0.01 0.01 0.02 0.05
0.26 0.34 0.45 0.38 0.57 0.39 0.36 0.33 0.38 0.61 0.67 0.84 0.88 0.69 0.76 0.61 0.55 0.40 0.23 0.19 0.14 0.08 0.06 0.05 0.06 0.09 0.08 0.15 0.16 0.09 0.02 0.00 0.00 0.00 0.00 0.00 0.00 0.00 0.01 0.01 0.02 0.03 0.04
0.14 0.18 0.22 0.38 0.35 0.19 0.29 0.49 0.57 0.65 0.58 0.54 0.37 0.23 0.33 0.62 0.76 0.74 0.58 0.53 0.53 0.35 0.20 0.11 0.16 0.19 0.18 0.15 0.14 0.20 0.07 0.01 0.00 0.00 0.00 0.00 0.00 0.00 0.00 0.02 0.02 0.02 0.01
0.02 0.12 0.12 0.12 0.20 0.37 0.54 0.69 0.45 0.40 0.51 0.33 0.52 0.50 0.65 0.60 0.61 0.69 0.57 0.46 0.38 0.31 0.27 0.30 0.31 0.29 0.28 0.16 0.15 0.11 0.14 0.10 0.08 0.04 0.01 0.01 0.01 0.01 0.02 0.03 0.03 0.03 0.02
0.00 0.00 0.02 0.16 0.27 0.47 0.40 0.51 0.67 0.77 0.63 0.54 0.55 0.43 0.45 0.54 0.55 0.56 0.50 0.45 0.36 0.34 0.38 0.29 0.23 0.22 0.23 0.25 0.18 0.19 0.17 0.13 0.10 0.09 0.05 0.05 0.06 0.06 0.05 0.04 0.02 0.01 0.01
0.00 0.00 0.00 0.01 0.06 0.20 0.30 0.31 0.46 0.40 0.35 0.31 0.38 0.48 0.44 0.41 0.31 0.28 0.27 0.22 0.25 0.20 0.19 0.24 0.35 0.35 0.32 0.34 0.29 0.26 0.29 0.29 0.24 0.20 0.16 0.11 0.12 0.11 0.08 0.05 0.03 0.03 0.04

GFSSE_prec_precacc_096.txt.gz
Total_Precipitation_Accumulation
0.00 0.04 0.16 0.12 0.10 0.11 0.09 0.11 0.09 0.09 0.12 0.11 0.11 0.11 0.12 0.17 0.15 0.16 0.11 0.07 0.08 0.07 0.08 0.17 0.28 0.33 0.38 0.27 0.09 0.02 0.01 0.01 0.00 0.01 0.02 0.03 0.04 0.02 0.02 0.01 0.00 0.00 0.01
0.00 0.03 0.12 0.10 0.11 0.13 0.15 0.12 0.09 0.07 0.12 0.10 0.10 0.13 0.13 0.14 0.13 0.07 0.03 0.03 0.04 0.07 0.13 0.25 0.32 0.25 0.15 0.05 0.01 0.00 0.00 0.00 0.00 0.00 0.00 0.01 0.04 0.06 0.03 0.03 0.04 0.03 0.02
0.01 0.04 0.06 0.08 0.15 0.15 0.11 0.07 0.04 0.07 0.09 0.10 0.13 0.19 0.16 0.15 0.08 0.02 0.03 0.04 0.07 0.16 0.31 0.30 0.11 0.01 0.00 0.00 0.00 0.00 0.00 0.00 0.00 0.00 0.00 0.00 0.01 0.07 0.08 0.06 0.05 0.06 0.05
0.01 0.02 0.04 0.09 0.14 0.09 0.07 0.05 0.04 0.06 0.07 0.14 0.22 0.20 0.19 0.16 0.02 0.01 0.03 0.08 0.11 0.21 0.16 0.03 0.00 0.01 0.00 0.00 0.00 0.00 0.00 0.00 0.00 0.00 0.00 0.00 0.00 0.03 0.05 0.08 0.07 0.06 0.07
0.02 0.03 0.05 0.12 0.13 0.06 0.05 0.04 0.04 0.04 0.08 0.18 0.24 0.29 0.33 0.14 0.07 0.06 0.06 0.06 0.04 0.03 0.02 0.01 0.00 0.00 0.00 0.00 0.00 0.00 0.00 0.00 0.00 0.00 0.00 0.02 0.05 0.15 0.14 0.13 0.14 0.17 0.22
0.04 0.03 0.07 0.16 0.10 0.04 0.06 0.07 0.05 0.04 0.05 0.14 0.20 0.23 0.19 0.10 0.12 0.12 0.03 0.01 0.01 0.01 0.01 0.01 0.00 0.00 0.00 0.00 0.00 0.00 0.00 0.00 0.00 0.01 0.01 0.05 0.09 0.21 0.16 0.13 0.22 0.27 0.27
0.04 0.06 0.08 0.17 0.08 0.03 0.07 0.06 0.06 0.06 0.04 0.06 0.12 0.09 0.07 0.08 0.13 0.15 0.03 0.01 0.01 0.01 0.01 0.00 0.00 0.00 0.00 0.00 0.00 0.00 0.00 0.00 0.00 0.00 0.00 0.01 0.04 0.08 0.07 0.05 0.04 0.08 0.12
0.03 0.08 0.14 0.17 0.08 0.06 0.05 0.07 0.07 0.06 0.05 0.03 0.05 0.05 0.06 0.08 0.11 0.14 0.05 0.01 0.01 0.01 0.01 0.00 0.00 0.00 0.01 0.01 0.00 0.00 0.00 0.00 0.00 0.00 0.00 0.01 0.03 0.02 0.03 0.04 0.04 0.06 0.06
0.06 0.08 0.15 0.09 0.06 0.04 0.04 0.05 0.07 0.06 0.05 0.02 0.02 0.02 0.05 0.07 0.07 0.08 0.03 0.01 0.01 0.01 0.01 0.00 0.00 0.00 0.01 0.02 0.02 0.02 0.01 0.00 0.00 0.00 0.00 0.01 0.02 0.01 0.02 0.04 0.05 0.06 0.08
0.17 0.12 0.09 0.04 0.03 0.02 0.02 0.02 0.04 0.06 0.03 0.02 0.01 0.01 0.00 0.00 0.02 0.02 0.01 0.00 0.01 0.01 0.01 0.01 0.01 0.03 0.03 0.02 0.02 0.01 0.01 0.00 0.00 0.00 0.00 0.00 0.01 0.02 0.04 0.05 0.05 0.07 0.11
0.33 0.28 0.13 0.06 0.01 0.01 0.01 0.01 0.02 0.04 0.02 0.01 0.00 0.00 0.00 0.00 0.00 0.00 0.00 0.00 0.00 0.02 0.02 0.02 0.01 0.03 0.02 0.01 0.01 0.00 0.00 0.00 0.00 0.00 0.00 0.00 0.01 0.02 0.04 0.04 0.06 0.06 0.07
0.31 0.28 0.11 0.05 0.01 0.01 0.01 0.01 0.02 0.02 0.02 0.01 0.00 0.00 0.00 0.00 0.00 0.00 0.00 0.00 0.00 0.03 0.02 0.03 0.01 0.01 0.01 0.00 0.00 0.00 0.00 0.00 0.00 0.00 0.00 0.00 0.00 0.02 0.02 0.03 0.04 0.02 0.02
1.17 0.61 0.22 0.07 0.02 0.01 0.00 0.01 0.02 0.02 0.01 0.00 0.00 0.00 0.00 0.00 0.00 0.00 0.00 0.00 0.00 0.01 0.00 0.01 0.00 0.00 0.00 0.00 0.00 0.00 0.00 0.00 0.00 0.00 0.00 0.00 0.00 0.01 0.02 0.02 0.02 0.02 0.03
2.57 1.29 0.67 0.23 0.03 0.01 0.01 0.00 0.01 0.02 0.00 0.00 0.00 0.00 0.00 0.00 0.00 0.00 0.00 0.00 0.00 0.00 0.00 0.00 0.00 0.00 0.00 0.00 0.00 0.00 0.00 0.00 0.00 0.00 0.00 0.00 0.00 0.00 0.00 0.01 0.02 0.02 0.04
3.77 2.84 1.12 0.58 0.20 0.06 0.03 0.02 0.01 0.01 0.01 0.00 0.00 0.00 0.00 0.00 0.00 0.00 0.00 0.00 0.00 0.00 0.00 0.00 0.00 0.00 0.00 0.00 0.00 0.00 0.00 0.00 0.00 0.00 0.00 0.00 0.00 0.00 0.00 0.01 0.01 0.02 0.05
1.44 2.25 1.85 1.04 0.44 0.15 0.06 0.03 0.03 0.00 0.00 0.00 0.00 0.00 0.00 0.00 0.00 0.00 0.00 0.00 0.00 0.00 0.00 0.00 0.00 0.00 0.00 0.00 0.00 0.00 0.00 0.00 0.00 0.00 0.00 0.00 0.00 0.00 0.00 0.00 0.01 0.05 0.10
0.74 1.27 1.00 0.96 0.84 0.34 0.19 0.09 0.05 0.08 0.03 0.01 0.00 0.00 0.00 0.00 0.00 0.00 0.00 0.00 0.00 0.00 0.00 0.00 0.00 0.00 0.00 0.00 0.00 0.00 0.00 0.00 0.00 0.00 0.00 0.00 0.00 0.00 0.00 0.00 0.02 0.09 0.15
0.36 0.52 0.49 0.51 0.83 0.72 0.57 0.32 0.25 0.20 0.11 0.11 0.07 0.01 0.00 0.00 0.00 0.00 0.00 0.00 0.00 0.00 0.00 0.00 0.00 0.00 0.00 0.00 0.00 0.00 0.00 0.00 0.00 0.00 0.00 0.00 0.00 0.00 0.00 0.00 0.02 0.06 0.06
0.32 0.39 0.49 0.37 0.32 0.46 0.66 0.63 0.63 0.46 0.24 0.18 0.14 0.03 0.01 0.01 0.02 0.01 0.00 0.00 0.00 0.00 0.00 0.00 0.00 0.00 0.00 0.00 0.00 0.00 0.00 0.00 0.00 0.00 0.00 0.00 0.00 0.00 0.00 0.00 0.00 0.00 0.02
0.43 0.32 0.27 0.30 0.19 0.20 0.43 0.75 0.65 0.52 0.45 0.29 0.13 0.05 0.14 0.07 0.07 0.07 0.03 0.02 0.01 0.00 0.00 0.00 0.00 0.00 0.00 0.01 0.01 0.00 0.00 0.00 0.00 0.00 0.00 0.00 0.01 0.01 0.00 0.01 0.00 0.00 0.02
0.48 0.35 0.23 0.18 0.29 0.31 0.35 0.46 0.62 0.46 0.55 0.57 0.53 0.52 0.26 0.26 0.27 0.22 0.10 0.07 0.08 0.04 0.04 0.03 0.03 0.02 0.02 0.06 0.05 0.01 0.00 0.00 0.00 0.00 0.00 0.01 0.01 0.02 0.01 0.01 0.01 0.02 0.05
0.47 0.44 0.49 0.40 0.58 0.39 0.36 0.33 0.38 0.62 0.69 0.85 0.91 0.78 0.92 0.77 0.72 0.58 0.34 0.22 0.15 0.11 0.08 0.07 0.09 0.13 0.09 0.15 0.17 0.10 0.02 0.00 0.00 0.00 0.00 0.00 0.00 0.00 0.01 0.01 0.02 0.03 0.04
0.55 0.35 0.33 0.47 0.40 0.20 0.30 0.50 0.64 0.74 0.62 0.57 0.41 0.31 0.41 0.85 0.98 1.04 0.93 0.90 0.82 0.62 0.44 0.31 0.26 0.23 0.25 0.18 0.15 0.21 0.07 0.01 0.00 0.00 0.00 0.00 0.00 0.00 0.00 0.02 0.02 0.02 0.01
0.23 0.24 0.23 0.21 0.29 0.46 0.71 0.88 0.67 0.61 0.66 0.45 0.66 0.67 0.83 0.82 0.83 1.02 1.09 0.98 1.00 0.73 0.48 0.45 0.43 0.37 0.33 0.19 0.15 0.11 0.14 0.10 0.08 0.04 0.01 0.01 0.01 0.01 0.02 0.03 0.03 0.03 0.02
0.16 0.07 0.10 0.25 0.42 0.63 0.63 0.86 1.17 1.41 1.03 0.88 0.96 0.88 0.88 1.05 1.17 1.20 1.20 1.23 1.12 1.10 0.90 0.56 0.40 0.30 0.24 0.25 0.18 0.19 0.17 0.13 0.10 0.09 0.05 0.05 0.06 0.06 0.05 0.04 0.02 0.01 0.01
0.05 0.07 0.04 0.02 0.12 0.29 0.39 0.47 0.75 0.72 0.76 0.60 0.63 0.80 0.84 0.95 1.04 1.21 1.20 1.10 1.04 0.68 0.47 0.42 0.43 0.39 0.34 0.34 0.29 0.26 0.29 0.29 0.24 0.20 0.16 0.11 0.12 0.11 0.08 0.05 0.03 0.03 0.04

GFSSE_prec_precacc_099.txt.gz
Total_Precipitation_Accumulation
0.00 0.04 0.18 0.13 0.10 0.11 0.09 0.11 0.09 0.09 0.12 0.12 0.11 0.11 0.12 0.21 0.20 0.16 0.11 0.07 0.10 0.08 0.08 0.19 0.29 0.33 0.38 0.28 0.10 0.02 0.01 0.01 0.00 0.01 0.02 0.04 0.05 0.03 0.02 0.01 0.00 0.00 0.01
0.00 0.03 0.12 0.10 0.11 0.13 0.15 0.12 0.09 0.07 0.12 0.10 0.11 0.13 0.13 0.17 0.14 0.07 0.03 0.03 0.05 0.07 0.14 0.26 0.32 0.25 0.15 0.05 0.01 0.00 0.00 0.00 0.00 0.00 0.00 0.01 0.04 0.06 0.04 0.03 0.04 0.03 0.03
0.01 0.04 0.06 0.09 0.15 0.15 0.11 0.07 0.04 0.07 0.09 0.10 0.14 0.20 0.17 0.19 0.08 0.02 0.03 0.04 0.07 0.16 0.32 0.31 0.11 0.01 0.00 0.00 0.00 0.00 0.00 0.00 0.00 0.00 0.00 0.00 0.01 0.07 0.08 0.06 0.05 0.06 0.06
0.01 0.03 0.04 0.09 0.14 0.09 0.07 0.05 0.04 0.06 0.08 0.14 0.22 0.21 0.22 0.22 0.02 0.01 0.03 0.08 0.11 0.22 0.17 0.04 0.00 0.01 0.00 0.00 0.00 0.00 0.00 0.00 0.00 0.00 0.00 0.00 0.00 0.03 0.05 0.08 0.07 0.06 0.07
0.04 0.04 0.06 0.12 0.13 0.06 0.06 0.04 0.05 0.04 0.08 0.19 0.25 0.33 0.39 0.20 0.07 0.06 0.06 0.06 0.04 0.03 0.02 0.02 0.00 0.00 0.00 0.00 0.00 0.00 0.00 0.00 0.00 0.00 0.00 0.02 0.05 0.15 0.14 0.13 0.14 0.17 0.22
0.07 0.07 0.08 0.16 0.10 0.04 0.06 0.07 0.05 0.05 0.06 0.16 0.24 0.31 0.27 0.13 0.12 0.12 0.04 0.01 0.01 0.02 0.02 0.01 0.00 0.00 0.00 0.00 0.00 0.00 0.00 0.00 0.00 0.01 0.01 0.05 0.09 0.21 0.16 0.13 0.22 0.27 0.27
0.06 0.10 0.09 0.18 0.08 0.03 0.07 0.06 0.07 0.07 0.06 0.10 0.18 0.15 0.11 0.08 0.13 0.15 0.04 0.01 0.02 0.02 0.01 0.00 0.00 0.00 0.00 0.00 0.00 0.00 0.00 0.00 0.00 0.00 0.00 0.01 0.04 0.08 0.07 0.05 0.04 0.08 0.12
0.07 0.15 0.16 0.19 0.09 0.06 0.05 0.07 0.08 0.08 0.07 0.09 0.11 0.11 0.07 0.08 0.11 0.14 0.06 0.02 0.02 0.02 0.01 0.00 0.00 0.00 0.01 0.01 0.00 0.00 0.00 0.00 0.00 0.00 0.00 0.01 0.03 0.02 0.03 0.04 0.04 0.06 0.06
0.11 0.15 0.18 0.12 0.08 0.04 0.04 0.05 0.09 0.07 0.08 0.06 0.05 0.05 0.06 0.07 0.07 0.09 0.03 0.02 0.02 0.02 0.02 0.00 0.00 0.00 0.01 0.02 0.02 0.02 0.01 0.00 0.00 0.00 0.00 0.01 0.02 0.01 0.02 0.04 0.05 0.06 0.08
0.57 0.25 0.15 0.09 0.05 0.02 0.02 0.02 0.05 0.07 0.04 0.04 0.02 0.01 0.00 0.00 0.02 0.03 0.02 0.01 0.02 0.02 0.01 0.01 0.01 0.03 0.03 0.02 0.02 0.01 0.01 0.00 0.00 0.00 0.00 0.00 0.01 0.02 0.04 0.05 0.05 0.07 0.11
1.32 0.74 0.25 0.11 0.03 0.01 0.01 0.01 0.02 0.05 0.03 0.02 0.00 0.00 0.00 0.00 0.00 0.00 0.00 0.00 0.01 0.03 0.02 0.02 0.01 0.03 0.02 0.01 0.01 0.00 0.00 0.00 0.00 0.00 0.00 0.00 0.01 0.02 0.04 0.04 0.06 0.06 0.07
1.62 1.02 0.56 0.12 0.01 0.01 0.01 0.02 0.02 0.02 0.02 0.01 0.00 0.00 0.00 0.00 0.00 0.00 0.00 0.00 0.00 0.03 0.02 0.03 0.01 0.01 0.01 0.00 0.00 0.00 0.00 0.00 0.00 0.00 0.00 0.00 0.00 0.02 0.02 0.03 0.04 0.02 0.02
2.18 1.24 0.71 0.24 0.03 0.01 0.01 0.02 0.02 0.02 0.01 0.00 0.00 0.00 0.00 0.00 0.00 0.00 0.00 0.00 0.00 0.01 0.00 0.01 0.00 0.00 0.00 0.00 0.00 0.00 0.00 0.00 0.00 0.00 0.00 0.00 0.00 0.01 0.02 0.02 0.02 0.02 0.04
3.42 1.76 1.02 0.58 0.06 0.02 0.03 0.02 0.02 0.02 0.00 0.00 0.00 0.00 0.00 0.00 0.00 0.00 0.00 0.00 0.00 0.00 0.00 0.00 0.00 0.00 0.00 0.00 0.00 0.00 0.00 0.00 0.00 0.00 0.00 0.00 0.00 0.00 0.00 0.01 0.02 0.02 0.05
4.13 3.61 1.92 1.05 0.26 0.06 0.07 0.07 0.04 0.02 0.01 0.00 0.00 0.00 0.00 0.00 0.00 0.00 0.00 0.00 0.00 0.00 0.00 0.00 0.00 0.00 0.00 0.00 0.00 0.00 0.00 0.00 0.00 0.00 0.00 0.00 0.00 0.00 0.00 0.01 0.02 0.04 0.06
1.61 3.05 3.53 1.76 0.47 0.15 0.08 0.06 0.07 0.02 0.01 0.00 0.00 0.00 0.00 0.00 0.00 0.00 0.00 0.00 0.00 0.00 0.00 0.00 0.00 0.00 0.00 0.00 0.00 0.00 0.00 0.00 0.00 0.00 0.00 0.00 0.00 0.00 0.00 0.00 0.02 0.07 0.14
0.77 1.59 2.21 1.63 0.94 0.35 0.19 0.10 0.07 0.10 0.03 0.01 0.00 0.00 0.00 0.00 0.00 0.00 0.00 0.00 0.00 0.00 0.00 0.00 0.00 0.00 0.00 0.00 0.00 0.00 0.00 0.00 0.00 0.00 0.00 0.00 0.00 0.00 0.00 0.00 0.02 0.09 0.19
0.37 0.67 1.02 0.74 1.08 0.79 0.57 0.32 0.25 0.20 0.12 0.11 0.07 0.01 0.00 0.00 0.00 0.00 0.00 0.00 0.00 0.00 0.00 0.00 0.00 0.00 0.00 0.00 0.00 0.00 0.00 0.00 0.00 0.00 0.00 0.00 0.00 0.00 0.00 0.00 0.02 0.06 0.06
0.32 0.41 0.58 0.48 0.40 0.62 0.73 0.64 0.63 0.46 0.24 0.18 0.14 0.03 0.01 0.01 0.02 0.01 0.00 0.00 0.00 0.00 0.00 0.00 0.00 0.00 0.00 0.00 0.00 0.00 0.00 0.00 0.00 0.00 0.00 0.00 0.00 0.00 0.00 0.00 0.00 0.00 0.02
0.43 0.32 0.28 0.36 0.26 0.28 0.51 0.79 0.65 0.52 0.45 0.29 0.13 0.05 0.14 0.07 0.07 0.07 0.03 0.02 0.01 0.00 0.00 0.00 0.00 0.00 0.00 0.01 0.01 0.00 0.00 0.00 0.00 0.00 0.00 0.00 0.01 0.01 0.00 0.01 0.00 0.00 0.02
0.50 0.36 0.24 0.19 0.34 0.35 0.42 0.51 0.62 0.46 0.55 0.57 0.53 0.52 0.26 0.26 0.27 0.22 0.10 0.07 0.08 0.04 0.04 0.03 0.03 0.02 0.02 0.06 0.05 0.01 0.00 0.00 0.00 0.00 0.00 0.01 0.01 0.02 0.01 0.01 0.01 0.02 0.05
0.50 0.45 0.50 0.44 0.60 0.46 0.49 0.57 0.50 0.65 0.71 0.88 0.91 0.78 0.92 0.77 0.72 0.58 0.34 0.24 0.16 0.11 0.08 0.07 0.10 0.16 0.13 0.17 0.18 0.10 0.02 0.00 0.00 0.00 0.00 0.00 0.00 0.00 0.01 0.01 0.02 0.03 0.04
0.62 0.44 0.38 0.52 0.45 0.27 0.42 0.61 0.79 0.86 0.67 0.58 0.43 0.32 0.41 0.86 0.99 1.04 0.93 0.92 0.84 0.64 0.50 0.37 0.31 0.31 0.34 0.26 0.18 0.21 0.07 0.01 0.00 0.00 0.00 0.00 0.00 0.00 0.00 0.02 0.02 0.02 0.01
0.62 0.56 0.39 0.32 0.36 0.50 0.81 0.95 0.73 0.70 0.77 0.50 0.69 0.70 0.83 0.82 0.83 1.02 1.09 0.99 1.07 1.02 0.82 0.68 0.56 0.44 0.37 0.23 0.17 0.11 0.14 0.10 0.08 0.04 0.01 0.01 0.01 0.01 0.02 0.03 0.03 0.03 0.02
0.70 0.43 0.28 0.34 0.47 0.69 0.70 1.00 1.24 1.47 1.11 1.00 1.04 0.89 0.88 1.05 1.20 1.22 1.21 1.26 1.19 1.29 1.39 1.16 0.85 0.56 0.38 0.31 0.20 0.19 0.17 0.13 0.10 0.09 0.05 0.05 0.06 0.06 0.05 0.04 0.02 0.01 0.01
0.39 0.33 0.17 0.05 0.12 0.31 0.41 0.58 0.85 0.94 0.92 0.71 0.70 0.85 0.86 0.99 1.11 1.29 1.29 1.21 1.21 0.99 0.84 0.78 0.69 0.53 0.41 0.37 0.30 0.26 0.29 0.30 0.24 0.21 0.16 0.11 0.12 0.11 0.08 0.05 0.03 0.03 0.04

GFSSE_prec_precacc_102.txt.gz
Total_Precipitation_Accumulation
0.00 0.04 0.18 0.13 0.10 0.11 0.09 0.11 0.09 0.09 0.12 0.12 0.12 0.11 0.12 0.23 0.27 0.17 0.11 0.07 0.10 0.09 0.10 0.20 0.29 0.33 0.39 0.29 0.11 0.03 0.02 0.01 0.01 0.01 0.02 0.05 0.05 0.03 0.02 0.01 0.01 0.01 0.02
0.00 0.03 0.12 0.10 0.11 0.13 0.15 0.12 0.09 0.07 0.12 0.11 0.12 0.13 0.13 0.22 0.16 0.07 0.03 0.04 0.05 0.08 0.15 0.26 0.32 0.25 0.15 0.05 0.01 0.01 0.00 0.00 0.00 0.00 0.00 0.01 0.05 0.07 0.04 0.03 0.04 0.04 0.05
0.01 0.04 0.06 0.09 0.15 0.15 0.11 0.07 0.04 0.07 0.10 0.10 0.14 0.20 0.17 0.21 0.09 0.02 0.05 0.05 0.08 0.17 0.33 0.31 0.11 0.01 0.00 0.00 0.01 0.00 0.00 0.00 0.00 0.00 0.00 0.00 0.01 0.07 0.08 0.06 0.06 0.07 0.07
0.01 0.03 0.05 0.09 0.14 0.09 0.07 0.05 0.04 0.06 0.09 0.15 0.23 0.21 0.23 0.23 0.02 0.01 0.04 0.08 0.12 0.23 0.17 0.04 0.00 0.01 0.00 0.00 0.00 0.00 0.00 0.00 0.00 0.00 0.00 0.00 0.00 0.03 0.05 0.08 0.07 0.07 0.08
0.04 0.04 0.06 0.13 0.13 0.06 0.06 0.04 0.05 0.04 0.09 0.21 0.27 0.34 0.42 0.23 0.07 0.06 0.06 0.06 0.05 0.03 0.02 0.02 0.00 0.00 0.00 0.00 0.00 0.00 0.00 0.00 0.00 0.00 0.00 0.02 0.05 0.15 0.14 0.13 0.14 0.17 0.22
0.07 0.07 0.08 0.17 0.10 0.05 0.06 0.07 0.05 0.05 0.06 0.19 0.27 0.33 0.30 0.15 0.12 0.12 0.04 0.01 0.01 0.03 0.02 0.01 0.00 0.00 0.00 0.00 0.00 0.00 0.00 0.00 0.00 0.01 0.01 0.05 0.09 0.21 0.16 0.13 0.22 0.27 0.27
0.06 0.12 0.09 0.21 0.09 0.04 0.07 0.07 0.08 0.08 0.07 0.13 0.21 0.20 0.14 0.10 0.14 0.15 0.04 0.01 0.02 0.03 0.01 0.00 0.00 0.00 0.00 0.00 0.00 0.00 0.00 0.00 0.00 0.00 0.00 0.01 0.04 0.08 0.07 0.05 0.04 0.08 0.12
0.09 0.19 0.20 0.21 0.09 0.06 0.05 0.07 0.10 0.09 0.08 0.11 0.16 0.19 0.12 0.08 0.11 0.14 0.06 0.02 0.03 0.02 0.01 0.01 0.00 0.00 0.01 0.01 0.00 0.00 0.00 0.00 0.00 0.00 0.00 0.01 0.03 0.02 0.03 0.04 0.04 0.06 0.06
0.31 0.30 0.35 0.16 0.08 0.05 0.04 0.06 0.12 0.09 0.09 0.09 0.16 0.14 0.07 0.07 0.07 0.09 0.04 0.02 0.03 0.02 0.02 0.00 0.00 0.00 0.01 0.02 0.02 0.02 0.01 0.00 0.00 0.00 0.00 0.01 0.02 0.01 0.02 0.04 0.05 0.06 0.08
0.95 0.66 0.49 0.22 0.06 0.02 0.02 0.03 0.10 0.10 0.05 0.06 0.08 0.03 0.01 0.00 0.02 0.03 0.02 0.02 0.02 0.03 0.02 0.01 0.01 0.03 0.03 0.02 0.02 0.01 0.01 0.00 0.00 0.00 0.00 0.00 0.01 0.02 0.04 0.05 0.05 0.07 0.11
1.52 1.28 0.84 0.58 0.17 0.04 0.01 0.01 0.05 0.08 0.05 0.04 0.04 0.01 0.00 0.00 0.00 0.00 0.00 0.01 0.02 0.04 0.02 0.02 0.01 0.03 0.02 0.01 0.01 0.00 0.00 0.00 0.00 0.00 0.00 0.00 0.01 0.02 0.04 0.04 0.06 0.06 0.07
1.76 1.50 1.22 0.78 0.34 0.12 0.02 0.02 0.04 0.06 0.05 0.02 0.02 0.00 0.00 0.00 0.00 0.00 0.00 0.01 0.02 0.04 0.02 0.03 0.01 0.01 0.01 0.00 0.00 0.00 0.00 0.00 0.00 0.00 0.00 0.00 0.00 0.02 0.02 0.03 0.04 0.02 0.02
2.22 1.49 1.14 0.75 0.43 0.18 0.05 0.02 0.03 0.07 0.06 0.05 0.01 0.00 0.00 0.00 0.00 0.00 0.00 0.00 0.00 0.01 0.00 0.01 0.00 0.00 0.00 0.00 0.00 0.00 0.00 0.00 0.00 0.00 0.00 0.00 0.00 0.01 0.02 0.02 0.03 0.03 0.04
3.47 1.90 1.27 0.95 0.39 0.15 0.09 0.02 0.02 0.02 0.03 0.02 0.01 0.00 0.00 0.00 0.00 0.00 0.00 0.00 0.00 0.00 0.00 0.00 0.00 0.00 0.00 0.00 0.00 0.00 0.00 0.00 0.00 0.00 0.00 0.00 0.00 0.00 0.00 0.01 0.02 0.04 0.06
4.14 3.67 2.03 1.44 1.29 0.38 0.24 0.07 0.04 0.02 0.01 0.00 0.00 0.00 0.00 0.00 0.00 0.00 0.00 0.00 0.00 0.00 0.00 0.00 0.00 0.00 0.00 0.00 0.00 0.00 0.00 0.00 0.00 0.00 0.00 0.00 0.00 0.00 0.00 0.01 0.02 0.04 0.08
1.61 3.06 3.61 2.17 1.37 1.12 0.45 0.12 0.09 0.02 0.01 0.00 0.00 0.00 0.00 0.00 0.00 0.00 0.00 0.00 0.00 0.00 0.00 0.00 0.00 0.00 0.00 0.00 0.00 0.00 0.00 0.00 0.00 0.00 0.00 0.00 0.00 0.00 0.00 0.00 0.02 0.07 0.16
0.83 1.62 2.32 2.40 1.59 1.09 0.69 0.32 0.17 0.12 0.04 0.01 0.00 0.00 0.00 0.00 0.00 0.00 0.00 0.00 0.00 0.00 0.00 0.00 0.00 0.00 0.00 0.00 0.00 0.00 0.00 0.00 0.00 0.00 0.00 0.00 0.00 0.00 0.00 0.00 0.02 0.09 0.19
0.43 0.70 1.06 1.01 1.48 1.01 0.80 0.56 0.45 0.31 0.14 0.11 0.07 0.01 0.00 0.00 0.00 0.00 0.00 0.00 0.00 0.00 0.00 0.00 0.00 0.00 0.00 0.00 0.00 0.00 0.00 0.00 0.00 0.00 0.00 0.00 0.00 0.00 0.00 0.00 0.02 0.06 0.06
0.33 0.42 0.60 0.54 0.49 0.76 0.81 0.80 0.76 0.60 0.34 0.20 0.14 0.03 0.01 0.01 0.02 0.01 0.00 0.00 0.00 0.00 0.00 0.00 0.00 0.00 0.00 0.00 0.00 0.00 0.00 0.00 0.00 0.00 0.00 0.00 0.00 0.00 0.00 0.00 0.00 0.00 0.02
0.49 0.35 0.32 0.38 0.30 0.34 0.65 0.86 0.69 0.58 0.53 0.34 0.14 0.05 0.14 0.07 0.07 0.07 0.03 0.02 0.01 0.00 0.00 0.00 0.00 0.00 0.00 0.01 0.01 0.00 0.00 0.00 0.00 0.00 0.00 0.00 0.01 0.01 0.00 0.01 0.00 0.00 0.02
0.65 0.46 0.27 0.22 0.35 0.38 0.50 0.67 0.63 0.47 0.56 0.60 0.54 0.54 0.27 0.26 0.28 0.23 0.10 0.07 0.08 0.04 0.04 0.03 0.03 0.02 0.02 0.06 0.05 0.01 0.00 0.00 0.00 0.00 0.00 0.01 0.01 0.02 0.01 0.01 0.01 0.02 0.05
0.79 0.55 0.53 0.48 0.63 0.49 0.55 0.80 0.80 0.76 0.72 0.90 0.92 0.78 0.93 0.78 0.73 0.59 0.34 0.24 0.16 0.11 0.08 0.07 0.10 0.16 0.14 0.20 0.20 0.10 0.02 0.00 0.00 0.00 0.00 0.00 0.00 0.00 0.01 0.01 0.02 0.03 0.04
1.05 0.53 0.40 0.54 0.50 0.32 0.46 0.70 0.92 1.09 0.97 0.68 0.47 0.35 0.42 0.87 0.99 1.04 0.93 0.92 0.85 0.65 0.50 0.39 0.32 0.35 0.44 0.35 0.24 0.24 0.07 0.01 0.00 0.00 0.00 0.00 0.00 0.00 0.00 0.02 0.02 0.02 0.01
0.98 0.63 0.43 0.37 0.41 0.54 0.87 1.04 0.82 0.82 0.94 0.82 0.92 0.78 0.93 0.92 0.90 1.07 1.13 1.00 1.08 1.04 0.84 0.71 0.63 0.54 0.47 0.36 0.26 0.16 0.17 0.10 0.08 0.04 0.01 0.01 0.01 0.01 0.02 0.03 0.03 0.03 0.02
1.11 0.70 0.42 0.47 0.56 0.76 0.74 1.10 1.34 1.53 1.16 1.11 1.23 1.10 0.98 1.12 1.24 1.27 1.24 1.26 1.19 1.29 1.40 1.17 0.95 0.77 0.65 0.54 0.35 0.25 0.17 0.13 0.10 0.09 0.05 0.05 0.06 0.06 0.05 0.04 0.02 0.01 0.01
0.89 0.90 0.55 0.26 0.20 0.40 0.47 0.69 0.97 1.03 0.95 0.74 0.79 0.98 0.96 1.04 1.15 1.34 1.32 1.23 1.21 1.00 0.86 0.83 0.75 0.65 0.55 0.48 0.37 0.28 0.29 0.30 0.24 0.21 0.16 0.11 0.12 0.11 0.08 0.05 0.03 0.03 0.04

GFSSE_prec_precacc_105.txt.gz
Total_Precipitation_Accumulation
0.00 0.04 0.18 0.13 0.10 0.11 0.09 0.11 0.09 0.09 0.13 0.12 0.12 0.11 0.12 0.26 0.30 0.17 0.11 0.07 0.10 0.11 0.13 0.20 0.30 0.35 0.40 0.29 0.11 0.03 0.02 0.01 0.01 0.01 0.02 0.05 0.05 0.03 0.03 0.01 0.01 0.01 0.02
0.00 0.03 0.12 0.10 0.11 0.13 0.15 0.12 0.09 0.07 0.13 0.11 0.13 0.13 0.13 0.29 0.19 0.07 0.03 0.04 0.07 0.09 0.15 0.26 0.32 0.25 0.16 0.05 0.01 0.01 0.00 0.00 0.00 0.00 0.00 0.01 0.05 0.07 0.04 0.03 0.06 0.06 0.08
0.01 0.04 0.06 0.09 0.15 0.15 0.11 0.07 0.04 0.07 0.11 0.11 0.16 0.20 0.17 0.27 0.09 0.02 0.06 0.05 0.09 0.17 0.33 0.31 0.11 0.01 0.01 0.01 0.01 0.00 0.00 0.00 0.00 0.00 0.00 0.00 0.01 0.07 0.08 0.07 0.07 0.08 0.07
0.01 0.03 0.05 0.09 0.14 0.09 0.07 0.05 0.04 0.06 0.09 0.15 0.24 0.22 0.24 0.26 0.02 0.02 0.05 0.08 0.13 0.23 0.17 0.04 0.00 0.01 0.00 0.00 0.00 0.00 0.00 0.00 0.00 0.00 0.00 0.00 0.00 0.03 0.05 0.09 0.08 0.08 0.08
0.04 0.04 0.06 0.13 0.13 0.06 0.06 0.04 0.05 0.04 0.10 0.21 0.27 0.36 0.44 0.24 0.08 0.08 0.07 0.06 0.05 0.03 0.02 0.02 0.00 0.00 0.00 0.00 0.00 0.00 0.00 0.00 0.00 0.00 0.00 0.02 0.05 0.15 0.14 0.13 0.14 0.17 0.22
0.07 0.07 0.08 0.17 0.10 0.05 0.07 0.07 0.06 0.05 0.07 0.19 0.28 0.34 0.33 0.17 0.13 0.13 0.04 0.01 0.01 0.03 0.02 0.01 0.00 0.00 0.00 0.00 0.00 0.00 0.00 0.00 0.00 0.01 0.01 0.05 0.09 0.21 0.16 0.13 0.22 0.27 0.27
0.06 0.12 0.09 0.21 0.09 0.04 0.08 0.07 0.09 0.09 0.07 0.15 0.23 0.21 0.16 0.12 0.14 0.15 0.04 0.01 0.02 0.03 0.01 0.00 0.00 0.00 0.00 0.00 0.00 0.00 0.00 0.00 0.00 0.00 0.00 0.01 0.04 0.08 0.07 0.05 0.04 0.08 0.12
0.09 0.20 0.21 0.23 0.12 0.06 0.06 0.07 0.11 0.10 0.09 0.13 0.19 0.22 0.15 0.10 0.11 0.14 0.06 0.02 0.03 0.02 0.01 0.01 0.00 0.00 0.01 0.01 0.00 0.00 0.00 0.00 0.00 0.00 0.00 0.01 0.03 0.02 0.03 0.04 0.04 0.06 0.06
0.41 0.42 0.48 0.23 0.17 0.06 0.04 0.06 0.14 0.12 0.10 0.12 0.19 0.19 0.12 0.08 0.07 0.09 0.04 0.02 0.03 0.03 0.02 0.01 0.00 0.00 0.01 0.02 0.02 0.02 0.01 0.00 0.00 0.00 0.00 0.01 0.02 0.01 0.02 0.04 0.05 0.06 0.08
1.07 0.76 0.57 0.31 0.15 0.07 0.02 0.03 0.11 0.14 0.05 0.08 0.12 0.06 0.02 0.00 0.02 0.03 0.02 0.02 0.03 0.03 0.02 0.01 0.01 0.03 0.03 0.02 0.02 0.01 0.01 0.00 0.00 0.00 0.00 0.00 0.01 0.02 0.04 0.05 0.05 0.07 0.11
1.61 1.41 1.03 0.78 0.25 0.11 0.07 0.02 0.06 0.16 0.07 0.06 0.06 0.02 0.01 0.00 0.00 0.00 0.00 0.01 0.02 0.04 0.02 0.02 0.01 0.03 0.02 0.01 0.01 0.00 0.00 0.00 0.00 0.00 0.00 0.00 0.01 0.02 0.04 0.04 0.06 0.06 0.07
1.80 1.58 1.36 1.08 0.54 0.20 0.08 0.08 0.09 0.17 0.11 0.04 0.04 0.02 0.00 0.00 0.00 0.00 0.00 0.01 0.02 0.04 0.02 0.03 0.01 0.01 0.01 0.00 0.00 0.00 0.00 0.00 0.00 0.00 0.00 0.00 0.00 0.02 0.02 0.03 0.04 0.02 0.02
2.22 1.50 1.19 1.10 0.95 0.46 0.12 0.07 0.10 0.25 0.13 0.10 0.03 0.01 0.01 0.00 0.00 0.00 0.00 0.00 0.01 0.01 0.00 0.01 0.00 0.00 0.00 0.00 0.00 0.00 0.00 0.00 0.00 0.00 0.00 0.00 0.00 0.01 0.02 0.02 0.03 0.03 0.04
3.47 1.90 1.27 0.99 0.70 0.52 0.26 0.05 0.03 0.17 0.14 0.07 0.06 0.01 0.00 0.00 0.00 0.00 0.00 0.00 0.00 0.00 0.00 0.00 0.00 0.00 0.00 0.00 0.00 0.00 0.00 0.00 0.00 0.00 0.00 0.00 0.00 0.00 0.00 0.01 0.03 0.05 0.09
4.14 3.67 2.03 1.46 1.36 0.52 0.38 0.10 0.04 0.04 0.26 0.04 0.07 0.02 0.00 0.00 0.00 0.00 0.00 0.00 0.00 0.00 0.00 0.00 0.00 0.00 0.00 0.00 0.00 0.00 0.00 0.00 0.00 0.00 0.00 0.00 0.00 0.00 0.00 0.01 0.02 0.04 0.09
1.61 3.06 3.61 2.18 1.42 1.21 0.83 0.30 0.10 0.03 0.08 0.10 0.02 0.03 0.00 0.00 0.00 0.00 0.00 0.00 0.00 0.00 0.00 0.00 0.00 0.00 0.00 0.00 0.00 0.00 0.00 0.00 0.00 0.00 0.00 0.00 0.00 0.00 0.00 0.00 0.02 0.08 0.16
0.84 1.63 2.32 2.43 1.66 1.25 1.13 0.75 0.22 0.12 0.04 0.02 0.00 0.00 0.00 0.00 0.00 0.00 0.00 0.00 0.00 0.00 0.00 0.00 0.00 0.00 0.00 0.00 0.00 0.00 0.00 0.00 0.00 0.00 0.00 0.00 0.00 0.00 0.00 0.00 0.02 0.09 0.20
0.56 0.75 1.13 1.11 1.53 1.20 1.39 1.05 0.69 0.33 0.14 0.11 0.07 0.01 0.00 0.00 0.00 0.00 0.00 0.00 0.00 0.00 0.00 0.00 0.00 0.00 0.00 0.00 0.00 0.00 0.00 0.00 0.00 0.00 0.00 0.00 0.00 0.00 0.00 0.00 0.02 0.06 0.06
0.45 0.52 0.66 0.65 0.55 0.83 1.04 1.35 1.19 0.79 0.37 0.20 0.14 0.03 0.01 0.01 0.02 0.01 0.00 0.00 0.00 0.00 0.00 0.00 0.00 0.00 0.00 0.00 0.00 0.00 0.00 0.00 0.00 0.00 0.00 0.00 0.00 0.00 0.00 0.00 0.00 0.00 0.02
0.53 0.43 0.40 0.44 0.33 0.36 0.70 1.15 1.24 0.97 0.75 0.41 0.16 0.05 0.14 0.07 0.07 0.07 0.03 0.02 0.01 0.00 0.00 0.00 0.00 0.00 0.00 0.01 0.01 0.00 0.00 0.00 0.00 0.00 0.00 0.00 0.01 0.01 0.00 0.01 0.00 0.00 0.02
0.70 0.52 0.34 0.27 0.36 0.39 0.54 0.75 0.87 0.74 0.91 0.86 0.65 0.60 0.29 0.27 0.28 0.23 0.10 0.07 0.08 0.04 0.04 0.03 0.03 0.02 0.02 0.06 0.05 0.01 0.00 0.00 0.00 0.00 0.00 0.01 0.01 0.02 0.01 0.01 0.01 0.02 0.05
0.96 0.70 0.67 0.55 0.68 0.51 0.58 0.89 0.96 0.89 0.81 1.09 1.12 0.88 1.01 0.86 0.76 0.59 0.34 0.24 0.16 0.11 0.08 0.07 0.10 0.16 0.14 0.20 0.20 0.10 0.02 0.00 0.00 0.00 0.00 0.00 0.00 0.00 0.01 0.01 0.02 0.03 0.04
1.24 0.79 0.65 0.68 0.61 0.40 0.51 0.75 1.03 1.22 1.15 0.84 0.56 0.47 0.48 0.92 1.03 1.05 0.93 0.92 0.85 0.65 0.50 0.40 0.34 0.36 0.44 0.35 0.26 0.26 0.08 0.01 0.00 0.00 0.00 0.00 0.00 0.00 0.00 0.02 0.02 0.02 0.01
1.22 0.83 0.66 0.72 0.68 0.68 0.96 1.08 0.87 0.89 1.02 1.01 1.18 1.01 1.08 0.98 0.96 1.12 1.23 1.13 1.20 1.17 0.97 0.90 0.76 0.61 0.51 0.37 0.30 0.19 0.18 0.10 0.08 0.04 0.01 0.01 0.01 0.01 0.02 0.03 0.03 0.03 0.02
1.47 0.90 0.60 0.88 0.90 0.95 0.88 1.25 1.40 1.54 1.18 1.15 1.32 1.38 1.26 1.31 1.40 1.44 1.43 1.46 1.32 1.39 1.47 1.24 1.08 0.94 0.84 0.65 0.42 0.31 0.20 0.13 0.10 0.09 0.05 0.05 0.06 0.06 0.05 0.04 0.02 0.01 0.01
1.25 1.15 0.78 0.52 0.45 0.60 0.63 0.82 1.04 1.04 0.96 0.76 0.85 1.12 1.14 1.15 1.19 1.35 1.36 1.30 1.28 1.05 0.91 0.87 0.79 0.71 0.66 0.55 0.39 0.30 0.30 0.30 0.24 0.21 0.16 0.11 0.12 0.11 0.08 0.05 0.03 0.03 0.04

GFSSE_prec_precacc_108.txt.gz
Total_Precipitation_Accumulation
0.00 0.04 0.18 0.13 0.10 0.11 0.09 0.11 0.09 0.09 0.13 0.12 0.12 0.11 0.12 0.26 0.30 0.17 0.11 0.07 0.12 0.13 0.13 0.22 0.32 0.36 0.41 0.29 0.11 0.03 0.02 0.01 0.01 0.01 0.02 0.05 0.06 0.04 0.03 0.02 0.02 0.02 0.05
0.00 0.03 0.12 0.10 0.11 0.13 0.15 0.12 0.09 0.07 0.13 0.12 0.13 0.13 0.13 0.32 0.20 0.07 0.03 0.05 0.08 0.11 0.15 0.27 0.33 0.26 0.16 0.05 0.01 0.01 0.00 0.00 0.00 0.00 0.00 0.01 0.05 0.07 0.04 0.04 0.08 0.08 0.10
0.01 0.04 0.06 0.09 0.15 0.15 0.11 0.07 0.04 0.07 0.11 0.11 0.16 0.20 0.17 0.32 0.10 0.02 0.06 0.07 0.10 0.17 0.33 0.31 0.12 0.02 0.01 0.01 0.01 0.00 0.00 0.00 0.00 0.00 0.00 0.00 0.01 0.08 0.09 0.08 0.09 0.09 0.08
0.01 0.03 0.05 0.09 0.14 0.09 0.07 0.05 0.04 0.06 0.10 0.15 0.25 0.22 0.24 0.29 0.03 0.03 0.05 0.09 0.13 0.23 0.17 0.04 0.01 0.01 0.00 0.00 0.00 0.00 0.00 0.00 0.00 0.00 0.00 0.00 0.00 0.03 0.06 0.10 0.09 0.08 0.08
0.04 0.04 0.06 0.13 0.13 0.06 0.06 0.05 0.05 0.05 0.11 0.21 0.28 0.37 0.45 0.29 0.11 0.10 0.07 0.07 0.05 0.03 0.02 0.02 0.00 0.00 0.00 0.00 0.00 0.00 0.00 0.00 0.00 0.00 0.00 0.02 0.05 0.15 0.14 0.13 0.14 0.17 0.22
0.07 0.07 0.08 0.17 0.10 0.05 0.07 0.08 0.06 0.05 0.08 0.20 0.29 0.36 0.34 0.20 0.18 0.16 0.05 0.01 0.01 0.03 0.02 0.01 0.00 0.00 0.00 0.00 0.00 0.00 0.00 0.00 0.00 0.01 0.01 0.05 0.09 0.21 0.16 0.13 0.22 0.27 0.27
0.06 0.12 0.09 0.21 0.10 0.04 0.08 0.07 0.09 0.09 0.08 0.15 0.24 0.23 0.16 0.15 0.21 0.19 0.04 0.01 0.02 0.03 0.01 0.00 0.00 0.00 0.00 0.00 0.00 0.00 0.00 0.00 0.00 0.00 0.00 0.01 0.04 0.08 0.07 0.05 0.04 0.08 0.12
0.09 0.22 0.22 0.25 0.17 0.09 0.06 0.07 0.11 0.11 0.09 0.14 0.20 0.25 0.16 0.13 0.16 0.15 0.06 0.02 0.03 0.02 0.01 0.01 0.00 0.00 0.01 0.01 0.00 0.00 0.00 0.00 0.00 0.00 0.00 0.01 0.03 0.02 0.03 0.04 0.04 0.06 0.06
0.44 0.45 0.53 0.25 0.21 0.10 0.05 0.06 0.14 0.12 0.11 0.12 0.21 0.25 0.13 0.10 0.09 0.10 0.04 0.02 0.03 0.03 0.02 0.01 0.00 0.00 0.01 0.02 0.02 0.02 0.01 0.00 0.00 0.00 0.00 0.01 0.02 0.01 0.02 0.04 0.05 0.06 0.08
1.12 0.85 0.67 0.37 0.17 0.08 0.04 0.04 0.12 0.15 0.07 0.09 0.15 0.13 0.03 0.01 0.03 0.03 0.02 0.03 0.03 0.03 0.02 0.01 0.01 0.03 0.03 0.02 0.02 0.01 0.01 0.00 0.00 0.00 0.00 0.00 0.01 0.02 0.04 0.05 0.05 0.07 0.11
1.64 1.45 1.13 0.87 0.33 0.15 0.07 0.03 0.07 0.19 0.11 0.07 0.08 0.05 0.02 0.00 0.00 0.00 0.00 0.01 0.02 0.05 0.03 0.02 0.01 0.03 0.02 0.01 0.01 0.00 0.00 0.00 0.00 0.00 0.00 0.00 0.01 0.02 0.04 0.04 0.06 0.06 0.07
1.80 1.59 1.40 1.15 0.59 0.25 0.09 0.08 0.09 0.21 0.19 0.05 0.05 0.03 0.01 0.00 0.00 0.00 0.00 0.01 0.02 0.04 0.02 0.03 0.01 0.01 0.01 0.00 0.00 0.00 0.00 0.00 0.00 0.00 0.00 0.00 0.00 0.02 0.02 0.03 0.04 0.02 0.02
2.22 1.50 1.20 1.13 1.04 0.55 0.16 0.08 0.10 0.28 0.21 0.15 0.04 0.01 0.02 0.01 0.00 0.00 0.00 0.01 0.01 0.01 0.00 0.01 0.00 0.00 0.00 0.00 0.00 0.00 0.00 0.00 0.00 0.00 0.00 0.00 0.00 0.01 0.02 0.02 0.03 0.03 0.05
3.49 1.90 1.27 1.00 0.71 0.58 0.31 0.07 0.04 0.17 0.21 0.18 0.09 0.02 0.02 0.01 0.01 0.00 0.00 0.00 0.00 0.00 0.00 0.00 0.00 0.00 0.00 0.00 0.00 0.00 0.00 0.00 0.00 0.00 0.00 0.00 0.00 0.00 0.00 0.01 0.03 0.05 0.09
4.14 3.67 2.03 1.47 1.36 0.52 0.39 0.12 0.04 0.05 0.30 0.18 0.14 0.05 0.01 0.01 0.01 0.00 0.00 0.00 0.00 0.00 0.00 0.00 0.00 0.00 0.00 0.00 0.00 0.00 0.00 0.00 0.00 0.00 0.00 0.00 0.00 0.00 0.00 0.01 0.02 0.04 0.09
1.62 3.06 3.61 2.18 1.42 1.21 0.83 0.30 0.10 0.03 0.11 0.31 0.14 0.07 0.02 0.01 0.00 0.00 0.00 0.00 0.00 0.00 0.00 0.00 0.00 0.00 0.00 0.00 0.00 0.00 0.00 0.00 0.00 0.00 0.00 0.00 0.00 0.00 0.00 0.00 0.02 0.08 0.16
0.85 1.63 2.32 2.43 1.66 1.25 1.14 0.75 0.24 0.13 0.05 0.23 0.26 0.09 0.03 0.01 0.00 0.00 0.00 0.00 0.00 0.00 0.00 0.00 0.00 0.00 0.00 0.00 0.00 0.00 0.00 0.00 0.00 0.00 0.00 0.00 0.00 0.00 0.00 0.00 0.02 0.10 0.20
0.56 0.75 1.13 1.11 1.53 1.20 1.40 1.06 0.72 0.36 0.14 0.15 0.40 0.26 0.08 0.01 0.00 0.00 0.00 0.00 0.00 0.00 0.00 0.00 0.00 0.00 0.00 0.00 0.00 0.00 0.00 0.00 0.00 0.00 0.00 0.00 0.00 0.00 0.00 0.00 0.02 0.06 0.06
0.45 0.52 0.66 0.65 0.58 0.85 1.08 1.39 1.23 0.89 0.42 0.21 0.22 0.26 0.18 0.05 0.03 0.01 0.00 0.00 0.00 0.00 0.00 0.00 0.00 0.00 0.00 0.00 0.00 0.00 0.00 0.00 0.00 0.00 0.00 0.00 0.00 0.00 0.00 0.00 0.00 0.00 0.02
0.53 0.43 0.40 0.45 0.36 0.46 0.73 1.21 1.33 1.11 0.86 0.45 0.18 0.07 0.17 0.08 0.07 0.07 0.03 0.02 0.01 0.00 0.00 0.00 0.00 0.00 0.00 0.01 0.01 0.00 0.00 0.00 0.00 0.00 0.00 0.00 0.01 0.01 0.00 0.01 0.00 0.00 0.02
0.70 0.52 0.34 0.28 0.38 0.47 0.59 0.79 0.97 0.89 1.05 0.93 0.70 0.62 0.30 0.27 0.28 0.23 0.10 0.07 0.08 0.04 0.04 0.03 0.03 0.02 0.02 0.06 0.05 0.01 0.00 0.00 0.00 0.00 0.00 0.01 0.01 0.02 0.01 0.01 0.01 0.02 0.05
1.00 0.72 0.68 0.55 0.71 0.54 0.62 0.93 1.05 1.04 1.00 1.23 1.22 0.95 1.06 0.87 0.76 0.59 0.34 0.24 0.16 0.11 0.08 0.07 0.10 0.16 0.14 0.20 0.20 0.10 0.02 0.00 0.00 0.00 0.00 0.00 0.00 0.00 0.01 0.01 0.02 0.03 0.04
1.25 0.85 0.73 0.76 0.68 0.47 0.55 0.82 1.14 1.40 1.38 1.01 0.68 0.59 0.62 0.96 1.03 1.05 0.93 0.92 0.85 0.65 0.51 0.40 0.35 0.37 0.45 0.35 0.26 0.30 0.11 0.01 0.00 0.00 0.00 0.00 0.00 0.00 0.00 0.02 0.02 0.02 0.01
1.24 0.87 0.73 0.87 0.82 0.85 1.11 1.19 0.96 0.99 1.17 1.12 1.25 1.06 1.25 1.15 1.00 1.13 1.24 1.13 1.21 1.21 1.05 0.99 0.87 0.73 0.59 0.39 0.37 0.28 0.25 0.11 0.08 0.04 0.01 0.01 0.01 0.01 0.02 0.03 0.03 0.03 0.02
1.52 0.92 0.69 1.18 1.29 1.22 1.18 1.64 1.57 1.62 1.29 1.26 1.45 1.49 1.38 1.54 1.66 1.60 1.59 1.64 1.49 1.53 1.64 1.39 1.27 1.12 1.00 0.81 0.56 0.44 0.29 0.17 0.12 0.09 0.05 0.05 0.06 0.06 0.05 0.04 0.02 0.01 0.01
1.30 1.21 0.86 0.86 1.02 1.02 1.01 1.34 1.41 1.22 1.06 0.92 1.03 1.30 1.25 1.24 1.37 1.60 1.58 1.45 1.41 1.15 0.98 0.94 0.88 0.83 0.77 0.66 0.47 0.33 0.31 0.31 0.25 0.21 0.16 0.11 0.12 0.11 0.08 0.05 0.03 0.03 0.04

GFSSE_prec_precacc_114.txt.gz
Total_Precipitation_Accumulation
0.00 0.04 0.18 0.13 0.10 0.12 0.09 0.11 0.10 0.09 0.13 0.13 0.13 0.11 0.12 0.26 0.30 0.17 0.11 0.07 0.12 0.13 0.13 0.23 0.32 0.36 0.42 0.30 0.12 0.04 0.03 0.02 0.01 0.01 0.03 0.07 0.09 0.06 0.05 0.05 0.04 0.06 0.12
0.00 0.03 0.12 0.10 0.12 0.14 0.15 0.13 0.09 0.08 0.13 0.12 0.13 0.13 0.13 0.32 0.20 0.07 0.04 0.07 0.10 0.12 0.19 0.30 0.34 0.26 0.16 0.06 0.02 0.01 0.00 0.00 0.00 0.00 0.00 0.01 0.06 0.09 0.06 0.05 0.12 0.10 0.13
0.01 0.04 0.06 0.09 0.16 0.16 0.12 0.08 0.05 0.07 0.11 0.11 0.16 0.21 0.17 0.32 0.10 0.03 0.08 0.08 0.12 0.20 0.34 0.32 0.12 0.02 0.02 0.01 0.01 0.00 0.00 0.00 0.00 0.00 0.00 0.00 0.03 0.10 0.10 0.09 0.11 0.10 0.09
0.01 0.03 0.05 0.09 0.14 0.10 0.08 0.05 0.05 0.07 0.10 0.16 0.27 0.23 0.25 0.30 0.03 0.06 0.08 0.11 0.14 0.23 0.18 0.04 0.01 0.01 0.01 0.00 0.00 0.00 0.00 0.00 0.00 0.00 0.00 0.00 0.00 0.03 0.06 0.10 0.09 0.08 0.08
0.04 0.04 0.06 0.13 0.13 0.06 0.06 0.05 0.05 0.05 0.11 0.22 0.31 0.40 0.46 0.33 0.13 0.17 0.11 0.08 0.06 0.03 0.02 0.02 0.01 0.00 0.00 0.00 0.00 0.00 0.00 0.00 0.00 0.00 0.00 0.02 0.05 0.15 0.14 0.13 0.14 0.17 0.22
0.07 0.07 0.08 0.17 0.10 0.05 0.07 0.08 0.06 0.06 0.08 0.20 0.30 0.42 0.38 0.27 0.26 0.26 0.08 0.01 0.01 0.03 0.02 0.01 0.00 0.00 0.00 0.00 0.00 0.00 0.00 0.00 0.00 0.01 0.01 0.05 0.09 0.21 0.16 0.13 0.22 0.27 0.27
0.06 0.12 0.09 0.22 0.10 0.04 0.08 0.07 0.09 0.09 0.08 0.16 0.24 0.24 0.18 0.21 0.41 0.25 0.05 0.01 0.02 0.03 0.01 0.00 0.00 0.00 0.00 0.00 0.00 0.00 0.00 0.00 0.00 0.00 0.00 0.01 0.04 0.08 0.07 0.05 0.04 0.08 0.12
0.18 0.23 0.23 0.26 0.17 0.09 0.06 0.07 0.11 0.11 0.10 0.15 0.21 0.27 0.21 0.18 0.36 0.22 0.06 0.02 0.03 0.02 0.01 0.01 0.00 0.00 0.01 0.01 0.00 0.00 0.00 0.00 0.00 0.00 0.00 0.01 0.03 0.02 0.03 0.04 0.04 0.06 0.06
0.77 0.73 0.67 0.29 0.23 0.13 0.05 0.06 0.14 0.12 0.12 0.14 0.22 0.27 0.18 0.13 0.21 0.15 0.04 0.02 0.03 0.03 0.02 0.01 0.00 0.00 0.01 0.02 0.02 0.02 0.01 0.00 0.00 0.00 0.00 0.01 0.02 0.01 0.02 0.04 0.05 0.06 0.08
1.33 1.17 1.03 0.55 0.21 0.11 0.06 0.05 0.13 0.16 0.08 0.13 0.18 0.14 0.06 0.03 0.08 0.15 0.02 0.03 0.03 0.03 0.02 0.01 0.01 0.03 0.03 0.02 0.02 0.01 0.01 0.00 0.00 0.00 0.00 0.00 0.01 0.02 0.04 0.05 0.05 0.07 0.11
1.77 1.64 1.40 1.09 0.54 0.22 0.07 0.03 0.07 0.20 0.12 0.10 0.13 0.08 0.07 0.01 0.01 0.04 0.01 0.01 0.02 0.05 0.03 0.02 0.01 0.03 0.02 0.01 0.01 0.00 0.00 0.00 0.00 0.00 0.00 0.00 0.01 0.02 0.04 0.04 0.06 0.06 0.07
1.84 1.66 1.50 1.27 0.68 0.28 0.11 0.09 0.10 0.21 0.19 0.07 0.08 0.07 0.05 0.03 0.00 0.00 0.00 0.01 0.03 0.05 0.02 0.03 0.01 0.01 0.01 0.00 0.00 0.00 0.00 0.00 0.00 0.00 0.00 0.00 0.00 0.02 0.02 0.03 0.04 0.02 0.02
2.25 1.53 1.25 1.20 1.13 0.65 0.21 0.10 0.11 0.31 0.23 0.15 0.06 0.05 0.07 0.05 0.01 0.00 0.00 0.01 0.01 0.01 0.00 0.01 0.00 0.00 0.00 0.00 0.00 0.00 0.00 0.00 0.00 0.00 0.00 0.00 0.00 0.01 0.02 0.02 0.04 0.03 0.05
3.49 1.92 1.30 1.02 0.73 0.60 0.36 0.08 0.04 0.18 0.23 0.18 0.11 0.06 0.05 0.04 0.03 0.01 0.00 0.00 0.00 0.00 0.00 0.00 0.00 0.00 0.00 0.00 0.00 0.00 0.00 0.00 0.00 0.00 0.00 0.00 0.00 0.00 0.00 0.02 0.05 0.08 0.11
4.14 3.67 2.07 1.51 1.41 0.55 0.40 0.12 0.04 0.05 0.30 0.18 0.18 0.09 0.04 0.02 0.02 0.01 0.00 0.00 0.00 0.00 0.00 0.00 0.00 0.00 0.00 0.00 0.00 0.00 0.00 0.00 0.00 0.00 0.00 0.00 0.00 0.00 0.00 0.01 0.02 0.04 0.10
1.62 3.06 3.61 2.19 1.43 1.22 0.84 0.31 0.10 0.03 0.11 0.31 0.22 0.15 0.05 0.05 0.02 0.01 0.00 0.00 0.00 0.00 0.00 0.00 0.00 0.00 0.00 0.00 0.00 0.00 0.00 0.00 0.00 0.00 0.00 0.00 0.00 0.00 0.00 0.00 0.02 0.08 0.17
0.85 1.63 2.32 2.43 1.66 1.26 1.14 0.75 0.24 0.13 0.05 0.23 0.30 0.24 0.15 0.07 0.03 0.02 0.01 0.02 0.02 0.01 0.00 0.00 0.00 0.00 0.00 0.00 0.00 0.00 0.00 0.00 0.00 0.00 0.00 0.00 0.00 0.00 0.00 0.00 0.02 0.10 0.20
0.56 0.75 1.13 1.11 1.53 1.20 1.40 1.06 0.72 0.36 0.14 0.15 0.40 0.35 0.24 0.23 0.16 0.08 0.03 0.03 0.04 0.03 0.00 0.00 0.00 0.00 0.00 0.00 0.00 0.00 0.00 0.00 0.00 0.00 0.00 0.00 0.00 0.00 0.00 0.00 0.02 0.06 0.06
0.45 0.52 0.66 0.65 0.58 0.85 1.08 1.39 1.23 0.89 0.42 0.21 0.22 0.37 0.56 0.34 0.38 0.22 0.12 0.07 0.06 0.07 0.01 0.00 0.00 0.00 0.00 0.00 0.00 0.00 0.00 0.00 0.00 0.00 0.00 0.00 0.00 0.00 0.00 0.00 0.00 0.00 0.02
0.53 0.43 0.40 0.45 0.36 0.46 0.73 1.21 1.34 1.11 0.86 0.45 0.19 0.10 0.39 0.74 0.60 0.68 0.47 0.33 0.31 0.29 0.09 0.00 0.00 0.00 0.00 0.01 0.01 0.00 0.00 0.00 0.00 0.00 0.00 0.00 0.01 0.01 0.00 0.01 0.00 0.00 0.02
0.70 0.52 0.34 0.28 0.38 0.48 0.60 0.80 0.99 0.91 1.05 0.94 0.72 0.65 0.35 0.42 0.66 0.67 0.62 0.63 0.58 0.51 0.23 0.06 0.03 0.02 0.02 0.06 0.05 0.01 0.00 0.00 0.00 0.00 0.00 0.01 0.01 0.02 0.01 0.01 0.01 0.02 0.05
1.00 0.72 0.68 0.55 0.71 0.54 0.62 0.93 1.06 1.08 1.02 1.23 1.24 1.01 1.12 0.94 0.87 0.79 0.53 0.41 0.40 0.37 0.23 0.16 0.13 0.16 0.14 0.20 0.20 0.10 0.02 0.00 0.00 0.00 0.00 0.00 0.00 0.00 0.01 0.01 0.02 0.03 0.04
1.25 0.85 0.73 0.76 0.68 0.47 0.55 0.82 1.15 1.45 1.45 1.05 0.72 0.64 0.70 1.08 1.15 1.18 1.05 0.99 0.89 0.71 0.58 0.46 0.38 0.38 0.45 0.35 0.26 0.31 0.12 0.02 0.01 0.00 0.00 0.00 0.00 0.00 0.00 0.02 0.02 0.02 0.01
1.24 0.87 0.73 0.87 0.82 0.85 1.11 1.20 0.97 1.02 1.24 1.16 1.29 1.11 1.30 1.24 1.15 1.30 1.42 1.28 1.32 1.25 1.07 1.01 0.88 0.73 0.59 0.41 0.39 0.28 0.25 0.12 0.08 0.04 0.01 0.01 0.02 0.01 0.02 0.03 0.03 0.03 0.02
1.57 0.95 0.70 1.20 1.30 1.23 1.18 1.65 1.59 1.69 1.36 1.39 1.56 1.62 1.52 1.68 1.81 1.81 1.81 1.85 1.68 1.66 1.72 1.49 1.35 1.19 1.07 0.87 0.63 0.51 0.37 0.24 0.16 0.11 0.06 0.05 0.06 0.07 0.06 0.05 0.03 0.01 0.01
1.39 1.37 1.00 0.98 1.10 1.11 1.07 1.44 1.62 1.29 1.19 1.07 1.21 1.43 1.39 1.43 1.61 1.89 1.92 1.81 1.78 1.44 1.27 1.21 1.13 1.04 0.94 0.79 0.60 0.45 0.42 0.41 0.29 0.26 0.20 0.13 0.14 0.12 0.09 0.06 0.04 0.03 0.04

GFSSE_prec_precacc_117.txt.gz
Total_Precipitation_Accumulation
0.00 0.04 0.18 0.13 0.11 0.12 0.09 0.11 0.10 0.10 0.13 0.13 0.13 0.12 0.12 0.26 0.30 0.17 0.11 0.07 0.12 0.13 0.13 0.23 0.33 0.37 0.42 0.30 0.12 0.04 0.03 0.02 0.02 0.02 0.03 0.08 0.09 0.07 0.07 0.06 0.05 0.07 0.15
0.00 0.04 0.13 0.11 0.13 0.15 0.16 0.13 0.10 0.08 0.13 0.12 0.15 0.14 0.13 0.32 0.20 0.07 0.04 0.07 0.10 0.12 0.19 0.30 0.35 0.27 0.16 0.07 0.02 0.01 0.00 0.00 0.00 0.00 0.00 0.01 0.07 0.10 0.06 0.06 0.14 0.11 0.14
0.01 0.05 0.06 0.09 0.17 0.17 0.13 0.09 0.05 0.08 0.12 0.11 0.17 0.21 0.17 0.32 0.10 0.03 0.08 0.08 0.13 0.21 0.34 0.32 0.12 0.02 0.02 0.01 0.01 0.00 0.00 0.00 0.00 0.00 0.00 0.00 0.03 0.12 0.11 0.09 0.11 0.10 0.09
0.01 0.03 0.05 0.09 0.15 0.10 0.09 0.06 0.05 0.07 0.11 0.16 0.27 0.24 0.25 0.30 0.03 0.08 0.08 0.11 0.16 0.24 0.18 0.04 0.01 0.02 0.01 0.00 0.00 0.00 0.00 0.00 0.00 0.00 0.00 0.00 0.00 0.03 0.06 0.10 0.09 0.08 0.08
0.04 0.04 0.06 0.13 0.13 0.07 0.07 0.05 0.05 0.06 0.12 0.23 0.31 0.41 0.46 0.33 0.16 0.26 0.15 0.10 0.06 0.03 0.02 0.02 0.01 0.00 0.00 0.00 0.00 0.00 0.00 0.00 0.00 0.00 0.00 0.02 0.05 0.15 0.14 0.13 0.14 0.17 0.22
0.07 0.07 0.08 0.17 0.11 0.06 0.08 0.08 0.06 0.06 0.08 0.20 0.31 0.44 0.38 0.28 0.34 0.41 0.15 0.03 0.01 0.03 0.02 0.01 0.00 0.00 0.00 0.00 0.00 0.00 0.00 0.00 0.00 0.01 0.01 0.05 0.09 0.21 0.16 0.13 0.22 0.27 0.27
0.07 0.12 0.09 0.22 0.10 0.06 0.09 0.08 0.09 0.09 0.08 0.16 0.24 0.24 0.18 0.23 0.56 0.36 0.07 0.01 0.02 0.03 0.01 0.00 0.00 0.00 0.00 0.00 0.00 0.00 0.00 0.00 0.00 0.00 0.00 0.01 0.04 0.08 0.07 0.05 0.04 0.08 0.12
0.28 0.31 0.26 0.27 0.20 0.10 0.07 0.09 0.13 0.12 0.11 0.16 0.21 0.27 0.22 0.20 0.44 0.32 0.06 0.02 0.03 0.02 0.01 0.01 0.00 0.00 0.01 0.01 0.00 0.00 0.00 0.00 0.00 0.00 0.00 0.01 0.03 0.02 0.03 0.04 0.04 0.06 0.06
0.86 0.87 0.77 0.33 0.24 0.13 0.06 0.06 0.15 0.14 0.16 0.16 0.23 0.27 0.19 0.14 0.23 0.24 0.05 0.02 0.03 0.03 0.02 0.01 0.00 0.00 0.01 0.02 0.02 0.02 0.01 0.00 0.00 0.00 0.00 0.01 0.02 0.01 0.02 0.04 0.05 0.06 0.08
1.34 1.23 1.12 0.67 0.30 0.11 0.07 0.06 0.14 0.16 0.09 0.14 0.19 0.15 0.07 0.03 0.08 0.19 0.04 0.03 0.03 0.03 0.02 0.01 0.01 0.03 0.03 0.02 0.02 0.01 0.01 0.00 0.00 0.00 0.00 0.00 0.01 0.02 0.04 0.05 0.05 0.07 0.11
1.77 1.65 1.49 1.22 0.65 0.27 0.11 0.07 0.15 0.22 0.12 0.10 0.13 0.09 0.08 0.02 0.02 0.06 0.01 0.01 0.02 0.05 0.03 0.02 0.01 0.03 0.02 0.01 0.01 0.00 0.00 0.00 0.00 0.00 0.00 0.00 0.01 0.02 0.04 0.04 0.06 0.06 0.07
1.84 1.66 1.50 1.31 0.81 0.36 0.20 0.15 0.10 0.25 0.20 0.07 0.08 0.08 0.06 0.03 0.01 0.00 0.00 0.01 0.03 0.05 0.02 0.03 0.01 0.01 0.01 0.00 0.00 0.00 0.00 0.00 0.00 0.00 0.00 0.00 0.00 0.02 0.02 0.03 0.04 0.02 0.02
2.25 1.53 1.25 1.20 1.14 0.67 0.26 0.15 0.14 0.41 0.32 0.16 0.06 0.05 0.08 0.06 0.03 0.02 0.01 0.01 0.01 0.01 0.00 0.01 0.00 0.00 0.00 0.00 0.00 0.00 0.00 0.00 0.00 0.00 0.00 0.00 0.00 0.01 0.02 0.02 0.04 0.03 0.05
3.49 1.92 1.30 1.02 0.73 0.60 0.36 0.09 0.04 0.19 0.27 0.23 0.13 0.06 0.06 0.04 0.05 0.03 0.01 0.00 0.00 0.00 0.00 0.00 0.00 0.00 0.00 0.00 0.00 0.00 0.00 0.00 0.00 0.00 0.00 0.00 0.00 0.00 0.00 0.02 0.06 0.09 0.14
4.14 3.67 2.07 1.51 1.41 0.55 0.40 0.12 0.04 0.05 0.30 0.19 0.19 0.10 0.06 0.05 0.08 0.04 0.01 0.00 0.00 0.00 0.00 0.00 0.00 0.00 0.00 0.00 0.00 0.00 0.00 0.00 0.00 0.00 0.00 0.00 0.00 0.00 0.00 0.01 0.03 0.05 0.10
1.62 3.06 3.61 2.19 1.43 1.22 0.84 0.31 0.10 0.03 0.11 0.31 0.22 0.16 0.08 0.08 0.06 0.04 0.02 0.00 0.01 0.01 0.01 0.00 0.00 0.00 0.00 0.00 0.00 0.00 0.00 0.00 0.00 0.00 0.00 0.00 0.00 0.00 0.00 0.00 0.02 0.08 0.17
0.85 1.63 2.32 2.43 1.66 1.26 1.14 0.75 0.24 0.13 0.05 0.23 0.30 0.24 0.15 0.07 0.04 0.02 0.02 0.02 0.03 0.03 0.03 0.01 0.00 0.00 0.00 0.00 0.00 0.00 0.00 0.00 0.00 0.00 0.00 0.00 0.00 0.00 0.00 0.00 0.02 0.10 0.20
0.56 0.75 1.13 1.11 1.53 1.20 1.40 1.06 0.72 0.36 0.14 0.15 0.40 0.35 0.24 0.23 0.16 0.08 0.03 0.03 0.06 0.06 0.05 0.02 0.00 0.00 0.00 0.00 0.00 0.00 0.00 0.00 0.00 0.00 0.00 0.00 0.00 0.00 0.00 0.00 0.02 0.06 0.06
0.45 0.52 0.66 0.65 0.58 0.85 1.08 1.39 1.23 0.89 0.42 0.21 0.22 0.37 0.56 0.34 0.38 0.23 0.13 0.08 0.06 0.09 0.08 0.05 0.02 0.00 0.00 0.00 0.00 0.00 0.00 0.00 0.00 0.00 0.00 0.00 0.00 0.00 0.00 0.00 0.00 0.00 0.02
0.53 0.43 0.40 0.45 0.36 0.46 0.73 1.21 1.34 1.11 0.86 0.45 0.19 0.10 0.39 0.74 0.60 0.68 0.47 0.33 0.32 0.35 0.46 0.42 0.16 0.06 0.02 0.01 0.01 0.00 0.00 0.00 0.00 0.00 0.00 0.00 0.01 0.01 0.00 0.01 0.00 0.00 0.02
0.70 0.52 0.34 0.28 0.38 0.48 0.60 0.80 0.99 0.91 1.05 0.94 0.72 0.65 0.35 0.42 0.67 0.68 0.63 0.63 0.60 0.57 0.47 0.45 0.38 0.20 0.09 0.08 0.05 0.01 0.00 0.00 0.00 0.00 0.00 0.01 0.01 0.02 0.01 0.01 0.01 0.02 0.05
1.00 0.72 0.68 0.55 0.71 0.54 0.62 0.93 1.06 1.08 1.02 1.23 1.24 1.01 1.12 0.94 0.87 0.80 0.54 0.43 0.43 0.50 0.45 0.34 0.34 0.34 0.23 0.24 0.21 0.10 0.02 0.00 0.00 0.00 0.00 0.00 0.00 0.00 0.01 0.02 0.02 0.03 0.04
1.25 0.85 0.73 0.76 0.68 0.47 0.55 0.82 1.15 1.46 1.45 1.05 0.72 0.64 0.70 1.08 1.16 1.20 1.08 1.02 0.91 0.74 0.63 0.52 0.48 0.51 0.54 0.40 0.28 0.31 0.13 0.02 0.01 0.00 0.00 0.00 0.00 0.01 0.02 0.03 0.03 0.03 0.02
1.24 0.87 0.73 0.87 0.82 0.85 1.11 1.20 0.97 1.02 1.25 1.16 1.29 1.11 1.30 1.25 1.16 1.32 1.45 1.31 1.35 1.27 1.08 1.02 0.91 0.77 0.65 0.45 0.42 0.31 0.26 0.12 0.08 0.04 0.01 0.02 0.03 0.02 0.03 0.04 0.04 0.04 0.02
1.57 0.95 0.70 1.20 1.30 1.23 1.19 1.65 1.59 1.69 1.36 1.39 1.56 1.62 1.53 1.69 1.81 1.83 1.83 1.87 1.69 1.67 1.73 1.49 1.35 1.20 1.09 0.90 0.66 0.55 0.40 0.26 0.16 0.14 0.07 0.06 0.08 0.09 0.07 0.06 0.03 0.01 0.01
1.39 1.37 1.00 0.98 1.10 1.11 1.08 1.44 1.63 1.29 1.19 1.07 1.21 1.43 1.39 1.44 1.62 1.91 1.97 1.87 1.82 1.48 1.29 1.22 1.16 1.07 0.98 0.86 0.65 0.52 0.52 0.51 0.39 0.36 0.28 0.17 0.16 0.13 0.09 0.07 0.04 0.04 0.04

GFSSE_prec_precacc_120.txt.gz
Total_Precipitation_Accumulation
0.00 0.05 0.20 0.13 0.11 0.12 0.09 0.12 0.12 0.11 0.14 0.15 0.16 0.13 0.12 0.26 0.30 0.17 0.11 0.07 0.12 0.14 0.15 0.25 0.35 0.38 0.42 0.31 0.12 0.04 0.03 0.02 0.02 0.02 0.03 0.08 0.12 0.09 0.07 0.06 0.08 0.09 0.15
0.00 0.04 0.14 0.12 0.13 0.15 0.16 0.14 0.11 0.09 0.13 0.13 0.17 0.15 0.13 0.32 0.20 0.07 0.04 0.07 0.10 0.12 0.19 0.30 0.35 0.27 0.16 0.07 0.02 0.01 0.00 0.00 0.00 0.00 0.00 0.01 0.08 0.11 0.06 0.06 0.14 0.12 0.14
0.01 0.05 0.06 0.10 0.17 0.17 0.13 0.09 0.06 0.08 0.12 0.12 0.19 0.22 0.18 0.32 0.10 0.03 0.08 0.08 0.13 0.21 0.34 0.33 0.12 0.02 0.02 0.01 0.01 0.00 0.00 0.00 0.00 0.00 0.00 0.01 0.04 0.13 0.11 0.09 0.11 0.10 0.09
0.02 0.05 0.05 0.11 0.16 0.12 0.10 0.06 0.05 0.07 0.11 0.16 0.27 0.24 0.25 0.30 0.03 0.08 0.08 0.12 0.18 0.24 0.18 0.04 0.01 0.02 0.01 0.00 0.00 0.00 0.00 0.00 0.00 0.00 0.00 0.00 0.01 0.03 0.06 0.10 0.09 0.08 0.08
0.05 0.05 0.07 0.14 0.15 0.10 0.09 0.06 0.06 0.06 0.12 0.23 0.31 0.41 0.47 0.34 0.18 0.28 0.16 0.14 0.07 0.03 0.02 0.02 0.01 0.00 0.00 0.00 0.00 0.00 0.00 0.00 0.00 0.00 0.00 0.02 0.05 0.15 0.14 0.13 0.14 0.17 0.22
0.08 0.08 0.09 0.18 0.13 0.10 0.09 0.09 0.06 0.06 0.09 0.20 0.31 0.45 0.38 0.28 0.44 0.56 0.23 0.08 0.01 0.03 0.02 0.01 0.00 0.00 0.00 0.00 0.00 0.00 0.00 0.00 0.00 0.01 0.01 0.05 0.09 0.21 0.16 0.13 0.22 0.27 0.27
0.09 0.13 0.10 0.23 0.14 0.11 0.16 0.13 0.13 0.11 0.09 0.16 0.25 0.25 0.19 0.23 0.63 0.50 0.17 0.03 0.02 0.03 0.01 0.00 0.00 0.00 0.00 0.00 0.00 0.00 0.00 0.00 0.00 0.00 0.00 0.01 0.04 0.08 0.07 0.05 0.04 0.08 0.12
0.30 0.34 0.27 0.27 0.21 0.12 0.12 0.16 0.19 0.16 0.14 0.17 0.22 0.28 0.26 0.24 0.46 0.41 0.17 0.04 0.03 0.02 0.01 0.01 0.00 0.00 0.01 0.01 0.00 0.00 0.00 0.00 0.00 0.00 0.00 0.01 0.03 0.02 0.03 0.04 0.04 0.06 0.06
0.87 0.89 0.82 0.37 0.26 0.14 0.06 0.07 0.17 0.18 0.19 0.20 0.26 0.30 0.21 0.18 0.26 0.29 0.12 0.04 0.03 0.03 0.02 0.01 0.00 0.00 0.01 0.02 0.02 0.02 0.01 0.00 0.00 0.00 0.00 0.01 0.02 0.01 0.02 0.04 0.05 0.06 0.08
1.34 1.23 1.13 0.72 0.38 0.12 0.07 0.06 0.14 0.17 0.14 0.17 0.21 0.16 0.08 0.04 0.10 0.23 0.07 0.04 0.03 0.03 0.02 0.01 0.01 0.03 0.03 0.02 0.02 0.01 0.01 0.00 0.00 0.00 0.00 0.00 0.01 0.02 0.04 0.05 0.05 0.07 0.11
1.77 1.65 1.50 1.28 0.67 0.32 0.12 0.10 0.18 0.22 0.14 0.13 0.14 0.10 0.10 0.03 0.02 0.10 0.04 0.02 0.02 0.05 0.03 0.02 0.01 0.03 0.02 0.01 0.01 0.00 0.00 0.00 0.00 0.00 0.00 0.00 0.01 0.02 0.04 0.04 0.06 0.06 0.07
1.84 1.66 1.50 1.31 0.86 0.38 0.23 0.19 0.12 0.28 0.21 0.07 0.08 0.09 0.07 0.04 0.02 0.03 0.04 0.02 0.03 0.05 0.02 0.03 0.01 0.01 0.01 0.00 0.00 0.00 0.00 0.00 0.00 0.00 0.00 0.00 0.00 0.02 0.02 0.03 0.04 0.02 0.02
2.25 1.53 1.25 1.20 1.14 0.67 0.29 0.16 0.14 0.47 0.36 0.16 0.06 0.07 0.10 0.09 0.06 0.06 0.05 0.01 0.01 0.01 0.00 0.01 0.00 0.00 0.00 0.00 0.00 0.00 0.00 0.00 0.00 0.00 0.00 0.00 0.00 0.01 0.02 0.02 0.04 0.03 0.05
3.49 1.92 1.30 1.02 0.73 0.60 0.36 0.09 0.04 0.19 0.27 0.24 0.15 0.07 0.07 0.05 0.08 0.07 0.05 0.01 0.00 0.00 0.00 0.00 0.00 0.00 0.00 0.00 0.00 0.00 0.00 0.00 0.00 0.00 0.00 0.00 0.00 0.00 0.00 0.03 0.08 0.10 0.15
4.14 3.67 2.07 1.51 1.41 0.55 0.40 0.12 0.04 0.05 0.30 0.22 0.21 0.11 0.14 0.09 0.10 0.06 0.06 0.04 0.01 0.00 0.01 0.00 0.00 0.00 0.00 0.00 0.00 0.00 0.00 0.00 0.00 0.00 0.00 0.00 0.00 0.00 0.00 0.02 0.05 0.07 0.11
1.62 3.06 3.61 2.19 1.43 1.22 0.84 0.31 0.10 0.03 0.11 0.31 0.22 0.16 0.11 0.13 0.16 0.08 0.06 0.03 0.01 0.01 0.01 0.01 0.00 0.00 0.00 0.00 0.00 0.00 0.00 0.00 0.00 0.00 0.00 0.00 0.00 0.00 0.00 0.00 0.02 0.09 0.18
0.85 1.63 2.32 2.43 1.66 1.26 1.14 0.75 0.24 0.13 0.05 0.23 0.30 0.24 0.15 0.08 0.06 0.05 0.05 0.05 0.04 0.05 0.03 0.03 0.01 0.00 0.00 0.00 0.00 0.00 0.00 0.00 0.00 0.00 0.00 0.00 0.00 0.00 0.00 0.00 0.02 0.10 0.21
0.56 0.75 1.13 1.11 1.53 1.20 1.40 1.06 0.72 0.36 0.14 0.15 0.40 0.35 0.24 0.23 0.16 0.09 0.03 0.04 0.08 0.09 0.07 0.03 0.01 0.00 0.00 0.00 0.00 0.00 0.00 0.00 0.00 0.00 0.00 0.00 0.00 0.00 0.00 0.00 0.02 0.06 0.06
0.45 0.52 0.66 0.65 0.58 0.85 1.08 1.39 1.24 0.90 0.42 0.21 0.22 0.37 0.56 0.34 0.38 0.23 0.13 0.08 0.06 0.09 0.09 0.06 0.03 0.01 0.00 0.00 0.00 0.00 0.00 0.00 0.00 0.00 0.00 0.00 0.00 0.00 0.00 0.00 0.00 0.00 0.02
0.53 0.43 0.40 0.45 0.36 0.46 0.73 1.21 1.34 1.12 0.86 0.45 0.19 0.10 0.39 0.74 0.60 0.68 0.47 0.33 0.33 0.36 0.47 0.43 0.16 0.06 0.02 0.01 0.01 0.00 0.00 0.00 0.00 0.00 0.00 0.00 0.01 0.01 0.00 0.01 0.00 0.00 0.02
0.70 0.52 0.34 0.28 0.38 0.48 0.60 0.80 0.99 0.91 1.05 0.94 0.72 0.65 0.35 0.42 0.67 0.68 0.63 0.64 0.60 0.57 0.48 0.45 0.41 0.22 0.11 0.10 0.07 0.01 0.00 0.00 0.00 0.00 0.00 0.01 0.01 0.02 0.01 0.01 0.01 0.02 0.05
1.00 0.72 0.68 0.55 0.71 0.54 0.62 0.93 1.06 1.08 1.02 1.23 1.24 1.01 1.12 0.94 0.87 0.80 0.54 0.43 0.43 0.51 0.46 0.35 0.36 0.38 0.25 0.25 0.24 0.12 0.03 0.00 0.00 0.00 0.00 0.00 0.00 0.00 0.01 0.02 0.04 0.07 0.06
1.25 0.85 0.73 0.76 0.68 0.47 0.55 0.82 1.15 1.46 1.45 1.05 0.72 0.64 0.70 1.08 1.16 1.20 1.08 1.03 0.92 0.75 0.64 0.54 0.50 0.54 0.59 0.43 0.30 0.34 0.14 0.02 0.01 0.00 0.00 0.00 0.00 0.01 0.02 0.04 0.09 0.09 0.06
1.24 0.87 0.73 0.87 0.82 0.85 1.11 1.20 0.97 1.02 1.25 1.16 1.29 1.11 1.30 1.25 1.16 1.33 1.46 1.32 1.37 1.30 1.11 1.04 0.93 0.79 0.66 0.46 0.43 0.31 0.28 0.14 0.11 0.06 0.02 0.03 0.05 0.07 0.10 0.12 0.11 0.09 0.04
1.57 0.95 0.70 1.20 1.30 1.23 1.19 1.65 1.59 1.70 1.37 1.39 1.56 1.62 1.53 1.69 1.82 1.83 1.84 1.88 1.70 1.69 1.75 1.51 1.36 1.21 1.09 0.90 0.66 0.55 0.42 0.29 0.21 0.22 0.12 0.10 0.11 0.10 0.10 0.08 0.05 0.02 0.02
1.39 1.37 1.00 0.98 1.10 1.11 1.08 1.44 1.63 1.30 1.20 1.08 1.21 1.44 1.40 1.44 1.63 1.92 1.98 1.88 1.83 1.49 1.31 1.24 1.17 1.08 0.98 0.86 0.65 0.52 0.52 0.52 0.41 0.40 0.32 0.20 0.19 0.15 0.11 0.07 0.04 0.04 0.05

GFSSE_prec_precacc_123.txt.gz
Total_Precipitation_Accumulation
0.00 0.05 0.21 0.14 0.11 0.12 0.09 0.12 0.14 0.13 0.16 0.16 0.17 0.14 0.13 0.26 0.30 0.17 0.11 0.07 0.12 0.16 0.16 0.25 0.37 0.40 0.44 0.32 0.13 0.05 0.03 0.03 0.03 0.02 0.04 0.13 0.16 0.11 0.09 0.10 0.11 0.09 0.15
0.00 0.05 0.15 0.12 0.13 0.15 0.16 0.14 0.13 0.11 0.15 0.15 0.18 0.16 0.14 0.32 0.20 0.07 0.04 0.07 0.10 0.13 0.21 0.31 0.37 0.27 0.17 0.07 0.02 0.01 0.00 0.00 0.00 0.00 0.00 0.01 0.10 0.12 0.06 0.06 0.15 0.12 0.14
0.01 0.06 0.07 0.11 0.17 0.17 0.13 0.09 0.06 0.08 0.13 0.13 0.22 0.25 0.18 0.32 0.10 0.03 0.08 0.08 0.13 0.21 0.34 0.33 0.13 0.03 0.02 0.01 0.01 0.00 0.00 0.00 0.00 0.00 0.00 0.02 0.05 0.13 0.11 0.09 0.11 0.10 0.09
0.02 0.06 0.05 0.12 0.17 0.13 0.10 0.06 0.05 0.07 0.11 0.16 0.28 0.25 0.26 0.30 0.03 0.08 0.08 0.12 0.18 0.24 0.18 0.05 0.01 0.02 0.01 0.00 0.00 0.00 0.00 0.00 0.00 0.00 0.00 0.00 0.01 0.03 0.06 0.10 0.09 0.08 0.08
0.05 0.08 0.08 0.14 0.16 0.14 0.11 0.08 0.07 0.06 0.12 0.23 0.31 0.42 0.47 0.34 0.19 0.29 0.16 0.15 0.08 0.03 0.02 0.02 0.01 0.00 0.00 0.00 0.00 0.00 0.00 0.00 0.00 0.00 0.00 0.02 0.05 0.15 0.14 0.13 0.14 0.17 0.22
0.09 0.14 0.13 0.19 0.15 0.13 0.13 0.11 0.07 0.06 0.09 0.20 0.31 0.45 0.39 0.29 0.50 0.62 0.27 0.13 0.02 0.03 0.02 0.01 0.00 0.00 0.00 0.00 0.00 0.00 0.00 0.00 0.00 0.01 0.01 0.05 0.09 0.21 0.16 0.13 0.22 0.27 0.27
0.10 0.14 0.12 0.25 0.17 0.15 0.19 0.15 0.15 0.13 0.11 0.17 0.25 0.25 0.19 0.26 0.68 0.59 0.31 0.11 0.02 0.03 0.01 0.00 0.00 0.00 0.00 0.00 0.00 0.00 0.00 0.00 0.00 0.00 0.00 0.01 0.04 0.08 0.07 0.05 0.04 0.08 0.12
0.32 0.38 0.28 0.27 0.21 0.14 0.16 0.20 0.22 0.19 0.16 0.19 0.24 0.29 0.31 0.29 0.51 0.48 0.27 0.11 0.03 0.02 0.01 0.01 0.00 0.00 0.01 0.01 0.00 0.00 0.00 0.00 0.00 0.00 0.00 0.01 0.03 0.02 0.03 0.04 0.04 0.06 0.06
0.87 0.91 0.85 0.38 0.27 0.15 0.09 0.11 0.21 0.21 0.21 0.22 0.28 0.31 0.24 0.20 0.27 0.33 0.20 0.10 0.04 0.03 0.02 0.01 0.00 0.00 0.01 0.02 0.02 0.02 0.01 0.00 0.00 0.00 0.00 0.01 0.02 0.01 0.02 0.04 0.05 0.06 0.08
1.34 1.23 1.14 0.75 0.41 0.13 0.07 0.08 0.16 0.20 0.16 0.20 0.22 0.17 0.10 0.06 0.10 0.27 0.11 0.06 0.04 0.03 0.02 0.01 0.01 0.03 0.03 0.02 0.02 0.01 0.01 0.00 0.00 0.00 0.00 0.00 0.01 0.02 0.04 0.05 0.05 0.07 0.11
1.77 1.65 1.50 1.28 0.69 0.34 0.13 0.10 0.18 0.23 0.16 0.15 0.15 0.10 0.10 0.03 0.02 0.11 0.05 0.02 0.04 0.05 0.03 0.02 0.01 0.03 0.02 0.01 0.01 0.00 0.00 0.00 0.00 0.00 0.00 0.00 0.01 0.02 0.04 0.04 0.06 0.06 0.07
1.84 1.66 1.50 1.31 0.86 0.39 0.24 0.19 0.12 0.28 0.21 0.07 0.08 0.09 0.07 0.04 0.02 0.05 0.05 0.04 0.05 0.05 0.02 0.03 0.01 0.01 0.01 0.00 0.00 0.00 0.00 0.00 0.00 0.00 0.00 0.00 0.00 0.02 0.02 0.03 0.04 0.02 0.02
2.25 1.53 1.25 1.20 1.14 0.67 0.29 0.17 0.16 0.49 0.37 0.17 0.06 0.07 0.10 0.09 0.08 0.11 0.08 0.02 0.02 0.01 0.00 0.01 0.00 0.00 0.00 0.00 0.00 0.00 0.00 0.00 0.00 0.00 0.00 0.00 0.00 0.01 0.02 0.02 0.04 0.03 0.05
3.49 1.92 1.30 1.02 0.73 0.60 0.36 0.09 0.05 0.21 0.28 0.24 0.15 0.07 0.07 0.05 0.09 0.14 0.09 0.03 0.01 0.00 0.00 0.00 0.00 0.00 0.00 0.00 0.00 0.00 0.00 0.00 0.00 0.00 0.00 0.00 0.00 0.00 0.00 0.03 0.09 0.12 0.16
4.14 3.67 2.07 1.51 1.41 0.55 0.40 0.12 0.04 0.05 0.30 0.22 0.21 0.11 0.14 0.12 0.13 0.09 0.12 0.10 0.06 0.02 0.02 0.00 0.00 0.00 0.00 0.00 0.00 0.00 0.00 0.00 0.00 0.00 0.00 0.00 0.00 0.00 0.00 0.02 0.06 0.09 0.13
1.62 3.06 3.61 2.19 1.43 1.22 0.84 0.31 0.10 0.03 0.12 0.31 0.22 0.16 0.12 0.15 0.22 0.14 0.12 0.07 0.05 0.07 0.02 0.01 0.00 0.00 0.00 0.00 0.00 0.00 0.00 0.00 0.00 0.00 0.00 0.00 0.00 0.00 0.00 0.00 0.02 0.09 0.21
0.85 1.63 2.32 2.43 1.66 1.26 1.14 0.75 0.24 0.13 0.05 0.23 0.30 0.24 0.16 0.09 0.09 0.11 0.11 0.12 0.13 0.15 0.12 0.05 0.01 0.00 0.00 0.00 0.00 0.00 0.00 0.00 0.00 0.00 0.00 0.00 0.00 0.00 0.00 0.00 0.02 0.10 0.21
0.56 0.75 1.13 1.11 1.53 1.20 1.40 1.06 0.72 0.37 0.15 0.15 0.40 0.35 0.24 0.24 0.16 0.10 0.05 0.05 0.11 0.17 0.16 0.07 0.01 0.00 0.00 0.00 0.00 0.00 0.00 0.00 0.00 0.00 0.00 0.00 0.00 0.00 0.00 0.00 0.02 0.06 0.06
0.45 0.52 0.66 0.65 0.58 0.85 1.08 1.39 1.24 0.90 0.43 0.21 0.22 0.37 0.56 0.34 0.38 0.23 0.13 0.08 0.07 0.12 0.11 0.07 0.03 0.01 0.00 0.00 0.00 0.00 0.00 0.00 0.00 0.00 0.00 0.00 0.00 0.00 0.00 0.00 0.00 0.00 0.02
0.53 0.43 0.40 0.45 0.36 0.46 0.73 1.21 1.35 1.13 0.87 0.46 0.20 0.10 0.39 0.74 0.60 0.68 0.47 0.33 0.33 0.37 0.48 0.44 0.17 0.07 0.02 0.01 0.01 0.00 0.00 0.00 0.00 0.00 0.00 0.00 0.01 0.01 0.00 0.01 0.00 0.00 0.02
0.70 0.52 0.34 0.28 0.38 0.48 0.60 0.80 0.99 0.92 1.06 0.94 0.72 0.65 0.35 0.42 0.67 0.68 0.63 0.64 0.60 0.57 0.48 0.46 0.42 0.24 0.11 0.12 0.08 0.02 0.00 0.00 0.00 0.00 0.00 0.01 0.01 0.02 0.01 0.01 0.01 0.02 0.05
1.00 0.72 0.68 0.55 0.71 0.54 0.62 0.93 1.06 1.08 1.02 1.25 1.25 1.01 1.12 0.94 0.87 0.80 0.54 0.43 0.43 0.51 0.47 0.37 0.39 0.40 0.27 0.27 0.25 0.13 0.03 0.00 0.00 0.00 0.00 0.00 0.00 0.00 0.01 0.02 0.04 0.07 0.08
1.25 0.85 0.73 0.76 0.68 0.47 0.55 0.82 1.15 1.46 1.46 1.07 0.74 0.65 0.70 1.08 1.16 1.20 1.08 1.03 0.92 0.76 0.65 0.54 0.51 0.56 0.61 0.44 0.32 0.36 0.15 0.03 0.01 0.00 0.00 0.00 0.00 0.01 0.02 0.05 0.12 0.19 0.15
1.24 0.87 0.73 0.87 0.82 0.85 1.11 1.20 0.97 1.02 1.25 1.17 1.30 1.12 1.30 1.25 1.16 1.33 1.46 1.32 1.37 1.31 1.12 1.05 0.93 0.80 0.69 0.48 0.45 0.32 0.29 0.15 0.12 0.07 0.02 0.03 0.05 0.07 0.11 0.14 0.15 0.12 0.06
1.57 0.95 0.70 1.20 1.30 1.23 1.19 1.65 1.59 1.70 1.37 1.41 1.60 1.64 1.53 1.69 1.82 1.83 1.84 1.88 1.71 1.70 1.75 1.53 1.39 1.22 1.12 0.94 0.70 0.57 0.43 0.31 0.22 0.22 0.12 0.10 0.11 0.10 0.10 0.08 0.05 0.03 0.02
1.39 1.37 1.00 0.98 1.10 1.11 1.08 1.44 1.63 1.30 1.20 1.08 1.23 1.47 1.40 1.44 1.63 1.92 1.98 1.88 1.84 1.50 1.32 1.25 1.20 1.10 1.00 0.88 0.67 0.54 0.54 0.54 0.44 0.43 0.34 0.20 0.20 0.15 0.11 0.07 0.04 0.04 0.05

GFSSE_prec_precacc_126.txt.gz
Total_Precipitation_Accumulation
0.00 0.06 0.21 0.14 0.11 0.12 0.09 0.12 0.16 0.15 0.20 0.19 0.17 0.14 0.13 0.26 0.30 0.17 0.11 0.07 0.12 0.17 0.16 0.26 0.40 0.45 0.47 0.33 0.13 0.06 0.03 0.03 0.03 0.02 0.07 0.17 0.21 0.15 0.12 0.11 0.11 0.09 0.15
0.01 0.05 0.15 0.12 0.13 0.15 0.16 0.14 0.14 0.12 0.16 0.17 0.22 0.19 0.14 0.32 0.20 0.07 0.04 0.07 0.10 0.15 0.22 0.34 0.38 0.27 0.18 0.07 0.03 0.01 0.00 0.00 0.00 0.00 0.01 0.02 0.10 0.12 0.06 0.06 0.15 0.12 0.14
0.01 0.06 0.07 0.11 0.17 0.17 0.13 0.09 0.07 0.08 0.13 0.14 0.24 0.29 0.19 0.32 0.10 0.03 0.08 0.08 0.13 0.21 0.35 0.33 0.13 0.03 0.02 0.01 0.01 0.01 0.00 0.00 0.00 0.01 0.01 0.02 0.05 0.13 0.11 0.09 0.11 0.10 0.09
0.02 0.06 0.05 0.12 0.17 0.13 0.10 0.07 0.05 0.07 0.12 0.16 0.28 0.26 0.26 0.30 0.03 0.08 0.08 0.12 0.18 0.24 0.18 0.05 0.01 0.02 0.01 0.00 0.01 0.00 0.00 0.00 0.00 0.01 0.01 0.00 0.01 0.03 0.06 0.10 0.09 0.08 0.08
0.05 0.10 0.08 0.14 0.17 0.16 0.12 0.08 0.07 0.06 0.13 0.23 0.32 0.43 0.47 0.34 0.19 0.29 0.16 0.15 0.08 0.03 0.02 0.02 0.01 0.00 0.00 0.00 0.00 0.00 0.00 0.00 0.00 0.00 0.00 0.02 0.05 0.15 0.14 0.13 0.14 0.17 0.22
0.11 0.16 0.15 0.21 0.17 0.16 0.15 0.13 0.09 0.08 0.10 0.21 0.31 0.45 0.39 0.29 0.52 0.63 0.28 0.14 0.02 0.03 0.02 0.01 0.00 0.00 0.00 0.00 0.00 0.00 0.00 0.00 0.00 0.01 0.01 0.05 0.09 0.21 0.16 0.13 0.22 0.27 0.27
0.11 0.16 0.18 0.29 0.20 0.16 0.20 0.17 0.17 0.15 0.12 0.18 0.26 0.25 0.19 0.28 0.74 0.65 0.35 0.15 0.03 0.03 0.01 0.00 0.00 0.00 0.00 0.00 0.00 0.00 0.00 0.00 0.00 0.00 0.00 0.01 0.04 0.08 0.07 0.05 0.04 0.08 0.12
0.32 0.40 0.32 0.29 0.22 0.15 0.17 0.20 0.23 0.20 0.17 0.20 0.25 0.30 0.32 0.33 0.55 0.52 0.31 0.20 0.06 0.02 0.01 0.01 0.00 0.00 0.01 0.01 0.00 0.00 0.00 0.00 0.00 0.00 0.00 0.01 0.03 0.02 0.03 0.04 0.04 0.06 0.06
0.88 0.91 0.86 0.40 0.27 0.15 0.09 0.11 0.21 0.21 0.22 0.22 0.28 0.31 0.24 0.21 0.27 0.34 0.24 0.16 0.08 0.03 0.02 0.01 0.00 0.00 0.01 0.02 0.02 0.02 0.01 0.00 0.00 0.00 0.00 0.01 0.02 0.01 0.02 0.04 0.05 0.06 0.08
1.34 1.23 1.15 0.76 0.42 0.13 0.07 0.08 0.16 0.20 0.16 0.20 0.22 0.17 0.10 0.06 0.10 0.27 0.11 0.08 0.07 0.04 0.02 0.01 0.01 0.03 0.03 0.02 0.02 0.01 0.01 0.00 0.00 0.00 0.00 0.00 0.01 0.02 0.04 0.05 0.05 0.07 0.11
1.77 1.65 1.50 1.28 0.71 0.35 0.13 0.10 0.18 0.23 0.16 0.15 0.15 0.10 0.10 0.03 0.02 0.11 0.05 0.02 0.04 0.06 0.03 0.02 0.01 0.03 0.02 0.01 0.01 0.00 0.00 0.00 0.00 0.00 0.00 0.00 0.01 0.02 0.04 0.04 0.06 0.06 0.07
1.84 1.66 1.50 1.31 0.86 0.41 0.29 0.23 0.12 0.28 0.21 0.07 0.08 0.09 0.07 0.04 0.03 0.05 0.06 0.04 0.05 0.06 0.02 0.03 0.01 0.01 0.01 0.00 0.00 0.00 0.00 0.00 0.00 0.00 0.00 0.00 0.00 0.02 0.02 0.03 0.04 0.02 0.02
2.25 1.53 1.25 1.20 1.14 0.67 0.30 0.21 0.16 0.49 0.37 0.17 0.06 0.07 0.10 0.09 0.08 0.11 0.09 0.02 0.02 0.01 0.00 0.01 0.00 0.00 0.00 0.00 0.00 0.00 0.00 0.00 0.00 0.00 0.00 0.00 0.00 0.01 0.02 0.02 0.04 0.03 0.05
3.49 1.92 1.30 1.02 0.73 0.60 0.36 0.10 0.07 0.23 0.29 0.25 0.15 0.07 0.07 0.05 0.09 0.14 0.11 0.04 0.01 0.00 0.00 0.00 0.00 0.00 0.00 0.00 0.00 0.00 0.00 0.00 0.00 0.00 0.00 0.00 0.00 0.00 0.00 0.03 0.09 0.13 0.17
4.14 3.67 2.07 1.51 1.41 0.55 0.40 0.12 0.06 0.10 0.34 0.25 0.23 0.11 0.14 0.12 0.13 0.10 0.13 0.11 0.07 0.03 0.02 0.00 0.00 0.00 0.00 0.00 0.00 0.00 0.00 0.00 0.00 0.00 0.00 0.00 0.00 0.00 0.00 0.02 0.06 0.09 0.14
1.62 3.06 3.61 2.19 1.43 1.22 0.84 0.31 0.10 0.04 0.15 0.34 0.22 0.16 0.12 0.15 0.23 0.15 0.15 0.09 0.06 0.08 0.04 0.02 0.00 0.00 0.00 0.00 0.00 0.00 0.00 0.00 0.00 0.00 0.00 0.00 0.00 0.00 0.00 0.00 0.02 0.09 0.21
0.85 1.63 2.32 2.43 1.66 1.26 1.14 0.75 0.24 0.13 0.07 0.26 0.31 0.24 0.16 0.10 0.09 0.13 0.14 0.15 0.17 0.23 0.19 0.10 0.02 0.00 0.00 0.00 0.00 0.00 0.00 0.00 0.00 0.00 0.00 0.00 0.00 0.00 0.00 0.00 0.02 0.10 0.21
0.56 0.75 1.13 1.11 1.53 1.20 1.40 1.06 0.72 0.37 0.16 0.17 0.43 0.38 0.25 0.25 0.17 0.10 0.07 0.06 0.16 0.24 0.24 0.12 0.03 0.01 0.00 0.00 0.00 0.00 0.00 0.00 0.00 0.00 0.00 0.00 0.00 0.00 0.00 0.00 0.02 0.06 0.06
0.45 0.52 0.66 0.65 0.58 0.85 1.08 1.39 1.24 0.90 0.43 0.22 0.25 0.40 0.57 0.34 0.39 0.24 0.14 0.10 0.16 0.21 0.18 0.14 0.09 0.03 0.00 0.00 0.00 0.00 0.00 0.00 0.00 0.00 0.00 0.00 0.00 0.00 0.00 0.00 0.00 0.00 0.02
0.53 0.43 0.40 0.45 0.36 0.46 0.73 1.21 1.35 1.13 0.87 0.47 0.22 0.13 0.41 0.78 0.63 0.68 0.48 0.34 0.34 0.41 0.53 0.50 0.19 0.09 0.03 0.02 0.01 0.00 0.00 0.00 0.00 0.00 0.00 0.00 0.01 0.01 0.00 0.01 0.00 0.00 0.02
0.70 0.52 0.34 0.28 0.38 0.48 0.60 0.80 0.99 0.92 1.06 0.95 0.74 0.68 0.37 0.42 0.69 0.69 0.66 0.67 0.61 0.57 0.49 0.48 0.45 0.26 0.13 0.12 0.11 0.03 0.01 0.00 0.00 0.00 0.00 0.01 0.01 0.02 0.01 0.01 0.01 0.02 0.05
1.00 0.72 0.68 0.55 0.71 0.54 0.62 0.93 1.06 1.09 1.03 1.25 1.25 1.04 1.18 0.97 0.88 0.80 0.54 0.43 0.43 0.51 0.47 0.37 0.39 0.41 0.28 0.28 0.27 0.15 0.04 0.00 0.00 0.00 0.00 0.00 0.00 0.00 0.01 0.02 0.04 0.08 0.08
1.25 0.85 0.73 0.76 0.68 0.47 0.55 0.82 1.15 1.46 1.46 1.08 0.75 0.68 0.74 1.12 1.18 1.20 1.08 1.03 0.92 0.76 0.65 0.55 0.51 0.57 0.62 0.45 0.34 0.38 0.16 0.03 0.01 0.00 0.00 0.00 0.00 0.01 0.02 0.05 0.13 0.19 0.15
1.24 0.87 0.73 0.87 0.82 0.85 1.11 1.20 0.97 1.02 1.25 1.17 1.32 1.16 1.36 1.30 1.19 1.33 1.48 1.33 1.37 1.31 1.12 1.06 0.94 0.81 0.71 0.49 0.45 0.34 0.30 0.16 0.12 0.07 0.02 0.03 0.05 0.07 0.11 0.14 0.15 0.12 0.06
1.57 0.95 0.70 1.20 1.30 1.23 1.19 1.65 1.59 1.70 1.37 1.41 1.60 1.67 1.60 1.76 1.87 1.88 1.86 1.89 1.71 1.70 1.75 1.53 1.39 1.23 1.13 0.96 0.73 0.59 0.45 0.33 0.26 0.26 0.13 0.10 0.11 0.10 0.10 0.08 0.06 0.03 0.02
1.39 1.37 1.00 0.98 1.10 1.11 1.08 1.44 1.63 1.30 1.20 1.08 1.23 1.47 1.43 1.47 1.67 1.94 1.98 1.88 1.84 1.50 1.32 1.25 1.20 1.11 1.01 0.90 0.70 0.58 0.57 0.58 0.49 0.52 0.47 0.28 0.23 0.16 0.12 0.07 0.04 0.04 0.05

GFSSE_prec_precacc_129.txt.gz
Total_Precipitation_Accumulation
0.01 0.06 0.21 0.14 0.11 0.13 0.09 0.12 0.16 0.15 0.20 0.19 0.17 0.14 0.13 0.26 0.30 0.17 0.11 0.07 0.12 0.17 0.17 0.28 0.45 0.49 0.48 0.34 0.17 0.06 0.05 0.04 0.03 0.04 0.09 0.21 0.25 0.16 0.12 0.11 0.11 0.09 0.15
0.01 0.06 0.16 0.12 0.13 0.15 0.16 0.15 0.15 0.12 0.17 0.17 0.23 0.19 0.14 0.32 0.20 0.07 0.04 0.07 0.11 0.16 0.24 0.36 0.38 0.28 0.18 0.07 0.03 0.01 0.00 0.00 0.00 0.01 0.01 0.02 0.10 0.12 0.06 0.06 0.15 0.12 0.14
0.02 0.08 0.07 0.11 0.17 0.17 0.13 0.10 0.07 0.08 0.14 0.14 0.26 0.30 0.19 0.32 0.10 0.03 0.08 0.08 0.14 0.23 0.36 0.34 0.13 0.03 0.02 0.01 0.01 0.01 0.00 0.03 0.03 0.06 0.03 0.02 0.05 0.13 0.11 0.09 0.11 0.10 0.09
0.03 0.08 0.06 0.12 0.18 0.14 0.11 0.07 0.06 0.07 0.12 0.16 0.29 0.26 0.26 0.30 0.03 0.08 0.08 0.12 0.18 0.25 0.19 0.05 0.01 0.02 0.01 0.00 0.01 0.00 0.00 0.01 0.01 0.01 0.02 0.00 0.01 0.03 0.06 0.10 0.09 0.08 0.08
0.06 0.12 0.09 0.15 0.18 0.16 0.13 0.10 0.08 0.07 0.14 0.23 0.32 0.44 0.47 0.34 0.19 0.29 0.16 0.15 0.08 0.03 0.02 0.02 0.01 0.00 0.00 0.00 0.00 0.00 0.00 0.00 0.00 0.00 0.00 0.02 0.05 0.15 0.14 0.13 0.14 0.17 0.22
0.12 0.20 0.19 0.23 0.23 0.19 0.16 0.13 0.09 0.09 0.11 0.21 0.31 0.45 0.39 0.29 0.52 0.63 0.29 0.14 0.02 0.03 0.02 0.01 0.00 0.00 0.00 0.00 0.00 0.00 0.00 0.00 0.00 0.01 0.01 0.05 0.09 0.21 0.16 0.13 0.22 0.27 0.27
0.12 0.19 0.26 0.37 0.25 0.21 0.24 0.17 0.18 0.17 0.14 0.18 0.26 0.25 0.19 0.29 0.76 0.68 0.36 0.16 0.03 0.03 0.01 0.00 0.00 0.00 0.00 0.00 0.00 0.00 0.00 0.00 0.00 0.00 0.00 0.01 0.04 0.08 0.07 0.05 0.04 0.08 0.12
0.32 0.40 0.33 0.31 0.26 0.20 0.19 0.23 0.24 0.22 0.18 0.20 0.25 0.30 0.32 0.34 0.56 0.53 0.33 0.23 0.08 0.02 0.01 0.01 0.00 0.00 0.01 0.01 0.00 0.00 0.00 0.00 0.00 0.00 0.00 0.01 0.03 0.02 0.03 0.04 0.04 0.06 0.06
0.88 0.91 0.87 0.41 0.27 0.16 0.10 0.11 0.21 0.21 0.22 0.22 0.28 0.31 0.24 0.21 0.27 0.34 0.24 0.19 0.10 0.03 0.02 0.01 0.00 0.00 0.01 0.02 0.02 0.02 0.01 0.00 0.00 0.00 0.00 0.01 0.02 0.01 0.02 0.04 0.05 0.06 0.08
1.34 1.23 1.15 0.76 0.42 0.13 0.07 0.08 0.16 0.20 0.16 0.20 0.22 0.17 0.10 0.06 0.10 0.27 0.11 0.08 0.08 0.04 0.02 0.01 0.01 0.03 0.03 0.02 0.02 0.01 0.01 0.00 0.00 0.00 0.00 0.00 0.01 0.02 0.04 0.05 0.05 0.07 0.11
1.77 1.65 1.50 1.28 0.71 0.35 0.13 0.10 0.18 0.23 0.16 0.15 0.15 0.10 0.10 0.03 0.02 0.11 0.05 0.02 0.04 0.06 0.03 0.02 0.01 0.03 0.02 0.01 0.01 0.00 0.00 0.00 0.00 0.00 0.00 0.00 0.01 0.02 0.04 0.04 0.06 0.06 0.07
1.84 1.66 1.50 1.31 0.86 0.41 0.29 0.23 0.12 0.28 0.21 0.07 0.08 0.09 0.07 0.04 0.03 0.05 0.06 0.04 0.05 0.06 0.02 0.03 0.01 0.01 0.01 0.00 0.00 0.00 0.00 0.00 0.00 0.00 0.00 0.00 0.00 0.02 0.02 0.03 0.04 0.02 0.02
2.25 1.53 1.25 1.20 1.14 0.67 0.30 0.21 0.16 0.49 0.37 0.17 0.06 0.07 0.10 0.09 0.08 0.11 0.09 0.02 0.02 0.01 0.00 0.01 0.00 0.00 0.00 0.00 0.00 0.00 0.00 0.00 0.00 0.00 0.00 0.00 0.00 0.01 0.02 0.02 0.04 0.03 0.05
3.49 1.92 1.30 1.02 0.73 0.60 0.36 0.10 0.08 0.24 0.29 0.25 0.15 0.07 0.07 0.05 0.09 0.15 0.11 0.04 0.01 0.00 0.00 0.00 0.00 0.00 0.00 0.00 0.00 0.00 0.00 0.00 0.00 0.00 0.00 0.00 0.00 0.00 0.00 0.03 0.09 0.13 0.17
4.14 3.67 2.07 1.51 1.41 0.55 0.40 0.12 0.06 0.11 0.36 0.26 0.25 0.12 0.15 0.12 0.14 0.10 0.13 0.11 0.07 0.03 0.02 0.00 0.00 0.00 0.00 0.00 0.00 0.00 0.00 0.00 0.00 0.00 0.00 0.00 0.00 0.00 0.00 0.02 0.06 0.09 0.14
1.62 3.06 3.61 2.19 1.43 1.22 0.84 0.31 0.10 0.04 0.16 0.38 0.26 0.19 0.14 0.20 0.25 0.16 0.15 0.10 0.06 0.08 0.04 0.02 0.00 0.00 0.00 0.00 0.00 0.00 0.00 0.00 0.00 0.00 0.00 0.00 0.00 0.00 0.00 0.00 0.02 0.09 0.21
0.85 1.63 2.32 2.43 1.66 1.26 1.14 0.75 0.24 0.13 0.07 0.27 0.34 0.25 0.18 0.16 0.12 0.14 0.15 0.16 0.18 0.25 0.21 0.11 0.02 0.00 0.00 0.00 0.00 0.00 0.00 0.00 0.00 0.00 0.00 0.00 0.00 0.00 0.00 0.00 0.02 0.10 0.21
0.56 0.75 1.13 1.11 1.53 1.20 1.40 1.06 0.72 0.37 0.16 0.17 0.45 0.41 0.28 0.26 0.17 0.11 0.07 0.07 0.20 0.35 0.34 0.17 0.06 0.04 0.00 0.00 0.00 0.00 0.00 0.00 0.00 0.00 0.00 0.00 0.00 0.00 0.00 0.00 0.02 0.06 0.06
0.45 0.52 0.66 0.65 0.58 0.85 1.08 1.39 1.24 0.90 0.43 0.22 0.26 0.43 0.58 0.40 0.43 0.27 0.15 0.10 0.18 0.28 0.26 0.21 0.18 0.16 0.09 0.02 0.00 0.00 0.00 0.00 0.00 0.00 0.00 0.00 0.00 0.00 0.00 0.00 0.00 0.00 0.02
0.53 0.43 0.40 0.45 0.36 0.46 0.73 1.21 1.35 1.13 0.87 0.47 0.23 0.14 0.43 0.84 0.66 0.71 0.50 0.34 0.35 0.41 0.56 0.59 0.27 0.24 0.14 0.10 0.04 0.00 0.00 0.00 0.00 0.00 0.00 0.00 0.01 0.01 0.00 0.01 0.00 0.00 0.02
0.70 0.52 0.34 0.28 0.38 0.48 0.60 0.80 0.99 0.92 1.06 0.95 0.74 0.70 0.40 0.46 0.75 0.73 0.69 0.73 0.68 0.62 0.53 0.53 0.51 0.38 0.18 0.17 0.15 0.03 0.01 0.01 0.00 0.00 0.00 0.01 0.01 0.02 0.01 0.01 0.01 0.02 0.05
1.00 0.72 0.68 0.55 0.71 0.54 0.62 0.93 1.06 1.09 1.03 1.25 1.25 1.04 1.21 1.01 0.94 0.88 0.61 0.50 0.53 0.58 0.50 0.38 0.46 0.46 0.31 0.33 0.30 0.16 0.05 0.01 0.00 0.00 0.00 0.00 0.00 0.00 0.01 0.02 0.04 0.08 0.08
1.25 0.85 0.73 0.76 0.68 0.47 0.55 0.82 1.15 1.46 1.46 1.09 0.75 0.68 0.75 1.15 1.23 1.26 1.13 1.08 0.96 0.79 0.66 0.55 0.53 0.59 0.62 0.45 0.36 0.41 0.16 0.03 0.01 0.00 0.00 0.00 0.00 0.01 0.02 0.05 0.13 0.21 0.18
1.24 0.87 0.73 0.87 0.82 0.85 1.11 1.20 0.97 1.02 1.25 1.17 1.32 1.16 1.37 1.32 1.25 1.42 1.54 1.41 1.41 1.39 1.14 1.06 0.94 0.81 0.71 0.50 0.45 0.35 0.31 0.17 0.13 0.07 0.02 0.03 0.05 0.07 0.11 0.14 0.15 0.13 0.09
1.57 0.95 0.70 1.20 1.30 1.23 1.19 1.65 1.59 1.70 1.37 1.41 1.60 1.67 1.60 1.78 1.92 1.97 2.00 2.02 1.80 1.74 1.81 1.54 1.39 1.23 1.13 0.96 0.73 0.59 0.45 0.34 0.28 0.29 0.17 0.11 0.11 0.10 0.10 0.09 0.06 0.03 0.02
1.39 1.37 1.00 0.98 1.10 1.11 1.08 1.44 1.63 1.30 1.20 1.08 1.23 1.47 1.43 1.48 1.68 1.97 2.10 1.98 1.91 1.52 1.34 1.28 1.20 1.11 1.01 0.91 0.71 0.59 0.58 0.59 0.50 0.56 0.55 0.35 0.29 0.19 0.13 0.08 0.05 0.04 0.05

GFSSE_prec_precacc_132.txt.gz
Total_Precipitation_Accumulation
0.02 0.07 0.22 0.15 0.12 0.13 0.10 0.14 0.21 0.16 0.20 0.19 0.17 0.14 0.13 0.26 0.30 0.17 0.11 0.07 0.12 0.17 0.18 0.29 0.47 0.50 0.48 0.35 0.17 0.09 0.08 0.04 0.03 0.05 0.12 0.25 0.26 0.16 0.12 0.11 0.11 0.09 0.15
0.02 0.06 0.17 0.13 0.14 0.16 0.19 0.18 0.18 0.13 0.17 0.17 0.24 0.19 0.14 0.32 0.20 0.07 0.04 0.07 0.12 0.18 0.27 0.37 0.38 0.28 0.18 0.07 0.03 0.01 0.00 0.00 0.02 0.03 0.02 0.02 0.10 0.12 0.06 0.06 0.15 0.12 0.14
0.03 0.08 0.09 0.13 0.17 0.18 0.16 0.11 0.09 0.09 0.14 0.15 0.26 0.30 0.19 0.32 0.10 0.03 0.08 0.09 0.16 0.25 0.37 0.34 0.13 0.03 0.02 0.01 0.01 0.01 0.00 0.03 0.05 0.06 0.03 0.02 0.05 0.13 0.11 0.09 0.11 0.10 0.09
0.03 0.09 0.07 0.14 0.18 0.14 0.12 0.09 0.09 0.09 0.12 0.16 0.29 0.27 0.26 0.30 0.03 0.08 0.08 0.12 0.19 0.26 0.19 0.05 0.01 0.02 0.01 0.00 0.01 0.00 0.01 0.01 0.01 0.02 0.02 0.00 0.01 0.03 0.06 0.10 0.09 0.08 0.08
0.06 0.13 0.09 0.18 0.20 0.17 0.14 0.11 0.09 0.07 0.14 0.23 0.33 0.45 0.47 0.34 0.19 0.29 0.16 0.15 0.08 0.04 0.02 0.02 0.01 0.00 0.00 0.00 0.00 0.00 0.00 0.00 0.00 0.00 0.00 0.02 0.05 0.15 0.14 0.13 0.14 0.17 0.22
0.12 0.24 0.22 0.28 0.28 0.21 0.16 0.14 0.11 0.11 0.11 0.21 0.31 0.45 0.39 0.29 0.52 0.64 0.29 0.14 0.02 0.03 0.02 0.01 0.00 0.00 0.00 0.00 0.00 0.00 0.00 0.00 0.00 0.01 0.01 0.05 0.09 0.21 0.16 0.13 0.22 0.27 0.27
0.12 0.19 0.30 0.44 0.30 0.27 0.29 0.19 0.19 0.19 0.15 0.18 0.26 0.25 0.19 0.29 0.76 0.69 0.37 0.16 0.03 0.03 0.01 0.00 0.00 0.00 0.00 0.00 0.00 0.00 0.00 0.00 0.00 0.00 0.00 0.01 0.04 0.08 0.07 0.05 0.04 0.08 0.12
0.32 0.41 0.33 0.32 0.27 0.21 0.21 0.26 0.24 0.23 0.18 0.21 0.25 0.30 0.32 0.34 0.58 0.55 0.34 0.25 0.09 0.02 0.01 0.01 0.00 0.00 0.01 0.01 0.00 0.00 0.00 0.00 0.00 0.00 0.00 0.01 0.03 0.02 0.03 0.04 0.04 0.06 0.06
0.88 0.91 0.87 0.42 0.30 0.16 0.11 0.13 0.25 0.23 0.22 0.22 0.28 0.31 0.24 0.21 0.27 0.34 0.25 0.21 0.12 0.03 0.02 0.01 0.00 0.00 0.01 0.02 0.02 0.02 0.01 0.00 0.00 0.00 0.00 0.01 0.02 0.01 0.02 0.04 0.05 0.06 0.08
1.34 1.23 1.15 0.77 0.43 0.14 0.08 0.08 0.17 0.21 0.16 0.20 0.22 0.17 0.10 0.06 0.10 0.27 0.11 0.08 0.10 0.05 0.02 0.01 0.01 0.03 0.03 0.02 0.02 0.01 0.01 0.00 0.00 0.00 0.00 0.00 0.01 0.02 0.04 0.05 0.05 0.07 0.11
1.77 1.65 1.50 1.28 0.71 0.35 0.13 0.10 0.18 0.23 0.16 0.15 0.15 0.10 0.10 0.03 0.02 0.11 0.05 0.02 0.05 0.07 0.03 0.02 0.01 0.03 0.02 0.01 0.01 0.00 0.00 0.00 0.00 0.00 0.00 0.00 0.01 0.02 0.04 0.04 0.06 0.06 0.07
1.84 1.66 1.50 1.31 0.86 0.41 0.29 0.23 0.12 0.28 0.21 0.07 0.08 0.09 0.07 0.04 0.03 0.05 0.06 0.04 0.05 0.06 0.03 0.03 0.01 0.01 0.01 0.00 0.00 0.00 0.00 0.00 0.00 0.00 0.00 0.00 0.00 0.02 0.02 0.03 0.04 0.02 0.02
2.25 1.53 1.25 1.20 1.14 0.67 0.30 0.21 0.16 0.49 0.37 0.17 0.06 0.07 0.10 0.09 0.08 0.11 0.09 0.02 0.02 0.01 0.01 0.01 0.00 0.00 0.00 0.00 0.00 0.00 0.00 0.00 0.00 0.00 0.00 0.00 0.00 0.01 0.02 0.02 0.04 0.03 0.05
3.49 1.92 1.30 1.02 0.73 0.60 0.36 0.10 0.08 0.24 0.29 0.25 0.15 0.07 0.07 0.05 0.09 0.15 0.11 0.04 0.01 0.00 0.00 0.00 0.00 0.00 0.00 0.00 0.00 0.00 0.00 0.00 0.00 0.00 0.00 0.00 0.00 0.00 0.00 0.03 0.09 0.13 0.17
4.14 3.67 2.07 1.51 1.41 0.55 0.40 0.12 0.06 0.11 0.36 0.27 0.26 0.14 0.16 0.13 0.14 0.10 0.13 0.11 0.07 0.03 0.02 0.00 0.00 0.00 0.00 0.00 0.00 0.00 0.00 0.00 0.00 0.00 0.00 0.00 0.00 0.00 0.00 0.02 0.06 0.09 0.14
1.62 3.06 3.61 2.19 1.43 1.22 0.84 0.31 0.10 0.04 0.16 0.38 0.26 0.20 0.17 0.29 0.33 0.17 0.15 0.10 0.06 0.09 0.04 0.02 0.00 0.00 0.00 0.00 0.00 0.00 0.00 0.00 0.00 0.00 0.00 0.00 0.00 0.00 0.00 0.00 0.02 0.09 0.21
0.85 1.63 2.32 2.43 1.66 1.26 1.14 0.75 0.24 0.13 0.07 0.27 0.34 0.25 0.19 0.20 0.17 0.16 0.15 0.16 0.18 0.26 0.25 0.14 0.04 0.01 0.00 0.00 0.00 0.00 0.00 0.00 0.00 0.00 0.00 0.00 0.00 0.00 0.00 0.00 0.02 0.10 0.21
0.56 0.75 1.13 1.11 1.53 1.20 1.40 1.06 0.72 0.37 0.16 0.17 0.45 0.41 0.29 0.30 0.23 0.14 0.08 0.07 0.21 0.37 0.40 0.25 0.11 0.06 0.00 0.00 0.00 0.00 0.00 0.00 0.00 0.00 0.00 0.00 0.00 0.00 0.00 0.00 0.02 0.06 0.06
0.45 0.52 0.66 0.65 0.58 0.85 1.08 1.39 1.24 0.90 0.43 0.22 0.26 0.43 0.58 0.40 0.48 0.35 0.20 0.13 0.21 0.32 0.29 0.24 0.25 0.20 0.12 0.08 0.03 0.01 0.00 0.00 0.00 0.00 0.00 0.00 0.00 0.00 0.00 0.00 0.00 0.00 0.02
0.53 0.43 0.40 0.45 0.36 0.46 0.73 1.21 1.35 1.13 0.87 0.47 0.23 0.14 0.43 0.84 0.68 0.75 0.54 0.39 0.40 0.46 0.58 0.59 0.27 0.29 0.27 0.29 0.19 0.06 0.01 0.00 0.00 0.00 0.00 0.00 0.01 0.01 0.00 0.01 0.00 0.00 0.02
0.70 0.52 0.34 0.28 0.38 0.48 0.60 0.80 0.99 0.92 1.06 0.95 0.74 0.70 0.40 0.46 0.75 0.78 0.74 0.78 0.72 0.64 0.55 0.58 0.59 0.45 0.25 0.32 0.32 0.14 0.07 0.02 0.00 0.00 0.00 0.01 0.01 0.02 0.01 0.01 0.01 0.02 0.05
1.00 0.72 0.68 0.55 0.71 0.54 0.62 0.93 1.06 1.09 1.03 1.25 1.25 1.04 1.21 1.01 0.95 0.91 0.65 0.55 0.59 0.65 0.61 0.51 0.52 0.54 0.38 0.39 0.36 0.23 0.08 0.01 0.00 0.00 0.00 0.00 0.00 0.00 0.01 0.02 0.04 0.08 0.08
1.25 0.85 0.73 0.76 0.68 0.47 0.55 0.82 1.15 1.46 1.46 1.09 0.75 0.68 0.75 1.15 1.23 1.27 1.19 1.17 1.03 0.86 0.75 0.64 0.62 0.70 0.68 0.52 0.42 0.45 0.16 0.03 0.01 0.00 0.00 0.00 0.00 0.01 0.02 0.05 0.13 0.21 0.18
1.24 0.87 0.73 0.87 0.82 0.85 1.11 1.20 0.97 1.02 1.25 1.17 1.32 1.16 1.37 1.32 1.26 1.43 1.59 1.50 1.54 1.53 1.24 1.11 0.97 0.92 0.78 0.51 0.47 0.36 0.31 0.17 0.13 0.08 0.02 0.03 0.05 0.07 0.11 0.14 0.15 0.13 0.09
1.57 0.95 0.70 1.20 1.30 1.23 1.19 1.65 1.59 1.70 1.37 1.41 1.60 1.67 1.60 1.78 1.92 1.98 2.00 2.07 1.85 1.83 1.99 1.72 1.53 1.36 1.22 1.00 0.74 0.59 0.46 0.36 0.29 0.30 0.17 0.11 0.11 0.10 0.10 0.09 0.06 0.03 0.03
1.39 1.37 1.00 0.98 1.10 1.11 1.08 1.44 1.63 1.30 1.20 1.08 1.23 1.47 1.43 1.48 1.68 1.98 2.11 2.00 1.93 1.58 1.44 1.49 1.39 1.28 1.14 0.96 0.72 0.59 0.58 0.60 0.51 0.56 0.55 0.36 0.30 0.19 0.13 0.09 0.05 0.05 0.06

GFSSE_prec_precacc_135.txt.gz
Total_Precipitation_Accumulation
0.04 0.08 0.23 0.16 0.13 0.14 0.16 0.20 0.22 0.16 0.20 0.19 0.17 0.14 0.13 0.26 0.30 0.17 0.11 0.07 0.12 0.19 0.19 0.29 0.48 0.50 0.48 0.35 0.17 0.12 0.10 0.04 0.05 0.10 0.18 0.26 0.26 0.16 0.12 0.11 0.11 0.09 0.15
0.03 0.07 0.18 0.15 0.18 0.21 0.24 0.23 0.23 0.14 0.17 0.17 0.24 0.19 0.14 0.32 0.20 0.07 0.04 0.07 0.12 0.22 0.28 0.37 0.39 0.28 0.18 0.07 0.03 0.01 0.00 0.01 0.05 0.03 0.02 0.02 0.10 0.12 0.06 0.06 0.15 0.12 0.14
0.03 0.09 0.10 0.14 0.20 0.21 0.20 0.15 0.11 0.10 0.14 0.16 0.26 0.30 0.19 0.32 0.10 0.03 0.08 0.10 0.17 0.28 0.38 0.34 0.13 0.03 0.02 0.01 0.01 0.01 0.00 0.03 0.05 0.06 0.03 0.02 0.05 0.13 0.11 0.09 0.11 0.10 0.09
0.03 0.09 0.07 0.17 0.21 0.16 0.13 0.11 0.12 0.11 0.12 0.17 0.29 0.27 0.26 0.30 0.03 0.08 0.08 0.12 0.21 0.27 0.19 0.05 0.01 0.02 0.01 0.00 0.01 0.00 0.01 0.01 0.01 0.02 0.02 0.00 0.01 0.03 0.06 0.10 0.09 0.08 0.08
0.07 0.13 0.10 0.20 0.22 0.20 0.16 0.13 0.11 0.10 0.14 0.23 0.33 0.45 0.47 0.34 0.19 0.29 0.16 0.15 0.10 0.05 0.02 0.02 0.01 0.00 0.00 0.00 0.00 0.00 0.00 0.00 0.00 0.00 0.00 0.02 0.05 0.15 0.14 0.13 0.14 0.17 0.22
0.13 0.25 0.25 0.34 0.30 0.23 0.18 0.15 0.12 0.11 0.11 0.21 0.31 0.45 0.39 0.29 0.52 0.64 0.29 0.14 0.03 0.03 0.02 0.01 0.00 0.00 0.00 0.00 0.00 0.00 0.00 0.00 0.00 0.01 0.01 0.05 0.09 0.21 0.16 0.13 0.22 0.27 0.27
0.13 0.21 0.36 0.50 0.38 0.31 0.30 0.19 0.19 0.19 0.15 0.18 0.26 0.25 0.19 0.29 0.76 0.69 0.37 0.16 0.03 0.03 0.01 0.00 0.00 0.00 0.00 0.00 0.00 0.00 0.00 0.00 0.00 0.00 0.00 0.01 0.04 0.08 0.07 0.05 0.04 0.08 0.12
0.33 0.42 0.35 0.33 0.29 0.25 0.27 0.30 0.27 0.23 0.19 0.22 0.25 0.30 0.32 0.34 0.60 0.59 0.37 0.27 0.09 0.02 0.01 0.01 0.00 0.00 0.01 0.01 0.00 0.00 0.00 0.00 0.00 0.00 0.00 0.01 0.03 0.02 0.03 0.04 0.04 0.06 0.06
0.88 0.91 0.87 0.46 0.37 0.22 0.12 0.15 0.29 0.27 0.24 0.23 0.29 0.32 0.24 0.21 0.28 0.36 0.27 0.23 0.15 0.03 0.02 0.01 0.00 0.00 0.01 0.02 0.02 0.02 0.01 0.00 0.00 0.00 0.00 0.01 0.02 0.01 0.02 0.04 0.05 0.06 0.08
1.34 1.23 1.15 0.78 0.47 0.17 0.10 0.09 0.17 0.21 0.16 0.21 0.23 0.17 0.10 0.06 0.10 0.27 0.11 0.09 0.13 0.07 0.02 0.01 0.01 0.03 0.03 0.02 0.02 0.01 0.01 0.00 0.00 0.00 0.00 0.00 0.01 0.02 0.04 0.05 0.05 0.07 0.11
1.77 1.65 1.50 1.28 0.71 0.36 0.14 0.10 0.18 0.23 0.16 0.15 0.15 0.10 0.10 0.03 0.02 0.11 0.05 0.02 0.05 0.08 0.03 0.02 0.01 0.03 0.02 0.01 0.01 0.00 0.00 0.00 0.00 0.00 0.00 0.00 0.01 0.02 0.04 0.04 0.06 0.06 0.07
1.84 1.66 1.50 1.31 0.86 0.41 0.29 0.23 0.12 0.28 0.21 0.07 0.08 0.09 0.07 0.04 0.03 0.05 0.06 0.04 0.05 0.06 0.04 0.03 0.01 0.01 0.01 0.00 0.00 0.00 0.00 0.00 0.00 0.00 0.00 0.00 0.00 0.02 0.02 0.03 0.04 0.02 0.02
2.25 1.53 1.25 1.20 1.14 0.67 0.30 0.21 0.16 0.49 0.38 0.18 0.07 0.07 0.10 0.09 0.08 0.11 0.09 0.02 0.02 0.01 0.01 0.01 0.00 0.00 0.00 0.00 0.00 0.00 0.00 0.00 0.00 0.00 0.00 0.00 0.00 0.01 0.02 0.02 0.04 0.03 0.05
3.49 1.92 1.30 1.02 0.73 0.60 0.36 0.10 0.08 0.24 0.29 0.25 0.16 0.07 0.07 0.05 0.09 0.15 0.11 0.04 0.01 0.00 0.00 0.00 0.00 0.00 0.00 0.00 0.00 0.00 0.00 0.00 0.00 0.00 0.00 0.00 0.00 0.00 0.00 0.03 0.09 0.13 0.17
4.14 3.67 2.07 1.51 1.41 0.55 0.40 0.12 0.06 0.11 0.36 0.27 0.26 0.15 0.16 0.13 0.14 0.10 0.13 0.11 0.07 0.03 0.02 0.00 0.00 0.00 0.00 0.00 0.00 0.00 0.00 0.00 0.00 0.00 0.00 0.00 0.00 0.00 0.00 0.02 0.06 0.09 0.14
1.62 3.06 3.61 2.19 1.43 1.22 0.84 0.31 0.10 0.04 0.16 0.38 0.26 0.20 0.18 0.30 0.34 0.17 0.15 0.10 0.06 0.09 0.04 0.02 0.00 0.00 0.00 0.00 0.00 0.00 0.00 0.00 0.00 0.00 0.00 0.00 0.00 0.00 0.00 0.00 0.02 0.09 0.21
0.85 1.63 2.32 2.43 1.66 1.26 1.14 0.75 0.24 0.13 0.07 0.27 0.34 0.25 0.19 0.21 0.19 0.22 0.17 0.16 0.19 0.31 0.31 0.18 0.08 0.06 0.02 0.01 0.00 0.00 0.00 0.00 0.00 0.00 0.00 0.00 0.00 0.00 0.00 0.00 0.02 0.10 0.21
0.56 0.75 1.13 1.11 1.53 1.20 1.40 1.06 0.72 0.37 0.16 0.17 0.45 0.41 0.29 0.30 0.23 0.18 0.12 0.07 0.22 0.46 0.54 0.36 0.19 0.12 0.02 0.00 0.00 0.00 0.00 0.00 0.00 0.00 0.00 0.00 0.00 0.00 0.00 0.00 0.02 0.06 0.06
0.45 0.52 0.66 0.65 0.58 0.85 1.08 1.39 1.24 0.90 0.43 0.22 0.26 0.43 0.58 0.40 0.48 0.37 0.25 0.16 0.26 0.43 0.42 0.35 0.30 0.23 0.13 0.09 0.05 0.04 0.02 0.01 0.01 0.00 0.00 0.00 0.00 0.00 0.00 0.00 0.00 0.00 0.02
0.53 0.43 0.40 0.45 0.36 0.46 0.73 1.21 1.35 1.13 0.87 0.47 0.23 0.14 0.43 0.84 0.69 0.77 0.58 0.43 0.47 0.54 0.66 0.65 0.30 0.32 0.29 0.33 0.32 0.17 0.08 0.05 0.02 0.01 0.00 0.00 0.01 0.01 0.00 0.01 0.00 0.00 0.02
0.70 0.52 0.34 0.28 0.38 0.48 0.60 0.80 0.99 0.92 1.06 0.95 0.74 0.70 0.40 0.46 0.75 0.78 0.76 0.83 0.79 0.69 0.60 0.67 0.71 0.56 0.31 0.37 0.41 0.21 0.17 0.10 0.03 0.02 0.01 0.01 0.01 0.02 0.01 0.01 0.01 0.02 0.05
1.00 0.72 0.68 0.55 0.71 0.54 0.62 0.93 1.06 1.09 1.03 1.25 1.25 1.04 1.21 1.01 0.95 0.91 0.65 0.57 0.66 0.73 0.66 0.55 0.61 0.64 0.48 0.52 0.47 0.30 0.11 0.03 0.01 0.01 0.01 0.00 0.00 0.00 0.01 0.02 0.04 0.08 0.08
1.25 0.85 0.73 0.76 0.68 0.47 0.55 0.82 1.15 1.46 1.46 1.09 0.75 0.68 0.75 1.15 1.23 1.27 1.19 1.17 1.07 0.93 0.81 0.70 0.69 0.79 0.78 0.64 0.54 0.53 0.17 0.03 0.01 0.00 0.00 0.00 0.00 0.01 0.02 0.05 0.13 0.21 0.18
1.24 0.87 0.73 0.87 0.82 0.85 1.11 1.20 0.97 1.02 1.25 1.17 1.32 1.16 1.37 1.32 1.26 1.43 1.59 1.51 1.56 1.56 1.29 1.21 1.08 1.02 0.90 0.65 0.57 0.44 0.35 0.18 0.13 0.08 0.02 0.03 0.05 0.07 0.11 0.14 0.15 0.13 0.09
1.57 0.95 0.70 1.20 1.30 1.23 1.19 1.65 1.59 1.70 1.37 1.41 1.60 1.67 1.60 1.78 1.92 1.98 2.01 2.07 1.86 1.84 2.02 1.80 1.63 1.47 1.36 1.16 0.88 0.68 0.53 0.39 0.30 0.30 0.17 0.11 0.11 0.10 0.10 0.09 0.06 0.03 0.03
1.39 1.37 1.00 0.98 1.10 1.11 1.08 1.44 1.63 1.30 1.20 1.08 1.23 1.47 1.43 1.48 1.68 1.98 2.11 2.00 1.94 1.59 1.46 1.56 1.52 1.39 1.29 1.12 0.85 0.70 0.63 0.63 0.52 0.57 0.55 0.36 0.30 0.19 0.13 0.09 0.05 0.05 0.06

GFSSE_prec_precacc_141.txt.gz
Total_Precipitation_Accumulation
0.05 0.09 0.31 0.27 0.23 0.30 0.24 0.22 0.22 0.16 0.20 0.19 0.17 0.14 0.13 0.26 0.30 0.17 0.11 0.08 0.14 0.20 0.20 0.30 0.48 0.50 0.49 0.35 0.18 0.12 0.11 0.05 0.10 0.19 0.22 0.26 0.26 0.16 0.12 0.11 0.11 0.09 0.15
0.03 0.08 0.21 0.22 0.31 0.36 0.36 0.29 0.25 0.14 0.17 0.17 0.24 0.19 0.14 0.32 0.20 0.07 0.04 0.07 0.16 0.26 0.30 0.38 0.39 0.28 0.19 0.07 0.03 0.01 0.01 0.02 0.05 0.03 0.02 0.02 0.10 0.12 0.06 0.06 0.15 0.12 0.14
0.04 0.10 0.12 0.19 0.26 0.30 0.29 0.21 0.12 0.10 0.14 0.16 0.26 0.30 0.19 0.32 0.10 0.04 0.08 0.10 0.23 0.31 0.38 0.34 0.14 0.03 0.03 0.01 0.01 0.01 0.00 0.03 0.05 0.06 0.03 0.02 0.05 0.13 0.11 0.09 0.11 0.10 0.09
0.04 0.11 0.08 0.20 0.25 0.21 0.19 0.16 0.17 0.14 0.13 0.17 0.29 0.27 0.26 0.30 0.03 0.08 0.08 0.14 0.29 0.29 0.19 0.05 0.01 0.02 0.01 0.00 0.01 0.01 0.01 0.01 0.01 0.02 0.02 0.00 0.01 0.03 0.06 0.10 0.09 0.08 0.08
0.09 0.19 0.11 0.24 0.27 0.24 0.21 0.20 0.20 0.19 0.21 0.25 0.34 0.46 0.47 0.34 0.19 0.29 0.16 0.16 0.16 0.05 0.02 0.02 0.01 0.00 0.00 0.00 0.01 0.00 0.00 0.00 0.00 0.00 0.00 0.02 0.05 0.15 0.14 0.13 0.14 0.17 0.22
0.16 0.33 0.34 0.38 0.36 0.26 0.22 0.20 0.20 0.17 0.15 0.23 0.31 0.46 0.39 0.29 0.52 0.64 0.29 0.14 0.03 0.03 0.02 0.01 0.00 0.00 0.00 0.00 0.00 0.00 0.00 0.00 0.00 0.01 0.01 0.05 0.09 0.21 0.16 0.13 0.22 0.27 0.27
0.14 0.23 0.40 0.53 0.41 0.36 0.33 0.24 0.26 0.27 0.24 0.21 0.26 0.25 0.19 0.29 0.76 0.69 0.37 0.16 0.03 0.03 0.01 0.00 0.00 0.00 0.00 0.00 0.00 0.00 0.00 0.00 0.00 0.00 0.00 0.01 0.04 0.08 0.07 0.05 0.04 0.08 0.12
0.33 0.43 0.36 0.33 0.30 0.29 0.32 0.35 0.32 0.30 0.30 0.33 0.32 0.33 0.33 0.34 0.60 0.61 0.39 0.28 0.09 0.02 0.01 0.01 0.00 0.00 0.01 0.01 0.00 0.00 0.00 0.00 0.00 0.00 0.00 0.01 0.03 0.02 0.03 0.04 0.04 0.06 0.06
0.88 0.91 0.87 0.47 0.37 0.23 0.17 0.20 0.36 0.34 0.32 0.32 0.36 0.37 0.26 0.21 0.28 0.38 0.29 0.24 0.16 0.04 0.03 0.01 0.00 0.00 0.01 0.02 0.02 0.02 0.01 0.00 0.00 0.00 0.00 0.01 0.02 0.01 0.02 0.04 0.05 0.06 0.08
1.34 1.23 1.15 0.78 0.48 0.20 0.13 0.15 0.24 0.26 0.21 0.27 0.29 0.21 0.11 0.06 0.10 0.27 0.11 0.09 0.14 0.12 0.07 0.03 0.02 0.03 0.03 0.02 0.02 0.01 0.01 0.00 0.00 0.00 0.00 0.00 0.01 0.02 0.04 0.05 0.05 0.07 0.11
1.77 1.65 1.50 1.28 0.71 0.36 0.14 0.11 0.20 0.27 0.21 0.19 0.19 0.16 0.14 0.04 0.02 0.11 0.05 0.02 0.05 0.08 0.05 0.06 0.05 0.04 0.02 0.01 0.01 0.00 0.00 0.00 0.00 0.00 0.00 0.00 0.01 0.02 0.04 0.04 0.06 0.06 0.07
1.84 1.66 1.50 1.31 0.86 0.41 0.29 0.23 0.12 0.28 0.21 0.07 0.09 0.11 0.09 0.05 0.03 0.05 0.06 0.04 0.05 0.06 0.04 0.05 0.03 0.02 0.01 0.00 0.00 0.00 0.00 0.00 0.00 0.00 0.00 0.00 0.00 0.02 0.02 0.04 0.04 0.02 0.02
2.25 1.53 1.25 1.20 1.14 0.67 0.30 0.21 0.16 0.49 0.38 0.18 0.08 0.09 0.12 0.10 0.08 0.11 0.09 0.02 0.02 0.01 0.01 0.02 0.01 0.01 0.00 0.00 0.00 0.00 0.00 0.00 0.00 0.00 0.00 0.00 0.00 0.01 0.02 0.02 0.04 0.03 0.05
3.49 1.92 1.30 1.02 0.73 0.60 0.36 0.10 0.08 0.24 0.29 0.25 0.17 0.09 0.10 0.08 0.11 0.15 0.11 0.05 0.02 0.00 0.00 0.00 0.00 0.00 0.00 0.00 0.00 0.00 0.00 0.00 0.00 0.00 0.00 0.00 0.00 0.00 0.00 0.03 0.10 0.14 0.17
4.14 3.67 2.07 1.51 1.41 0.55 0.40 0.12 0.06 0.11 0.36 0.27 0.26 0.15 0.16 0.14 0.15 0.12 0.14 0.12 0.08 0.03 0.02 0.00 0.00 0.00 0.00 0.02 0.04 0.01 0.00 0.00 0.00 0.00 0.00 0.00 0.00 0.00 0.00 0.02 0.06 0.09 0.14
1.62 3.06 3.61 2.19 1.43 1.22 0.84 0.31 0.10 0.04 0.16 0.38 0.26 0.20 0.18 0.30 0.35 0.18 0.16 0.11 0.07 0.09 0.05 0.03 0.02 0.02 0.01 0.01 0.01 0.01 0.00 0.00 0.00 0.00 0.00 0.00 0.00 0.00 0.00 0.00 0.02 0.09 0.21
0.85 1.63 2.32 2.43 1.66 1.26 1.14 0.75 0.24 0.13 0.07 0.27 0.34 0.25 0.19 0.21 0.20 0.24 0.20 0.19 0.22 0.34 0.40 0.31 0.21 0.16 0.07 0.05 0.04 0.01 0.01 0.03 0.00 0.01 0.00 0.00 0.00 0.00 0.00 0.00 0.02 0.10 0.21
0.56 0.75 1.13 1.11 1.53 1.20 1.40 1.06 0.72 0.37 0.16 0.17 0.45 0.41 0.29 0.30 0.23 0.19 0.13 0.09 0.25 0.51 0.66 0.51 0.35 0.30 0.19 0.16 0.15 0.14 0.15 0.12 0.06 0.03 0.01 0.00 0.00 0.00 0.00 0.00 0.02 0.06 0.07
0.45 0.52 0.66 0.65 0.58 0.85 1.08 1.39 1.24 0.90 0.43 0.22 0.26 0.43 0.58 0.40 0.48 0.37 0.25 0.17 0.29 0.47 0.48 0.47 0.45 0.42 0.32 0.28 0.26 0.28 0.24 0.15 0.10 0.07 0.03 0.02 0.01 0.00 0.00 0.01 0.01 0.00 0.02
0.53 0.43 0.40 0.45 0.36 0.46 0.73 1.21 1.35 1.13 0.87 0.47 0.23 0.14 0.43 0.84 0.69 0.77 0.58 0.43 0.49 0.56 0.70 0.73 0.39 0.44 0.42 0.53 0.56 0.37 0.32 0.25 0.16 0.11 0.09 0.05 0.03 0.03 0.03 0.05 0.04 0.04 0.04
0.70 0.52 0.34 0.28 0.38 0.48 0.60 0.80 0.99 0.92 1.06 0.95 0.74 0.70 0.40 0.46 0.75 0.78 0.76 0.83 0.80 0.70 0.63 0.74 0.81 0.64 0.42 0.51 0.58 0.35 0.31 0.25 0.17 0.14 0.14 0.10 0.08 0.10 0.07 0.05 0.05 0.08 0.07
1.00 0.72 0.68 0.55 0.71 0.54 0.62 0.93 1.06 1.09 1.03 1.25 1.25 1.04 1.21 1.01 0.95 0.91 0.65 0.57 0.66 0.73 0.68 0.59 0.65 0.71 0.57 0.65 0.57 0.38 0.18 0.10 0.05 0.03 0.08 0.09 0.09 0.11 0.08 0.08 0.07 0.09 0.09
1.25 0.85 0.73 0.76 0.68 0.47 0.55 0.82 1.15 1.46 1.46 1.09 0.75 0.68 0.75 1.15 1.23 1.27 1.19 1.17 1.07 0.93 0.82 0.73 0.74 0.85 0.85 0.80 0.68 0.70 0.29 0.06 0.05 0.02 0.00 0.01 0.04 0.07 0.09 0.09 0.15 0.21 0.18
1.24 0.87 0.73 0.87 0.82 0.85 1.12 1.20 0.98 1.03 1.25 1.17 1.32 1.16 1.37 1.32 1.26 1.43 1.59 1.51 1.57 1.57 1.30 1.22 1.12 1.10 1.03 0.75 0.70 0.53 0.52 0.29 0.18 0.09 0.03 0.04 0.05 0.10 0.17 0.19 0.18 0.14 0.09
1.57 0.95 0.70 1.20 1.30 1.23 1.19 1.65 1.60 1.70 1.37 1.41 1.60 1.67 1.60 1.78 1.92 1.98 2.01 2.07 1.87 1.86 2.04 1.83 1.66 1.52 1.43 1.24 1.00 0.86 0.67 0.53 0.41 0.35 0.20 0.13 0.13 0.11 0.11 0.09 0.06 0.03 0.03
1.39 1.37 1.00 0.98 1.10 1.11 1.08 1.45 1.64 1.30 1.21 1.08 1.23 1.47 1.43 1.48 1.68 1.98 2.11 2.01 1.95 1.61 1.48 1.58 1.55 1.42 1.34 1.18 0.95 0.84 0.75 0.74 0.63 0.64 0.59 0.38 0.32 0.21 0.15 0.10 0.05 0.05 0.06